[[{"header":{"parameterUnit":"m.s-1","parameterCategory":1,"la1":31.0,"la2":29.5877,"lo1":-88.7671,"lo2":-86.6584,"dy":0.0162,"dx":0.0185,"nx":115,"ny":88,"refTime":"2026-04-10T00:00:00:Z","depth":0,"parameterNumber":2,"parameterNumberName":"U-component_of_WINDS"},"data":[0.0,0.0,0.0,0.0,0.0,0.0,0.0,0.0,0.0,0.0,0.0,0.0,0.0,0.0,0.0,0.0,0.0,0.0,0.0,0.0,0.0,0.0,0.0,0.0,0.0,0.0,0.0,0.0,0.0,0.0,0.0,0.0,0.0,0.0,0.0,0.0,0.0,0.0,0.0,0.0,0.0,0.0,0.0,0.0,0.0,0.0,0.0,0.0,0.0,0.0,0.0,0.0,0.0,0.0,0.0,0.0,0.0,0.0,0.0,0.0,0.0,0.0,0.0,0.0,0.0,0.0,0.0,0.0,0.0,0.0,0.0,0.0,0.0,0.0,0.0,0.0,0.0,0.0,0.0,0.0,0.0,0.0,0.0,0.0,0.0,0.0,0.0,0.0,0.0,0.0,0.0,0.0,0.0,0.0,0.0,0.0,0.0,0.0,0.0,0.0,0.0,0.0,0.0,0.0,0.0,0.0,0.0,0.0,0.0,0.0,0.0,0.0,0.0,0.0,0.0,0.0,0.0,0.0,0.0,0.0,0.0,0.0,0.0,0.0,0.0,0.0,0.0,0.0,0.0,0.0,0.0,0.0,0.0,0.0,0.0,0.0,0.0,0.0,0.0,0.0,0.0,0.0,0.0,0.0,0.0,0.0,0.0,0.0,0.0,0.0,0.0,0.0,0.0,0.0,0.0,0.0,0.0,0.0,0.0,0.0,0.0,0.0,0.0,0.0,0.0,0.0,0.0,0.0,0.0,0.0,0.0,0.0,0.0,0.0,0.0,0.0,0.0,0.0,0.0,0.0,0.0,0.0,0.0,0.0,0.0,0.0,0.0,0.0,0.0,0.0,0.0,0.0,0.0,0.0,0.0,0.0,0.0,0.0,0.0,0.0,0.0,0.0,0.0,0.0,0.0,0.0,0.0,0.0,0.0,0.0,0.0,0.0,0.0,0.0,0.0,0.0,0.0,0.0,0.0,0.0,0.0,0.0,0.0,0.0,0.0,0.0,0.0,0.0,0.0,0.0,0.0,0.0,0.0,0.0,0.0,0.0,0.0,0.0,0.0,0.0,0.0,0.0,0.0,0.0,0.0,0.0,0.0,0.0,0.0,0.0,0.0,0.0,0.0,0.0,0.0,0.0,0.0,0.0,0.0,0.0,0.0,0.0,0.0,0.0,0.0,0.0,0.0,0.0,0.0,0.0,0.0,0.0,0.0,0.0,0.0,0.0,0.0,0.0,0.0,0.0,0.0,0.0,0.0,0.0,0.0,0.0,0.0,0.0,0.0,0.0,0.0,0.0,0.0,0.0,0.0,0.0,0.0,0.0,0.0,0.0,0.0,0.0,0.0,0.0,0.0,0.0,0.0,0.0,0.0,0.0,0.0,0.0,0.0,0.0,0.0,0.0,0.0,0.0,0.0,0.0,0.0,0.0,0.0,0.0,0.0,0.0,0.0,0.0,0.0,0.0,0.0,0.0,0.0,0.0,0.0,0.0,0.0,0.0,0.0,0.0,0.0,0.0,0.0,0.0,0.0,0.0,0.0,0.0,0.0,0.0,0.0,0.0,0.0,0.0,0.0,0.0,0.0,0.0,0.0,0.0,0.0,0.0,0.0,0.0,0.0,0.0,0.0,0.0,0.0,0.0,0.0,0.0,0.0,0.0,0.0,0.0,0.0,0.0,0.0,0.0,0.0,0.0,0.0,0.0,0.0,0.0,0.0,0.0,0.0,0.0,0.0,0.0,0.0,0.0,0.0,0.0,0.0,0.0,0.0,0.0,0.0,0.0,0.0,0.0,0.0,0.0,0.0,0.0,0.0,0.0,0.0,0.0,0.0,0.0,0.0,0.0,0.0,0.0,0.0,0.0,0.0,0.0,0.0,0.0,0.0,0.0,0.0,0.0,0.0,0.0,0.0,0.0,0.0,0.0,0.0,0.0,0.0,0.0,0.0,0.0,0.0,0.0,0.0,0.0,0.0,0.0,0.0,0.0,0.0,0.0,0.0,0.0,0.0,0.0,0.0,0.0,0.0,0.0,0.0,0.0,0.0,0.0,0.0,0.0,0.0,0.0,0.0,0.0,0.0,0.0,0.0,0.0,0.0,0.0,0.0,0.0,0.0,0.0,0.0,0.0,0.0,0.0,0.0,0.0,0.0,0.0,0.0,0.0,0.0,0.0,0.0,0.0,0.0,0.0,0.0,0.0,0.0,0.0,0.0,0.0,0.0,0.0,0.0,0.0,0.0,0.0,0.0,0.0,0.0,0.0,0.0,0.0,0.0,0.0,0.0,0.0,0.0,0.0,0.0,0.0,0.0,0.0,0.0,0.0,0.0,0.0,0.0,0.0,0.0,0.0,0.0,0.0,0.0,0.0,0.0,0.0,0.0,0.0,0.0,0.0,0.0,0.0,0.0,0.0,0.0,0.0,0.0,0.0,0.0,0.0,0.0,0.0,0.0,0.0,0.0,0.0,0.0,0.0,0.0,0.0,0.0,0.0,0.0,0.0,0.0,0.0,0.0,0.0,0.0,0.0,0.0,0.0,0.0,0.0,0.0,0.0,0.0,0.0,0.0,0.0,0.0,0.0,0.0,0.0,0.0,0.0,0.0,0.0,0.0,0.0,0.0,0.0,0.0,0.0,0.0,0.0,0.0,0.0,0.0,0.0,0.0,0.0,0.0,0.0,0.0,0.0,0.0,0.0,0.0,0.0,0.0,0.0,0.0,0.0,0.0,0.0,0.0,0.0,0.0,0.0,0.0,0.0,0.0,0.0,0.0,0.0,0.0,0.0,0.0,0.0,0.0,0.0,0.0,0.0,0.0,0.0,0.0,0.0,0.0,0.0,0.0,0.0,0.0,0.0,0.0,0.0,0.0,0.0,0.0,0.0,0.0,0.0,0.0,0.0,0.0,0.0,0.0,0.0,0.0,0.0,0.0,0.0,0.0,0.0,0.0,0.0,0.0,0.0,0.0,0.0,0.0,0.0,0.0,0.0,0.0,0.0,0.0,0.0,0.0,0.0,0.0,0.0,0.0,0.0,0.0,0.0,0.0,0.0,0.0,0.0,0.0,0.0,0.0,0.0,0.0,0.0,0.0,0.0,0.0,0.0,0.0,0.0,0.0,0.0,0.0,0.0,0.0,0.0,0.0,0.0,0.0,0.0,0.0,0.0,0.0,0.0,0.0,0.0,0.0,0.0,0.0,0.0,0.0,0.0,0.0,0.0,0.0,0.0,0.0,0.0,0.0,0.0,0.0,0.0,0.0,0.0,0.0,0.0,0.0,0.0,0.0,0.0,0.0,0.0,0.0,0.0,0.0,0.0,0.0,0.0,0.0,0.0,0.0,0.0,0.0,0.0,0.0,0.0,0.0,0.0,0.0,0.0,0.0,0.0,0.0,0.0,0.0,0.0,0.0,0.0,0.0,0.0,0.0,0.0,0.0,0.0,0.0,0.0,0.0,0.0,0.0,0.0,0.0,0.0,0.0,0.0,0.0,0.0,0.0,0.0,0.0,0.0,0.0,0.0,0.0,0.0,0.0,0.0,0.0,0.0,0.0,0.0,0.0,0.0,0.0,0.0,0.0,0.0,0.0,0.0,0.0,0.0,0.0,0.0,0.0,0.0,0.0,0.0,0.0,0.0,0.0,0.0,0.0,0.0,0.0,0.0,0.0,0.0,0.0,0.0,0.0,0.0,0.0,0.0,0.0,0.0,0.0,0.0,0.0,0.0,0.0,0.0,0.0,0.0,0.0,0.0,0.0,0.0,0.0,0.0,0.0,0.0,0.0,0.0,0.0,0.0,0.0,0.0,0.0,0.0,0.0,0.0,0.0,0.0,0.0,0.0,0.0,0.0,0.0,0.0,0.0,0.0,0.0,0.0,0.0,0.0,0.0,0.0,0.0,0.0,0.0,0.0,0.0,0.0,0.0,0.0,0.0,0.0,0.0,0.0,0.0,0.0,0.0,0.0,0.0,0.0,0.0,0.0,0.0,0.0,0.0,0.0,0.0,0.0,0.0,0.0,0.0,0.0,0.0,0.0,0.0,0.0,0.0,0.0,0.0,0.0,0.0,0.0,0.0,0.0,0.0,0.0,0.0,0.0,0.0,0.0,0.0,0.0,0.0,0.0,0.0,0.0,0.0,0.0,0.0,0.0,0.0,0.0,0.0,0.0,0.0,0.0,0.0,0.0,0.0,0.0,0.0,0.0,0.0,0.0,0.0,0.0,0.0,0.0,0.0,0.0,0.0,0.0,0.0,0.0,0.0,0.0,0.0,0.0,0.0,0.0,-4.3667,0.0,0.0,0.0,0.0,0.0,0.0,0.0,0.0,0.0,0.0,0.0,0.0,0.0,0.0,0.0,0.0,0.0,0.0,0.0,0.0,0.0,0.0,0.0,0.0,0.0,0.0,0.0,0.0,0.0,0.0,0.0,0.0,0.0,0.0,0.0,0.0,0.0,0.0,0.0,0.0,0.0,0.0,0.0,0.0,0.0,0.0,0.0,0.0,0.0,0.0,0.0,0.0,0.0,0.0,0.0,0.0,0.0,0.0,0.0,0.0,0.0,0.0,0.0,0.0,0.0,0.0,0.0,0.0,0.0,0.0,0.0,0.0,0.0,0.0,0.0,0.0,0.0,0.0,0.0,0.0,0.0,0.0,0.0,0.0,0.0,0.0,0.0,0.0,0.0,0.0,0.0,0.0,0.0,0.0,0.0,0.0,0.0,0.0,0.0,0.0,0.0,0.0,0.0,0.0,0.0,0.0,0.0,0.0,0.0,0.0,-4.6289,-4.6269,-4.4609,-4.3709,-4.3669,0.0,0.0,0.0,0.0,0.0,0.0,0.0,0.0,0.0,0.0,0.0,0.0,0.0,0.0,0.0,0.0,0.0,0.0,0.0,0.0,0.0,0.0,0.0,0.0,0.0,0.0,0.0,0.0,0.0,0.0,0.0,0.0,0.0,0.0,0.0,0.0,0.0,0.0,0.0,0.0,0.0,0.0,0.0,0.0,0.0,0.0,0.0,0.0,0.0,0.0,0.0,0.0,0.0,0.0,0.0,0.0,0.0,0.0,0.0,0.0,0.0,0.0,0.0,0.0,0.0,0.0,0.0,0.0,0.0,0.0,0.0,0.0,0.0,0.0,0.0,0.0,0.0,0.0,0.0,0.0,0.0,0.0,0.0,0.0,0.0,0.0,0.0,0.0,0.0,0.0,0.0,0.0,0.0,0.0,0.0,0.0,0.0,0.0,0.0,0.0,0.0,0.0,0.0,0.0,0.0,0.0,0.0,0.0,0.0,0.0,0.0,0.0,-4.4804,-4.371,-4.3103,0.0,0.0,0.0,0.0,0.0,0.0,0.0,0.0,0.0,0.0,0.0,0.0,0.0,0.0,0.0,0.0,0.0,0.0,0.0,0.0,0.0,0.0,0.0,0.0,0.0,0.0,0.0,0.0,0.0,0.0,0.0,0.0,0.0,0.0,0.0,0.0,0.0,0.0,0.0,0.0,0.0,0.0,0.0,0.0,0.0,0.0,0.0,0.0,0.0,0.0,0.0,0.0,0.0,0.0,0.0,0.0,0.0,0.0,0.0,0.0,0.0,0.0,0.0,0.0,0.0,0.0,0.0,0.0,0.0,0.0,0.0,0.0,0.0,0.0,0.0,0.0,0.0,0.0,0.0,0.0,0.0,0.0,0.0,0.0,0.0,0.0,0.0,0.0,0.0,0.0,0.0,0.0,0.0,0.0,0.0,0.0,0.0,0.0,0.0,0.0,0.0,0.0,0.0,0.0,0.0,0.0,0.0,0.0,0.0,0.0,-4.5488,-4.6269,-4.5351,0.0,-4.1502,0.0,0.0,0.0,0.0,0.0,0.0,0.0,0.0,0.0,0.0,0.0,0.0,0.0,0.0,0.0,0.0,0.0,0.0,0.0,0.0,0.0,0.0,0.0,0.0,0.0,0.0,0.0,0.0,0.0,0.0,0.0,0.0,0.0,0.0,0.0,0.0,0.0,0.0,0.0,0.0,0.0,0.0,0.0,0.0,0.0,0.0,0.0,0.0,0.0,0.0,0.0,0.0,0.0,0.0,0.0,0.0,0.0,0.0,0.0,0.0,0.0,0.0,0.0,0.0,0.0,0.0,0.0,0.0,0.0,0.0,0.0,0.0,0.0,0.0,0.0,0.0,0.0,0.0,0.0,0.0,0.0,0.0,0.0,0.0,0.0,0.0,0.0,0.0,0.0,0.0,0.0,0.0,0.0,0.0,0.0,0.0,0.0,0.0,0.0,0.0,0.0,0.0,0.0,0.0,0.0,0.0,0.0,0.0,0.0,0.0,-4.541,-4.6289,-4.4961,-4.3242,0.0,0.0,0.0,0.0,0.0,0.0,0.0,0.0,0.0,0.0,0.0,0.0,0.0,0.0,0.0,0.0,0.0,0.0,0.0,0.0,0.0,0.0,0.0,0.0,0.0,0.0,0.0,0.0,0.0,0.0,0.0,0.0,0.0,0.0,0.0,0.0,0.0,0.0,0.0,0.0,0.0,0.0,0.0,0.0,0.0,0.0,0.0,0.0,0.0,0.0,0.0,0.0,0.0,0.0,0.0,0.0,0.0,0.0,0.0,0.0,0.0,0.0,0.0,0.0,0.0,0.0,0.0,0.0,0.0,0.0,0.0,0.0,0.0,0.0,0.0,0.0,0.0,0.0,0.0,0.0,0.0,0.0,0.0,0.0,0.0,0.0,0.0,0.0,0.0,0.0,0.0,0.0,0.0,0.0,0.0,0.0,0.0,0.0,0.0,0.0,0.0,0.0,0.0,0.0,0.0,0.0,0.0,0.0,0.0,0.0,-4.4062,-4.5058,-4.582,-4.4492,-4.2773,-4.0819,0.0,0.0,0.0,0.0,0.0,0.0,0.0,0.0,0.0,0.0,0.0,0.0,0.0,0.0,0.0,0.0,0.0,0.0,0.0,0.0,0.0,0.0,0.0,0.0,0.0,0.0,0.0,0.0,0.0,0.0,0.0,0.0,0.0,0.0,0.0,0.0,0.0,0.0,0.0,0.0,0.0,0.0,0.0,0.0,0.0,0.0,0.0,0.0,0.0,0.0,0.0,0.0,0.0,0.0,0.0,0.0,0.0,0.0,0.0,0.0,0.0,0.0,0.0,0.0,0.0,0.0,0.0,0.0,0.0,0.0,0.0,0.0,0.0,0.0,0.0,0.0,0.0,0.0,0.0,0.0,0.0,0.0,0.0,0.0,0.0,0.0,0.0,0.0,0.0,0.0,0.0,0.0,0.0,0.0,0.0,0.0,0.0,0.0,0.0,0.0,0.0,0.0,0.0,0.0,0.0,0.0,0.0,0.0,0.0,-4.2908,-4.4179,-4.5,-4.416,-4.25,0.0,0.0,0.0,0.0,0.0,0.0,0.0,0.0,0.0,0.0,0.0,0.0,0.0,0.0,0.0,0.0,0.0,0.0,0.0,0.0,0.0,0.0,0.0,0.0,0.0,0.0,0.0,0.0,0.0,0.0,0.0,0.0,0.0,0.0,0.0,0.0,0.0,0.0,0.0,0.0,0.0,0.0,0.0,0.0,0.0,0.0,0.0,0.0,0.0,0.0,0.0,0.0,0.0,0.0,0.0,0.0,0.0,0.0,0.0,0.0,0.0,0.0,0.0,0.0,0.0,0.0,0.0,0.0,0.0,0.0,0.0,0.0,0.0,0.0,0.0,0.0,0.0,0.0,0.0,0.0,0.0,0.0,0.0,0.0,0.0,0.0,0.0,0.0,0.0,0.0,0.0,0.0,0.0,0.0,0.0,0.0,0.0,0.0,0.0,0.0,0.0,0.0,0.0,0.0,0.0,0.0,0.0,0.0,0.0,-4.1177,-4.281,-4.3847,-4.4101,-4.2832,-4.1406,0.0,0.0,0.0,0.0,0.0,0.0,0.0,0.0,0.0,0.0,0.0,0.0,0.0,0.0,0.0,0.0,0.0,0.0,0.0,0.0,0.0,0.0,0.0,0.0,0.0,0.0,0.0,0.0,0.0,0.0,0.0,0.0,0.0,0.0,0.0,0.0,0.0,0.0,0.0,0.0,0.0,0.0,0.0,0.0,0.0,0.0,0.0,0.0,0.0,0.0,0.0,0.0,0.0,0.0,0.0,0.0,0.0,0.0,0.0,0.0,0.0,0.0,0.0,0.0,0.0,0.0,0.0,0.0,0.0,0.0,0.0,0.0,0.0,0.0,0.0,0.0,0.0,0.0,0.0,0.0,0.0,0.0,0.0,0.0,0.0,0.0,0.0,0.0,0.0,0.0,0.0,0.0,0.0,0.0,0.0,0.0,0.0,0.0,0.0,0.0,0.0,0.0,0.0,0.0,0.0,0.0,0.0,0.0,0.0,-4.1963,0.0,-4.3984,0.0,-4.205,-4.0625,0.0,0.0,0.0,0.0,0.0,0.0,0.0,0.0,0.0,0.0,0.0,0.0,0.0,0.0,0.0,0.0,0.0,0.0,0.0,0.0,0.0,0.0,0.0,0.0,0.0,0.0,0.0,0.0,0.0,0.0,0.0,0.0,0.0,0.0,0.0,0.0,0.0,0.0,0.0,0.0,0.0,0.0,0.0,0.0,0.0,0.0,0.0,0.0,0.0,0.0,0.0,0.0,0.0,0.0,0.0,0.0,0.0,0.0,0.0,0.0,0.0,0.0,0.0,0.0,0.0,0.0,0.0,0.0,0.0,0.0,0.0,0.0,0.0,0.0,0.0,0.0,0.0,0.0,0.0,0.0,0.0,0.0,0.0,0.0,0.0,0.0,0.0,0.0,0.0,0.0,0.0,0.0,0.0,0.0,0.0,0.0,0.0,0.0,0.0,0.0,0.0,0.0,0.0,0.0,0.0,0.0,0.0,0.0,-4.1847,-4.3613,-4.4534,-4.4601,-4.3723,-4.2027,-4.0328,0.0,0.0,0.0,0.0,0.0,0.0,0.0,0.0,0.0,0.0,0.0,0.0,0.0,0.0,0.0,0.0,0.0,0.0,0.0,0.0,0.0,0.0,0.0,0.0,0.0,0.0,0.0,0.0,0.0,0.0,0.0,0.0,0.0,0.0,0.0,0.0,0.0,0.0,0.0,0.0,0.0,0.0,0.0,0.0,0.0,0.0,0.0,0.0,0.0,0.0,0.0,0.0,0.0,0.0,0.0,0.0,0.0,0.0,0.0,0.0,0.0,0.0,0.0,0.0,0.0,0.0,0.0,0.0,0.0,0.0,0.0,0.0,0.0,0.0,0.0,0.0,0.0,0.0,0.0,0.0,0.0,0.0,0.0,0.0,0.0,0.0,0.0,0.0,0.0,0.0,0.0,0.0,0.0,0.0,0.0,0.0,0.0,0.0,0.0,0.0,0.0,0.0,0.0,0.0,0.0,0.0,0.0,0.0,0.0,-4.444,-4.5254,-4.5301,-4.4484,-4.2254,-4.0528,0.0,0.0,0.0,0.0,0.0,0.0,0.0,0.0,0.0,0.0,0.0,0.0,0.0,0.0,0.0,0.0,0.0,0.0,0.0,0.0,0.0,0.0,0.0,0.0,0.0,0.0,0.0,0.0,0.0,0.0,0.0,0.0,0.0,0.0,0.0,0.0,0.0,0.0,0.0,0.0,0.0,0.0,0.0,0.0,0.0,0.0,0.0,0.0,0.0,0.0,0.0,0.0,0.0,0.0,0.0,0.0,0.0,0.0,0.0,0.0,0.0,0.0,0.0,0.0,0.0,0.0,0.0,0.0,0.0,0.0,0.0,0.0,0.0,0.0,0.0,0.0,0.0,0.0,0.0,0.0,0.0,0.0,0.0,0.0,0.0,0.0,0.0,0.0,0.0,0.0,0.0,0.0,0.0,0.0,0.0,0.0,0.0,0.0,0.0,0.0,0.0,0.0,0.0,0.0,0.0,0.0,0.0,0.0,0.0,-4.6574,-4.7485,-4.7256,-4.5852,-4.3621,-4.159,-3.9767,0.0,0.0,0.0,0.0,0.0,0.0,0.0,0.0,0.0,0.0,0.0,0.0,0.0,0.0,0.0,0.0,0.0,0.0,0.0,0.0,0.0,0.0,0.0,0.0,0.0,0.0,0.0,0.0,0.0,0.0,0.0,0.0,0.0,0.0,0.0,0.0,0.0,0.0,0.0,0.0,0.0,0.0,0.0,0.0,0.0,0.0,0.0,0.0,0.0,0.0,0.0,0.0,0.0,0.0,0.0,0.0,0.0,0.0,0.0,0.0,0.0,0.0,0.0,0.0,0.0,0.0,0.0,0.0,0.0,0.0,0.0,0.0,0.0,0.0,0.0,0.0,0.0,0.0,0.0,0.0,0.0,0.0,0.0,0.0,0.0,0.0,0.0,0.0,0.0,0.0,0.0,0.0,0.0,0.0,0.0,0.0,0.0,0.0,0.0,0.0,0.0,0.0,0.0,0.0,0.0,0.0,0.0,0.0,-4.976,-5.0998,-5.033,-4.7678,-4.5916,-4.3422,0.0,0.0,0.0,0.0,0.0,0.0,0.0,0.0,0.0,0.0,0.0,0.0,0.0,0.0,0.0,0.0,0.0,0.0,0.0,0.0,0.0,0.0,0.0,0.0,0.0,0.0,0.0,0.0,0.0,0.0,0.0,0.0,0.0,0.0,0.0,0.0,0.0,0.0,0.0,0.0,0.0,0.0,0.0,0.0,0.0,0.0,0.0,0.0,0.0,0.0,0.0,0.0,0.0,0.0,0.0,0.0,0.0,0.0,0.0,0.0,0.0,0.0,0.0,0.0,0.0,0.0,0.0,0.0,0.0,0.0,0.0,0.0,0.0,0.0,0.0,0.0,0.0,0.0,0.0,0.0,0.0,0.0,0.0,0.0,0.0,0.0,0.0,0.0,0.0,0.0,0.0,0.0,0.0,0.0,0.0,0.0,0.0,0.0,0.0,0.0,0.0,0.0,0.0,0.0,0.0,0.0,0.0,0.0,0.0,-5.2257,-5.5125,-5.4498,-5.0216,-4.7817,-4.5308,0.0,0.0,0.0,0.0,0.0,0.0,0.0,0.0,0.0,0.0,0.0,0.0,0.0,0.0,0.0,0.0,0.0,0.0,0.0,0.0,0.0,0.0,0.0,0.0,0.0,0.0,0.0,0.0,0.0,0.0,0.0,0.0,0.0,0.0,0.0,0.0,0.0,0.0,0.0,0.0,0.0,0.0,0.0,0.0,0.0,0.0,0.0,0.0,0.0,0.0,0.0,0.0,0.0,0.0,0.0,0.0,0.0,0.0,0.0,0.0,0.0,0.0,0.0,0.0,0.0,0.0,0.0,0.0,0.0,0.0,0.0,0.0,0.0,0.0,0.0,0.0,0.0,0.0,0.0,0.0,0.0,0.0,0.0,0.0,0.0,0.0,0.0,0.0,0.0,0.0,0.0,0.0,0.0,0.0,0.0,0.0,0.0,0.0,0.0,0.0,0.0,0.0,0.0,0.0,0.0,0.0,0.0,0.0,-4.9872,-5.3244,-5.6657,-5.6704,-5.3201,-5.0299,-4.7092,0.0,0.0,0.0,0.0,0.0,0.0,0.0,0.0,0.0,0.0,0.0,0.0,0.0,0.0,0.0,0.0,0.0,0.0,0.0,0.0,0.0,0.0,0.0,0.0,0.0,0.0,0.0,0.0,0.0,0.0,0.0,0.0,0.0,0.0,0.0,0.0,0.0,0.0,0.0,0.0,0.0,0.0,0.0,0.0,0.0,0.0,0.0,0.0,0.0,0.0,0.0,0.0,0.0,0.0,0.0,0.0,0.0,0.0,0.0,0.0,0.0,0.0,0.0,0.0,0.0,0.0,0.0,0.0,0.0,0.0,0.0,0.0,0.0,0.0,0.0,0.0,0.0,0.0,0.0,0.0,0.0,0.0,0.0,0.0,0.0,0.0,0.0,0.0,0.0,0.0,0.0,0.0,0.0,0.0,0.0,0.0,0.0,0.0,0.0,0.0,0.0,0.0,0.0,0.0,0.0,0.0,0.0,0.0,-5.0164,-5.3599,-5.6874,-5.7764,-5.6078,-5.2868,-4.8865,0.0,0.0,0.0,0.0,0.0,0.0,0.0,0.0,0.0,0.0,0.0,0.0,0.0,0.0,0.0,0.0,0.0,0.0,0.0,0.0,0.0,0.0,0.0,0.0,0.0,0.0,0.0,0.0,0.0,0.0,0.0,0.0,0.0,0.0,0.0,0.0,0.0,0.0,0.0,0.0,0.0,0.0,0.0,0.0,0.0,0.0,0.0,0.0,0.0,0.0,0.0,0.0,0.0,0.0,0.0,0.0,0.0,0.0,0.0,0.0,0.0,0.0,0.0,0.0,0.0,0.0,0.0,0.0,0.0,0.0,0.0,0.0,0.0,0.0,0.0,0.0,0.0,0.0,0.0,0.0,0.0,0.0,0.0,0.0,0.0,0.0,0.0,0.0,0.0,0.0,0.0,0.0,0.0,0.0,0.0,0.0,0.0,0.0,0.0,0.0,0.0,0.0,0.0,0.0,0.0,0.0,0.0,0.0,-5.2585,-5.5992,-5.875,-5.9073,-5.6758,-5.3569,-5.0453,0.0,0.0,0.0,0.0,0.0,0.0,0.0,0.0,0.0,0.0,0.0,0.0,0.0,0.0,0.0,0.0,0.0,0.0,0.0,0.0,0.0,0.0,0.0,0.0,0.0,0.0,0.0,0.0,0.0,0.0,0.0,0.0,0.0,0.0,0.0,0.0,0.0,0.0,0.0,0.0,0.0,0.0,0.0,0.0,0.0,0.0,0.0,0.0,-3.5815,0.0,0.0,0.0,0.0,0.0,0.0,0.0,0.0,0.0,0.0,0.0,0.0,0.0,0.0,0.0,0.0,0.0,0.0,0.0,0.0,0.0,0.0,0.0,0.0,0.0,0.0,0.0,0.0,0.0,0.0,0.0,0.0,0.0,0.0,0.0,0.0,0.0,0.0,0.0,0.0,0.0,0.0,0.0,0.0,0.0,0.0,0.0,0.0,0.0,0.0,0.0,0.0,0.0,0.0,0.0,0.0,0.0,0.0,0.0,-5.3378,-5.6347,-5.8157,-5.8446,-5.704,-5.3931,-5.0797,0.0,0.0,0.0,0.0,0.0,0.0,0.0,0.0,0.0,0.0,0.0,0.0,0.0,0.0,0.0,0.0,0.0,0.0,0.0,0.0,0.0,0.0,0.0,0.0,0.0,0.0,0.0,0.0,0.0,0.0,0.0,0.0,0.0,0.0,0.0,0.0,0.0,0.0,0.0,0.0,0.0,0.0,0.0,0.0,0.0,0.0,0.0,0.0,0.0,0.0,0.0,0.0,0.0,0.0,0.0,0.0,0.0,0.0,0.0,0.0,0.0,0.0,0.0,0.0,0.0,0.0,0.0,0.0,0.0,0.0,0.0,0.0,0.0,0.0,0.0,0.0,0.0,0.0,0.0,0.0,0.0,0.0,0.0,0.0,0.0,0.0,0.0,0.0,0.0,0.0,0.0,0.0,0.0,0.0,0.0,0.0,0.0,0.0,0.0,0.0,0.0,0.0,0.0,0.0,0.0,0.0,0.0,-4.9792,-5.3406,-5.5882,-5.6825,-5.7156,-5.6858,-5.3822,-5.0418,-4.6704,0.0,0.0,0.0,0.0,0.0,0.0,0.0,0.0,0.0,0.0,0.0,0.0,0.0,0.0,0.0,0.0,0.0,0.0,0.0,0.0,0.0,0.0,0.0,0.0,0.0,0.0,0.0,0.0,0.0,0.0,0.0,0.0,0.0,0.0,0.0,0.0,0.0,0.0,-3.2942,-3.4684,0.0,0.0,0.0,0.0,0.0,0.0,0.0,0.0,-3.5574,0.0,0.0,0.0,0.0,0.0,0.0,0.0,0.0,0.0,0.0,0.0,0.0,0.0,0.0,0.0,0.0,0.0,0.0,0.0,0.0,0.0,0.0,0.0,0.0,0.0,0.0,0.0,0.0,0.0,0.0,0.0,0.0,0.0,0.0,0.0,0.0,0.0,0.0,0.0,0.0,0.0,0.0,0.0,0.0,0.0,0.0,0.0,0.0,0.0,0.0,0.0,0.0,0.0,0.0,0.0,0.0,-4.6658,-5.0287,-5.3308,-5.5778,-5.67,-5.6455,-5.5051,-5.2515,-4.9289,-4.5399,0.0,0.0,0.0,0.0,0.0,0.0,0.0,0.0,0.0,0.0,0.0,0.0,0.0,0.0,0.0,0.0,0.0,0.0,0.0,0.0,0.0,0.0,0.0,0.0,0.0,0.0,0.0,0.0,0.0,0.0,0.0,0.0,0.0,0.0,0.0,0.0,0.0,0.0,0.0,-3.5913,-3.7146,0.0,0.0,0.0,0.0,0.0,0.0,0.0,0.0,-3.4959,0.0,0.0,0.0,0.0,0.0,0.0,0.0,0.0,0.0,0.0,0.0,0.0,0.0,0.0,0.0,0.0,0.0,0.0,0.0,0.0,0.0,0.0,0.0,0.0,0.0,0.0,0.0,0.0,0.0,0.0,0.0,0.0,0.0,0.0,0.0,0.0,0.0,0.0,0.0,0.0,0.0,0.0,0.0,0.0,0.0,0.0,0.0,0.0,0.0,0.0,0.0,0.0,0.0,0.0,0.0,-4.6652,-5.0471,-5.3354,-5.5301,-5.5787,-5.5226,-5.3559,-5.0354,-4.6945,0.0,0.0,0.0,0.0,0.0,0.0,0.0,0.0,0.0,0.0,0.0,0.0,0.0,0.0,0.0,0.0,0.0,0.0,0.0,0.0,0.0,0.0,0.0,0.0,0.0,0.0,0.0,0.0,0.0,0.0,0.0,0.0,0.0,0.0,0.0,0.0,0.0,0.0,0.0,0.0,-3.6568,-3.7832,-3.709,0.0,0.0,0.0,0.0,0.0,0.0,-3.5315,-3.475,0.0,0.0,0.0,0.0,0.0,0.0,0.0,0.0,0.0,0.0,0.0,0.0,0.0,0.0,0.0,0.0,0.0,0.0,0.0,0.0,0.0,0.0,0.0,0.0,0.0,0.0,0.0,0.0,0.0,0.0,0.0,0.0,0.0,0.0,0.0,0.0,0.0,0.0,0.0,0.0,0.0,0.0,0.0,0.0,0.0,0.0,0.0,0.0,0.0,0.0,0.0,0.0,0.0,0.0,0.0,-4.6096,-4.9971,-5.2752,-5.4328,-5.4441,-5.3699,-5.2067,-4.8147,-4.4588,0.0,0.0,0.0,0.0,0.0,0.0,0.0,0.0,0.0,0.0,0.0,0.0,0.0,0.0,0.0,0.0,0.0,0.0,0.0,0.0,0.0,0.0,0.0,0.0,0.0,0.0,0.0,0.0,0.0,0.0,0.0,0.0,0.0,0.0,0.0,0.0,0.0,0.0,0.0,0.0,0.0,-3.8165,-3.7642,-3.704,0.0,0.0,0.0,0.0,-3.5728,-3.5639,0.0,0.0,0.0,0.0,0.0,0.0,0.0,0.0,0.0,0.0,0.0,0.0,0.0,0.0,0.0,0.0,0.0,0.0,0.0,0.0,0.0,0.0,0.0,0.0,0.0,0.0,0.0,0.0,0.0,0.0,0.0,0.0,0.0,0.0,0.0,0.0,0.0,0.0,0.0,0.0,0.0,0.0,0.0,0.0,0.0,0.0,0.0,0.0,0.0,0.0,0.0,0.0,0.0,0.0,0.0,0.0,-4.4884,-4.8218,-5.0721,-5.2329,-5.2557,-5.1878,-5.0305,-4.6389,-4.3159,0.0,0.0,0.0,0.0,0.0,0.0,0.0,0.0,0.0,0.0,0.0,0.0,0.0,0.0,0.0,0.0,0.0,0.0,0.0,0.0,0.0,0.0,0.0,0.0,0.0,0.0,0.0,0.0,0.0,0.0,0.0,0.0,0.0,0.0,0.0,0.0,0.0,0.0,0.0,0.0,0.0,-3.8268,-3.8124,-3.8128,-3.7926,0.0,0.0,-3.7137,-3.7155,-3.7127,0.0,0.0,0.0,0.0,0.0,0.0,0.0,0.0,0.0,0.0,0.0,0.0,0.0,0.0,0.0,0.0,0.0,0.0,0.0,0.0,0.0,0.0,0.0,0.0,0.0,0.0,0.0,0.0,0.0,0.0,0.0,0.0,0.0,0.0,0.0,0.0,0.0,0.0,0.0,0.0,0.0,0.0,0.0,0.0,0.0,0.0,0.0,0.0,0.0,0.0,0.0,0.0,0.0,0.0,0.0,-3.9388,-4.3652,-4.7126,-4.9528,-5.0866,-5.1085,-5.0254,-4.8384,-4.4521,-4.1374,0.0,0.0,0.0,0.0,0.0,0.0,0.0,0.0,0.0,0.0,0.0,0.0,0.0,0.0,0.0,0.0,0.0,0.0,0.0,0.0,0.0,0.0,0.0,0.0,0.0,0.0,0.0,0.0,0.0,0.0,0.0,0.0,0.0,0.0,0.0,0.0,0.0,0.0,0.0,0.0,0.0,0.0,-3.9276,-3.937,0.0,0.0,0.0,-3.8275,-3.7871,0.0,0.0,0.0,0.0,0.0,0.0,0.0,0.0,0.0,0.0,0.0,0.0,0.0,0.0,0.0,0.0,0.0,0.0,0.0,0.0,0.0,0.0,0.0,0.0,0.0,0.0,0.0,0.0,0.0,0.0,0.0,0.0,0.0,0.0,0.0,0.0,0.0,0.0,0.0,0.0,0.0,0.0,0.0,0.0,0.0,0.0,0.0,0.0,0.0,0.0,0.0,0.0,0.0,0.0,0.0,0.0,0.0,-4.2409,-4.5863,-4.8254,-4.9491,-4.9745,-4.8938,-4.6981,-4.3436,0.0,0.0,0.0,0.0,0.0,0.0,0.0,0.0,0.0,0.0,0.0,0.0,0.0,0.0,0.0,0.0,0.0,0.0,0.0,0.0,0.0,0.0,0.0,0.0,0.0,0.0,0.0,-2.4678,0.0,0.0,0.0,0.0,0.0,0.0,0.0,0.0,0.0,0.0,0.0,0.0,0.0,0.0,-3.8656,-3.9974,-4.0174,-4.0298,0.0,0.0,-3.929,-3.8736,-3.8385,-3.7386,0.0,0.0,0.0,0.0,0.0,0.0,0.0,0.0,0.0,0.0,0.0,0.0,0.0,0.0,0.0,0.0,0.0,0.0,0.0,0.0,0.0,0.0,0.0,0.0,0.0,0.0,0.0,0.0,0.0,0.0,0.0,0.0,0.0,0.0,0.0,0.0,0.0,0.0,0.0,0.0,0.0,0.0,0.0,0.0,0.0,0.0,0.0,0.0,0.0,0.0,0.0,0.0,0.0,0.0,0.0,-4.1078,-4.4076,-4.6463,-4.8161,-4.8555,-4.8037,-4.665,-4.3778,-4.1054,0.0,0.0,0.0,0.0,0.0,0.0,0.0,0.0,0.0,0.0,0.0,0.0,0.0,0.0,0.0,0.0,0.0,0.0,0.0,0.0,0.0,0.0,0.0,0.0,0.0,0.0,0.0,0.0,0.0,0.0,0.0,0.0,0.0,0.0,0.0,0.0,0.0,0.0,0.0,0.0,0.0,-3.7323,-3.9676,-4.0129,-4.0478,0.0,0.0,-4.022,-4.0155,-3.9491,-3.7984,-3.4918,0.0,0.0,0.0,0.0,0.0,0.0,0.0,0.0,0.0,0.0,0.0,0.0,0.0,0.0,0.0,0.0,0.0,0.0,0.0,0.0,0.0,0.0,0.0,0.0,0.0,0.0,0.0,0.0,0.0,0.0,0.0,0.0,0.0,0.0,0.0,0.0,0.0,0.0,0.0,0.0,0.0,0.0,0.0,0.0,0.0,0.0,0.0,0.0,0.0,0.0,0.0,0.0,0.0,-3.623,-3.9074,-4.2357,-4.4666,-4.5932,-4.623,-4.5934,-4.514,-4.2755,-4.0384,0.0,0.0,0.0,0.0,0.0,0.0,0.0,0.0,0.0,0.0,0.0,0.0,0.0,0.0,0.0,0.0,0.0,0.0,0.0,0.0,0.0,0.0,0.0,0.0,0.0,0.0,0.0,0.0,-2.4466,-2.43,-2.4602,0.0,0.0,0.0,0.0,0.0,0.0,0.0,0.0,0.0,0.0,-3.7357,-4.0244,-4.1137,0.0,0.0,-4.1309,-4.044,-3.946,-3.8224,-3.6639,-3.4501,-3.2467,0.0,0.0,0.0,0.0,0.0,0.0,0.0,0.0,0.0,0.0,0.0,0.0,0.0,0.0,0.0,0.0,0.0,0.0,0.0,0.0,0.0,0.0,0.0,0.0,0.0,0.0,0.0,0.0,0.0,0.0,0.0,0.0,0.0,0.0,0.0,0.0,0.0,0.0,0.0,0.0,0.0,0.0,0.0,0.0,0.0,0.0,0.0,0.0,0.0,0.0,0.0,0.0,-3.5442,-3.7467,-4.1029,-4.3185,-4.3951,-4.4338,-4.429,-4.3729,-4.2147,-4.0192,0.0,0.0,0.0,0.0,0.0,0.0,0.0,0.0,0.0,0.0,0.0,0.0,0.0,0.0,0.0,0.0,0.0,0.0,0.0,0.0,0.0,0.0,0.0,0.0,0.0,0.0,0.0,0.0,-2.5004,-2.4553,-2.4129,0.0,0.0,0.0,0.0,0.0,0.0,0.0,0.0,0.0,0.0,-3.7473,-4.0176,-4.1238,-4.1767,-4.182,-4.1159,-4.0278,-3.9192,-3.7683,-3.6125,-3.4592,0.0,0.0,0.0,0.0,0.0,0.0,0.0,0.0,0.0,0.0,0.0,0.0,0.0,0.0,0.0,0.0,0.0,0.0,0.0,0.0,0.0,0.0,0.0,0.0,0.0,0.0,0.0,-2.7968,0.0,0.0,-2.6553,0.0,0.0,0.0,0.0,0.0,0.0,0.0,0.0,0.0,0.0,0.0,0.0,0.0,0.0,0.0,0.0,0.0,0.0,0.0,0.0,0.0,0.0,-3.5081,-3.6537,-4.0089,-4.2064,-4.2243,-4.3201,-4.3366,-4.2728,-4.2163,-4.0731,-3.8337,0.0,0.0,0.0,0.0,0.0,0.0,0.0,0.0,0.0,0.0,0.0,0.0,0.0,0.0,0.0,0.0,0.0,0.0,0.0,0.0,0.0,0.0,0.0,0.0,0.0,0.0,-2.5651,-2.5943,-2.552,0.0,0.0,0.0,0.0,0.0,0.0,0.0,0.0,0.0,0.0,-3.4917,-3.7469,-3.9096,-4.0039,-4.06,-4.0706,-4.0119,-3.9655,-3.9682,-3.8407,-3.6952,0.0,0.0,0.0,0.0,0.0,0.0,0.0,0.0,0.0,0.0,0.0,0.0,0.0,0.0,0.0,0.0,0.0,0.0,0.0,0.0,0.0,0.0,0.0,0.0,0.0,0.0,0.0,-3.1426,-3.0238,0.0,0.0,0.0,0.0,0.0,0.0,0.0,0.0,0.0,0.0,0.0,-3.1694,-3.2568,0.0,0.0,0.0,0.0,0.0,0.0,0.0,0.0,0.0,0.0,0.0,0.0,-3.396,-3.5483,-3.8134,-3.9798,-4.0326,-4.1144,-4.1474,-4.124,-4.0591,-3.8456,-3.4661,0.0,0.0,0.0,0.0,0.0,0.0,0.0,0.0,0.0,0.0,0.0,0.0,0.0,0.0,0.0,0.0,0.0,0.0,0.0,0.0,0.0,0.0,0.0,0.0,0.0,-2.4855,0.0,0.0,0.0,0.0,0.0,0.0,0.0,0.0,0.0,0.0,0.0,-2.9867,-3.2747,-3.492,-3.6827,-3.8488,-3.9382,-3.9779,0.0,0.0,0.0,0.0,0.0,0.0,0.0,0.0,0.0,0.0,0.0,0.0,0.0,0.0,-3.4976,-3.3392,-3.2801,-3.2201,-3.1167,0.0,0.0,0.0,0.0,0.0,0.0,0.0,0.0,0.0,0.0,0.0,0.0,0.0,0.0,-3.2587,0.0,-3.141,0.0,0.0,0.0,0.0,0.0,0.0,0.0,0.0,-3.3725,-3.366,-3.3255,-3.4148,-3.4101,0.0,-3.3219,-3.2584,0.0,0.0,0.0,0.0,0.0,0.0,0.0,0.0,-3.3495,-3.4789,-3.7007,-3.8267,-3.8529,-3.9477,-3.9876,-3.9603,-3.8632,-3.6581,-3.3376,-3.1647,-3.0148,0.0,0.0,0.0,0.0,0.0,0.0,0.0,0.0,0.0,0.0,0.0,0.0,0.0,0.0,0.0,0.0,0.0,0.0,0.0,0.0,0.0,0.0,0.0,-2.4742,0.0,0.0,0.0,0.0,0.0,0.0,0.0,0.0,0.0,-2.8319,-2.9286,-3.095,-3.3494,-3.5181,-3.6536,-3.7633,0.0,0.0,0.0,0.0,0.0,0.0,0.0,-3.5569,-3.5599,-3.4531,-3.3918,-3.4641,-3.5531,-3.6332,-3.6887,0.0,0.0,-3.5358,-3.4909,-3.4414,-3.3047,-3.3166,-3.3325,-3.2845,-3.3214,-3.3696,0.0,0.0,0.0,0.0,0.0,0.0,0.0,0.0,-3.3975,-3.3236,0.0,-3.2489,0.0,0.0,0.0,0.0,0.0,-3.2234,0.0,0.0,-3.4942,-3.5229,-3.623,-3.5121,-3.5229,-3.6292,-3.512,-3.4233,-3.3599,-3.1388,0.0,0.0,0.0,0.0,0.0,0.0,-3.3681,-3.4469,-3.6584,-3.7425,-3.6776,-3.8111,-3.8516,-3.7814,-3.6394,-3.5222,-3.4401,-3.2313,-3.0811,-2.9993,-2.7956,0.0,0.0,0.0,0.0,0.0,0.0,0.0,0.0,0.0,0.0,0.0,0.0,0.0,0.0,0.0,0.0,0.0,0.0,0.0,0.0,-2.5451,0.0,0.0,0.0,0.0,0.0,0.0,0.0,0.0,0.0,0.0,-2.9022,-3.075,-3.2609,-3.4102,0.0,0.0,0.0,0.0,-3.753,-3.6963,-3.7036,-3.7282,-3.7595,-3.7109,-3.6722,-3.6805,0.0,0.0,-3.6095,-3.6919,-3.7485,-3.7645,-3.8103,-3.8191,-3.6483,-3.6905,-3.6796,-3.4698,-3.4859,-3.5508,-3.5652,-3.551,-3.581,-3.8998,0.0,0.0,0.0,0.0,-3.6428,-3.6579,-3.746,-3.6891,-3.6321,-3.5737,-3.5084,0.0,0.0,0.0,0.0,0.0,0.0,-3.3779,-3.4434,-3.4932,-3.5183,-3.5106,-3.5675,-3.566,-3.509,-3.5167,-3.4424,-3.2955,-3.2436,-3.1406,-2.9816,0.0,0.0,0.0,0.0,-3.2144,-3.3334,-3.4529,-3.5005,-3.4808,-3.5777,-3.618,-3.5983,-3.4529,-3.3651,-3.3334,-3.1818,-3.0657,-2.9908,-2.8893,0.0,0.0,0.0,0.0,0.0,0.0,0.0,0.0,0.0,0.0,0.0,0.0,0.0,0.0,0.0,0.0,0.0,0.0,0.0,-2.5276,-2.6191,-2.6339,0.0,0.0,0.0,0.0,0.0,0.0,0.0,0.0,0.0,-3.2034,-3.3086,-3.3949,0.0,0.0,-3.6524,-3.5978,-3.6081,-3.6241,-3.6255,-3.643,0.0,-3.6858,-3.6001,-3.551,-3.6079,-3.5719,-3.5418,-3.5664,-3.6038,-3.6358,-3.6479,-3.6644,-3.6464,-3.5586,-3.6552,-3.7118,-3.613,-3.6081,-3.6289,-3.6329,-3.6354,-3.641,-4.1459,-4.0245,-3.8091,-3.7966,-3.9122,-3.8292,-3.8505,-3.9446,-3.8846,-3.8358,-3.8017,-3.7318,-3.6399,-3.5317,-3.4461,0.0,0.0,0.0,-3.4442,-3.4646,-3.5339,-3.5477,-3.5156,-3.5921,-3.5891,-3.5125,-3.5232,-3.4696,-3.3541,-3.2897,-3.2237,-3.1404,0.0,0.0,-3.1413,-3.1493,-3.208,-3.3174,-3.365,-3.3876,-3.3892,-3.4378,-3.463,-3.4565,-3.32,-3.2563,-3.278,-3.1239,-3.0384,-3.049,-2.9405,-2.7713,0.0,0.0,0.0,0.0,0.0,0.0,0.0,0.0,0.0,0.0,0.0,-2.1663,-2.0775,0.0,0.0,0.0,-2.3626,-2.4774,-2.5493,-2.6605,0.0,0.0,0.0,0.0,0.0,0.0,0.0,-3.0314,-3.1735,-3.3029,-3.4086,-3.4801,-3.5296,-3.5402,-3.6237,-3.6626,-3.6146,0.0,-3.5667,-3.5888,-3.6084,-3.6241,-3.6451,-3.5871,-3.5488,-3.5706,-3.5331,-3.51,-3.5271,-3.5472,-3.5702,-3.5856,-3.5933,-3.5818,-3.5337,-3.6475,-3.7221,-3.6522,-3.667,-3.7007,-3.7322,-3.7428,-3.741,-4.3758,-4.2864,-3.9733,-3.9072,-3.9991,-3.9354,-3.946,-4.0051,-4.0066,-3.9687,-3.9081,-3.905,-3.7943,-3.6001,-3.4728,0.0,-3.5123,-3.5092,-3.5396,-3.5973,-3.5987,-3.5987,-3.602,-3.602,-3.602,-3.5975,-3.5382,-3.5033,-3.4805,-3.3073,-3.2421,-3.2875,-3.1987,-3.1865,-3.251,-3.2478,-3.2822,-3.3565,-3.3539,-3.3565,-3.3565,-3.3565,-3.3549,-3.3543,-3.2267,-3.1859,-3.2483,-3.064,-3.0106,-3.1262,-2.9469,-2.7742,-2.6368,0.0,0.0,0.0,0.0,0.0,0.0,0.0,0.0,0.0,0.0,0.0,0.0,0.0,0.0,0.0,-2.4753,0.0,-2.5647,-2.7093,0.0,0.0,0.0,-2.7215,-2.794,-2.9183,-3.0589,-3.2101,0.0,0.0,-3.5207,-3.5934,-3.6481,-3.6726,-3.6772,-3.6755,-3.6681,-3.5999,-3.5605,-3.561,-3.5793,-3.598,-3.5998,-3.6059,-3.5817,-3.5179,-3.4887,-3.4653,-3.4783,-3.5135,-3.5389,-3.5686,-3.5812,-3.5887,-3.5964,-3.6547,-3.6906,-3.6321,-3.6915,-3.7747,-3.8414,-3.8576,-3.8554,-4.5638,-4.5353,-4.3528,-4.2266,-4.1371,-4.0719,-4.081,-4.1416,-4.1431,-4.1067,-4.0481,-3.993,-3.8853,-3.7364,-3.6624,-3.6336,-3.6442,-3.6487,-3.629,-3.5972,-3.6487,-3.6474,-3.6035,-3.602,-3.602,-3.6005,-3.5838,-3.5245,-3.4273,-3.3772,-3.3074,-3.2268,-3.2017,-3.1958,-3.2124,-3.1647,-3.1709,-3.2413,-3.2401,-3.2401,-3.2401,-3.2401,-3.2413,-3.2398,-3.1586,-3.1217,-3.1397,-3.0417,-2.9802,-2.9587,-2.8649,-2.7472,-2.615,-2.4985,0.0,0.0,0.0,0.0,0.0,0.0,0.0,0.0,0.0,-2.2464,-2.2557,0.0,-2.3555,0.0,-2.5981,-2.765,-2.8106,-2.9621,0.0,0.0,-2.8927,-2.9283,-3.0023,-3.0485,-3.1493,-3.3471,-3.4002,-3.4482,-3.5207,-3.5951,-3.6427,-3.6481,-3.6498,-3.6296,-3.5736,-3.5518,-3.5165,-3.4757,-3.5105,-3.5262,-3.4845,-3.4759,-3.4432,-3.3247,-3.3568,-3.3815,-3.3457,-3.4193,-3.4889,-3.5219,-3.5437,-3.5638,-3.5817,-3.603,-3.6352,-3.6791,-3.7609,-3.8321,-3.8637,-3.8689,-3.8689,-4.6279,-4.616,-4.4829,-4.3793,-4.2922,-4.2273,-4.2198,-4.25,-4.2213,-4.1934,-4.1557,-4.054,-3.9395,-3.8129,-3.7801,-3.7436,-3.7164,-3.7451,-3.7089,-3.623,-3.6863,-3.67,-3.578,-3.5765,-3.578,-3.5765,-3.5765,-3.5222,-3.4272,-3.391,-3.3261,-3.2235,-3.1949,-3.1798,-3.1783,-3.1548,-3.1632,-3.1996,-3.2012,-3.2012,-3.2012,-3.2012,-3.1708,-3.1131,-3.104,-3.0721,-3.013,-2.9765,-2.9386,-2.9006,-2.8369,-2.7549,-2.6494,-2.5484,-2.4362,0.0,0.0,0.0,0.0,0.0,0.0,0.0,0.0,0.0,0.0,0.0,-2.5012,-2.5498,-2.6904,-2.8137,-2.8935,-2.9951,-3.031,-2.9699,-2.9795,-3.0083,-3.0621,-3.1078,-3.1939,-3.3445,-3.3868,-3.4312,-3.5012,-3.5485,-3.5735,-3.5735,-3.5735,-3.5742,-3.5726,-3.5281,-3.4661,-3.4292,-3.4544,-3.4694,-3.4292,-3.3698,-3.3229,-3.2916,-3.2992,-3.3154,-3.3245,-3.3885,-3.4523,-3.4818,-3.5083,-3.5432,-3.5958,-3.6097,-3.6415,-3.7286,-3.7944,-3.8202,-3.8073,-3.8049,-3.7976,-4.6399,-4.6337,-4.5005,-4.4436,-4.4377,-4.3604,-4.3305,-4.326,-4.2731,-4.2425,-4.2201,-4.0935,-3.9709,-3.8542,-3.8422,-3.8123,-3.7704,-3.8167,-3.7749,-3.6671,-3.7165,-3.6731,-3.5519,-3.5489,-3.5489,-3.5489,-3.5489,-3.5115,-3.4369,-3.3769,-3.3125,-3.2363,-3.1795,-3.1496,-3.1496,-3.1798,-3.1925,-3.1925,-3.194,-3.194,-3.1925,-3.1925,-3.1334,-3.0167,-3.0728,-3.041,-2.9031,-2.9046,-2.9,-2.8819,-2.8273,-2.7627,-2.6976,-2.6418,-2.5477,0.0,-2.3646,0.0,0.0,0.0,0.0,0.0,0.0,0.0,0.0,-2.541,-2.6273,-2.744,-2.7783,-2.8256,-2.9014,-2.9458,-2.9774,-2.9974,-3.0179,-3.0397,-3.0639,-3.1288,-3.2038,-3.2846,-3.3431,-3.4048,-3.4759,-3.4883,-3.4923,-3.4973,-3.5013,-3.5267,-3.5873,-3.5111,-3.4342,-3.418,-3.4063,-3.3996,-3.4074,-3.3122,-3.2526,-3.3157,-3.3085,-3.2937,-3.3499,-3.3968,-3.4369,-3.466,-3.4901,-3.5331,-3.6274,-3.6524,-3.6879,-3.7699,-3.7982,-3.7899,-3.7423,-3.7288,-3.6942,-4.7115,-4.6995,-4.5678,-4.511,-4.502,-4.3798,-4.3305,-4.329,-4.3155,-4.2551,-4.1572,-4.0741,-3.9963,-3.92,-3.8631,-3.8631,-3.9005,-3.8571,-3.7973,-3.7225,-3.736,-3.6731,-3.5549,-3.5489,-3.5489,-3.5489,-3.5489,-3.4876,-3.3679,-3.3559,-3.2886,-3.1705,-3.157,-3.1496,-3.1496,0.0,0.0,0.0,-3.1597,-3.1597,-3.1597,-3.1582,-3.1236,-3.0456,-3.1071,0.0,-2.882,-2.9195,-2.897,-2.7931,-2.775,0.0,0.0,0.0,0.0,0.0,0.0,0.0,0.0,0.0,0.0,0.0,-2.6313,-2.6618,-2.7455,-2.7969,-2.8408,-2.8807,-2.8996,-2.9199,-2.9455,-3.0617,-3.124,-3.0974,-3.1102,-3.1308,-3.1535,-3.1391,-3.1745,-3.3055,-3.3421,-3.386,-3.4607,-3.4811,-3.4899,-3.4899,-3.4899,-3.4973,-3.5193,-3.4944,-3.4506,-3.3981,-3.3439,-3.3278,-3.394,-3.3261,-3.2637,-3.3141,-3.3599,-3.3669,-3.3423,-3.4075,-3.4709,-3.5002,-3.524,-3.5679,-3.6608,-3.6939,-3.7126,-3.7524,-3.7774,-3.7784,-3.7301,-3.72,-3.6978,-4.7309,0.0,-4.5858,-4.5289,0.0,-4.3843,-4.3305,-4.3305,-4.3305,-4.2557,-4.1369,-4.1025,-4.0337,-3.9379,-3.8691,-3.8571,-3.8871,-3.8212,-3.7554,-3.6971,-3.6956,-3.6447,-3.5489,-3.5489,-3.5489,-3.5489,-3.5489,-3.4981,-3.3993,-3.3649,-3.2991,-3.1989,-3.1675,-3.1496,-3.1496,-3.1496,-3.1496,-3.1496,-3.1496,-3.1496,-3.1496,-3.1496,-3.1061,-3.0118,-3.0658,0.0,0.0,0.0,0.0,0.0,0.0,0.0,0.0,0.0,0.0,-2.4822,-2.4542,-2.4578,-2.4977,-2.5213,-2.5787,-2.6736,-2.764,-2.8127,-2.797,-2.8152,-2.8434,-2.8843,-2.8688,-2.8824,-2.953,-2.999,-3.033,-3.0531,-3.0775,-3.1002,-3.1193,-3.1134,-3.1558,-3.2716,-3.3113,-3.3582,-3.4471,-3.478,-3.4899,-3.4899,-3.4899,-3.4899,-3.4849,-3.4568,-3.4187,-3.3806,-3.2829,-3.2492,-3.3167,-3.249,-3.2033,-3.2491,-3.3165,-3.3477,-3.3299,-3.4293,-3.512,-3.5132,-3.5473,-3.6035,-3.6473,-3.6799,-3.7071,-3.732,-3.7577,-3.7629,-3.7189,-3.6799,-3.6272,-4.7309,-4.7174,-4.5858,-4.5289,-4.52,-4.3883,-4.329,-4.325,0.0,0.0,0.0,-4.1308,-4.0539,-3.9271,-3.8704,-3.8465,-3.8456,-3.7898,-3.7222,-3.6537,-3.6522,-3.6071,-3.5323,-3.5294,-3.5341,-3.5374,-3.5374,-3.5066,-3.444,-3.3918,-3.3275,-3.2527,-3.1944,-3.1615,-3.1511,-3.1496,-3.1496,-3.1496,-3.1496,-3.1496,-3.1496,-3.1496,-3.0883,-2.9651,-3.0178,-2.9849,-2.8487,-2.9056,-2.9427,-2.9412,-2.8364,-2.772,-2.7555,-2.6138,-2.5443,-2.5725,-2.5364,-2.5409,-2.606,-2.6518,-2.6853,-2.7094,-2.855,-2.9067,-2.8154,-2.8229,-2.8457,-2.8906,-2.8438,-2.8543,-2.9517,-2.922,-2.9252,-3.0004,-3.0247,-3.0525,-3.0758,-3.0822,-3.1272,-3.2262,-3.2697,-3.3242,-3.4235,-3.4618,-3.4835,-3.4859,-3.4899,-3.4899,-3.4833,-3.4435,-3.4121,-3.3972,-3.3077,-3.2321,-3.2525,-3.1865,-3.1245,-3.1854,-3.2465,-3.2909,-3.3335,-3.4285,-3.4923,-3.4814,-3.5322,-3.5578,-3.5878,-3.6028,-3.6372,-3.6686,-3.7004,-3.7164,-3.6823,-3.6164,-3.5421,-4.7309,-4.7189,-4.5858,-4.5289,-4.52,-4.3858,-4.321,-4.3036,-4.3036,-4.2228,-4.0888,-4.0888,-4.0149,-3.8855,-3.8767,-3.8774,-3.8708,-3.8634,-3.7883,-3.6602,-3.6573,-3.5873,-3.4578,-3.4549,-3.465,-3.4798,-3.4902,-3.4727,-3.428,-3.4304,-3.3739,-3.2632,-3.2392,-3.2064,-3.154,-3.1496,-3.1496,-3.1496,-3.1496,-3.1496,-3.1496,-3.1496,-3.0911,-2.9699,-3.0178,-2.9624,-2.7839,-2.8382,-2.8742,-2.8727,-2.8562,-2.8188,-2.7645,-2.7839,-2.732,-2.5833,-2.6072,-2.6411,-2.6525,-2.6566,-2.7121,-2.8229,-2.8577,-2.9101,-3.0028,-3.0614,-3.0776,-3.0313,-3.0028,-2.9939,-2.9684,-2.9953,-3.0291,-3.0621,-3.0758,-3.0894,-3.1087,-3.0729,-3.0846,-3.1826,-3.2151,-3.2743,-3.3779,-3.4308,-3.4594,-3.4715,-3.4828,-3.4899,-3.4883,-3.4816,-3.475,-3.4651,-3.4038,-3.3326,-3.2774,-3.2039,-3.1508,-3.1624,-3.1745,-3.2142,-3.2684,-3.3195,-3.3628,-3.4153,-3.3977,-3.397,-3.445,-3.4417,-3.4679,-3.5053,-3.5456,-3.5717,-3.5943,-3.539,-3.4772,-4.699,-4.6855,-4.5378,-4.4761,-4.4657,-4.3219,-4.243,-4.2102,-4.1964,-4.1279,-4.028,-3.9877,-3.8999,-3.7805,-3.7394,-3.725,-3.7221,-3.6854,-3.6171,-3.5282,-3.5132,-3.4576,-3.3632,-3.3457,-3.3575,-3.3879,-3.4153,-3.4326,-3.4314,-3.4268,-3.3921,-3.3281,-3.2613,-3.1916,-3.1323,-3.1293,-3.1293,-3.1278,-3.1424,-3.1496,-3.1496,-3.1496,-3.0883,-2.9651,-2.9879,-2.9445,-2.8214,-2.8442,-2.8757,-2.9116,-2.8442,-2.7929,-2.7615,-2.72,-2.6722,-2.6198,-2.6422,-2.6737,-2.7136,-2.7495,-2.8233,-2.9505,-2.9624,-3.0028,-3.0986,-3.0702,-3.0342,-3.0028,-2.9998,-3.0028,-3.0058,-3.0342,-3.0685,-3.1159,-3.1202,-3.1259,-3.1315,-3.1144,-3.1204,-3.1808,-3.2152,-3.2651,-3.3481,-3.3991,-3.4374,-3.457,-3.4756,-3.4899,-3.4899,-3.4899,-3.4899,-3.48,-3.3938,-3.3166,-3.2702,-3.1719,-3.1101,-3.1002,-3.135,-3.1558,-3.1831,-3.2224,-3.285,-3.3009,-3.2998,-3.328,-3.3703,-3.3807,-3.398,-3.4321,-3.4728,-3.51,-3.5319,-3.4961,-3.4372,-4.6535,-4.6476,-4.482,-4.3847,-4.327,-4.2077,-4.1324,-4.0958,-4.0603,-3.9929,-3.9065,-3.8763,-3.794,-3.6791,-3.6235,-3.5987,-3.5917,-3.546,-3.4854,-3.426,-3.3983,-3.3472,-3.2806,-3.2475,-3.255,-3.2946,-3.3367,-3.3776,-3.4104,-3.4024,-3.3812,-3.3428,-3.2374,-3.154,-3.0999,-3.1028,-3.1058,-3.1117,-3.1264,-3.1351,-3.1424,-3.1424,-3.0798,-2.9602,-2.9483,-2.911,-2.8364,-2.8289,-2.8603,-2.917,-2.8301,-2.7748,-2.7703,-2.6753,-2.6365,-2.6683,-2.6738,-2.7021,-2.7678,-2.8174,-2.9039,-3.0291,-3.041,-3.0693,-3.1245,-3.0499,-2.9958,-3.0028,-3.0118,-3.0268,-3.0642,-3.0746,-3.0928,-3.1436,-3.1496,-3.1495,-3.1496,-3.1496,-3.1626,-3.1912,-3.2163,-3.2508,-3.3065,-3.3591,-3.405,-3.4448,-3.4715,-3.4851,-3.4899,-3.4899,-3.4866,-3.4468,-3.3657,-3.2845,-3.2514,-3.1565,-3.082,-3.0588,-3.0952,-3.1177,-3.1228,-3.1948,-3.249,-3.2338,-3.2481,-3.2703,-3.2899,-3.2949,-3.3163,-3.3434,-3.3735,-3.4147,-3.4441,-3.423,-3.3869,-4.5853,-4.5694,-4.4254,-4.2467,-4.0657,-4.0244,-3.9986,-3.961,-3.9019,-3.7975,-3.7032,-3.777,-3.7427,-3.6431,-3.6225,-3.6131,-3.6184,-3.6182,-3.5588,-3.4648,-3.4145,-3.3384,-3.2388,-3.188,-3.1809,-3.2187,-3.2583,-3.2974,-3.3374,-3.3622,-3.324,-3.2166,-3.1562,-3.1083,-3.067,-3.0762,-3.0925,-3.1087,-3.094,-3.094,-3.1117,-3.1146,-3.0511,-2.9169,-2.9167,-2.8577,-2.7469,-2.7307,-2.7658,-2.8275,-2.819,-2.8142,-2.8086,-2.7983,-2.7702,-2.7185,-2.7129,-2.7384,-2.8004,-2.8095,-2.8801,-2.9966,-3.0201,-3.0467,-3.1058,-3.1013,-3.1056,-3.117,-3.1286,-3.1243,-3.1406,-3.1347,-3.1347,-3.1408,-3.1482,-3.1496,-3.1496,-3.1496,-3.1597,-3.1799,-3.194,-3.2191,-3.2617,-3.3118,-3.371,-3.4374,-3.4618,-3.478,-3.4875,-3.4899,-3.4568,-3.4087,-3.3696,-3.3077,-3.2095,-3.1648,-3.1101,-3.0621,-3.0539,-3.0824,-3.1227,-3.1492,-3.184,-3.2021,-3.2016,-3.1843,-3.18,-3.1616,-3.1517,-3.2078,-3.2344,-3.2405,-3.2752,-3.3054,-3.3106,-4.4402,-4.45,-4.262,-4.0816,-3.9282,-3.9121,-3.8957,-3.8689,-3.8296,-3.7335,-3.6175,-3.6388,-3.587,-3.4786,-3.4759,-3.4759,-3.4772,-3.4772,-3.4386,-3.3696,-3.3287,-3.2527,-3.1552,-3.1139,-3.1034,-3.1123,-3.1479,-3.1833,-3.2245,-3.2627,-3.2132,-3.1098,-3.0922,-3.0626,-3.0093,-3.0235,-3.0536,-3.0791,-3.0536,-3.0341,-3.0296,-3.0598,-3.0368,-2.9462,-2.9039,-2.8439,-2.7562,-2.7138,-2.7024,-2.7299,-2.7422,-2.7527,-2.7605,-2.7617,-2.7473,-2.7251,-2.755,-2.8186,-2.9217,-2.9276,-2.9702,-3.0645,-3.0689,-3.0822,-3.1073,-3.1087,-3.1132,-3.1249,-3.1264,-3.1249,-3.1278,-3.1264,-3.1249,-3.1278,-3.1322,-3.138,-3.138,-3.1453,-3.1524,-3.1626,-3.1683,-3.184,-3.2262,-3.2866,-3.3529,-3.4151,-3.4407,-3.4618,-3.4851,-3.4899,-3.4392,-3.3442,-3.3127,-3.2729,-3.1763,-3.1184,-3.087,-3.0605,-3.0489,-3.0688,-3.087,-3.0952,-3.1068,-3.1399,-3.1201,-3.1099,-3.1158,-3.1115,-3.1038,-3.1353,-3.1656,-3.193,-3.2266,-3.279,-3.3258,-4.2828,-4.2759,-4.0694,-3.9082,-3.8024,-3.7933,-3.7854,-3.7697,-3.7513,-3.667,-3.5557,-3.5296,-3.4583,-3.3658,-3.3641,-3.3713,-3.3713,-3.3713,-3.3478,-3.3024,-3.2746,-3.2054,-3.1059,-3.0738,-3.0503,-3.0369,-3.0633,-3.0983,-3.1331,-3.1626,-3.1249,-3.0411,-3.0439,-3.0176,-2.9627,-2.9746,-2.9974,-3.028,-3.0005,-2.9665,-2.9435,-2.9792,-2.9799,-2.9346,-2.8915,-2.8282,-2.7489,-2.6973,-2.6644,-2.6498,-2.6698,-2.691,-2.7078,-2.7078,-2.7151,-2.7357,-2.7742,-2.855,-2.9869,-2.9971,-3.0235,-3.0866,-3.0955,-3.0955,-3.0955,-3.0955,-3.0955,-3.0955,-3.0955,-3.0984,-3.1087,-3.1087,-3.1087,-3.1102,-3.1205,-3.1322,-3.1322,-3.1409,-3.1496,-3.1496,-3.1524,-3.1611,-3.201,-3.2633,-3.3293,-3.3771,-3.4101,-3.4374,-3.4594,-3.4634,-3.4206,-3.3011,-3.2681,-3.2188,-3.1477,-3.0936,-3.0539,-3.0489,-3.0506,-3.0572,-3.0654,-3.0704,-3.0737,-3.125,-3.077,-3.0559,-3.0738,-3.0799,-3.0855,-3.1148,-3.1489,-3.1893,-3.2216,-3.2958,-3.3633,-4.1277,-4.0968,-3.8713,-3.7466,-3.6769,-3.6628,-3.6546,-3.6593,-3.6499,-3.5835,-3.4891,-3.4771,-3.4167,-3.3222,-3.3475,-3.3658,-3.367,-3.367,-3.3573,-3.3314,-3.2869,-3.2174,-3.1389,-3.0859,-3.0437,-3.0151,-3.0317,-3.0596,-3.0986,-3.1011,-3.0723,-3.0121,-2.994,-2.969,-2.9354,-2.9228,-2.932,-2.9571,-2.932,-2.8972,-2.8683,-2.8683,-2.8701,-2.8624,-2.8605,-2.803,-2.7046,-2.6835,-2.6554,-2.5963,-2.6248,-2.6529,-2.6767,-2.6849,-2.7096,-2.7636,-2.7752,-2.8332,-2.9464,-2.9711,-2.9958,-3.0511,-3.0672,-3.0628,-3.0672,-3.0672,-3.0672,-3.0642,-3.0716,-3.0835,-3.1014,-3.1058,-3.1058,-3.1087,-3.119,-3.1263,-3.1292,-3.138,-3.1467,-3.1482,-3.1467,-3.1611,-3.194,-3.2342,-3.2807,-3.3224,-3.3539,-3.3822,-3.4059,-3.4126,-3.3737,-3.3097,-3.2461,-3.1792,-3.083,-3.0551,-3.0518,-3.0489,-3.0539,-3.0671,-3.0952,-3.1135,-3.1151,-3.1085,-3.0754,-3.0555,-3.0543,-3.0568,-3.0651,-3.0951,-3.147,-3.1876,-3.1978,-3.3179,-3.3763,-3.9016,-3.8475,-3.7475,-3.6805,-3.6499,-3.6452,-3.6417,-3.6417,-3.6417,-3.5742,-3.4806,-3.468,-3.411,-3.3099,-3.2849,-3.2971,-3.33,-3.3313,-3.3283,-3.3185,-3.2983,-3.2374,-3.1465,-3.1185,-3.0673,-2.9996,-2.996,-3.0088,-3.0203,-3.0241,-2.991,-2.9488,-2.9514,-2.9327,-2.8834,-2.8846,-2.8912,-2.8894,-2.8565,-2.8241,-2.7927,-2.7888,-2.79,-2.7873,-2.7935,-2.78,-2.7363,-2.6946,-2.6615,-2.6438,-2.6701,-2.6849,-2.6818,-2.7022,-2.7633,-2.8641,-2.8857,-2.9291,-3.0089,-3.0234,-3.0321,-3.0569,-3.0612,-3.0612,-3.0612,-3.0612,-3.0612,-3.067,-3.0988,-3.1109,-3.0819,-3.0791,-3.0791,-3.0791,-3.091,-3.0999,-3.0999,-3.1132,-3.1249,-3.1249,-3.1336,-3.1467,-3.1697,-3.1994,-3.2315,-3.2672,-3.2969,-3.323,-3.3449,-3.3527,-3.3262,-3.2666,-3.2399,-3.2006,-3.0857,-3.0542,-3.0443,-3.0468,-3.0522,-3.0572,-3.077,-3.0803,-3.0787,-3.0936,-3.0688,-3.0539,-3.0489,-3.0568,-3.0609,-3.0738,-3.129,-3.1668,-3.1599,-3.2733,-3.3306,-3.7245,-3.6574,-3.6219,-3.6071,-3.6081,-3.6094,-3.6241,-3.6367,-3.6169,-3.5579,-3.4768,-3.4537,-3.3935,-3.3081,-3.2478,-3.2403,-3.2767,-3.2792,-3.2792,-3.2817,-3.2993,-3.252,-3.1537,-3.1386,-3.0821,-2.993,-2.9779,-2.9779,-2.9779,-2.9779,-2.9578,-2.9277,-2.9339,-2.9072,-2.8542,-2.8507,-2.8464,-2.8185,-2.7901,-2.7617,-2.7351,-2.7343,-2.7356,-2.7345,-2.738,-2.7378,-2.7368,-2.6917,-2.656,-2.643,-2.6708,-2.6877,-2.69,-2.7046,-2.7783,-2.9087,-2.9479,-2.9914,-3.0496,-3.0612,-3.0598,-3.0612,-3.0612,-3.0612,-3.0612,-3.0612,-3.0685,-3.0901,-3.1221,-3.1351,-3.1293,-3.1251,-3.1032,-3.0728,-3.0702,-3.0791,-3.0791,-3.0969,-3.1102,-3.119,-3.1263,-3.1351,-3.1511,-3.1769,-3.201,-3.2247,-3.2465,-3.2695,-3.2868,-3.2917,-3.2808,-3.2322,-3.2252,-3.2031,-3.1454,-3.1179,-3.0701,-3.0627,-3.0683,-3.0671,-3.0787,-3.0721,-3.0671,-3.0754,-3.0688,-3.0555,-3.0526,-3.0605,-3.0643,-3.0717,-3.1133,-3.1645,-3.1877,-3.2236,-3.2841,-3.6091,-3.5542,-3.4919,-3.5115,-3.5458,-3.5495,-3.583,-3.6107,-3.5696,-3.5144,-3.4587,-3.4161,-3.3658,-3.3043,-3.2403,-3.219,-3.2202,-3.2152,-3.2164,-3.2252,-3.2767,-3.2403,-3.1361,-3.1361,-3.0834,-2.9829,-2.9779,-2.9779,-2.9779,-2.9779,-2.9754,-2.9692,-2.9416,-2.9045,-2.859,-2.8302,-2.7898,-2.7553,-2.7356,-2.7188,-2.7007,-2.6998,-2.7011,-2.7007,-2.7015,-2.6937,-2.6732,-2.668,-2.6425,-2.5968,-2.6166,-2.6522,-2.7056,-2.7025,-2.7526,-2.8894,-2.9404,-2.9914,-3.0451,-3.0552,-3.0552,-3.0582,-3.0612,-3.0612,-3.0612,-3.0612,-3.08,-3.1308,-3.1524,-3.1758,-3.2249,-3.2396,-3.1946,-3.0874,-3.0819,-3.0878,-3.0836,-3.0955,-3.1132,-3.1205,-3.1219,-3.1336,-3.1482,-3.1626,-3.1826,-3.1968,-3.2107,-3.2203,-3.2327,-3.2382,-3.2367,-3.2283,-3.2121,-3.1904,-3.1899,-3.1859,-3.1297,-3.0854,-3.0917,-3.0964,-3.1333,-3.1399,-3.1234,-3.1217,-3.0704,-3.0572,-3.0853,-3.0912,-3.0978,-3.1082,-3.1453,-3.1854,-3.2123,-3.2467,-3.271,-3.5646,-3.5445,-3.4906,-3.4768,-3.4931,-3.4931,-3.509,-3.5228,-3.4994,-3.4675,-3.4186,-3.3972,-3.3639,-3.2973,-3.2089,-3.165,-3.1612,-3.1298,-3.1298,-3.17,-3.2227,-3.1938,-3.1135,-3.1223,-3.0821,-2.9942,-2.9779,-2.9779,-2.9779,-2.9779,-2.9779,-2.978,-2.9693,-2.9126,-2.833,-2.8113,-2.7703,-2.6896,-2.676,-2.6692,-2.6658,-2.6671,-2.6671,-2.6658,-2.6671,-2.6625,-2.6561,-2.6763,-2.6773,-2.6554,-2.6823,-2.7183,-2.7565,-2.7544,-2.795,-2.8951,-2.94,-2.9688,-2.9981,-3.0189,-3.031,-3.0401,-3.0507,-3.0612,-3.0612,-3.0612,-3.0903,-3.1482,-3.1886,-3.2338,-3.2527,-3.2933,-3.2585,-3.1351,-3.1251,-3.1107,-3.0788,-3.0746,-3.0836,-3.094,-3.0969,-3.1058,-3.1292,-3.1438,-3.1524,-3.164,-3.1726,-3.1768,-3.1796,-3.1868,-3.1768,-3.1751,-3.1731,-3.1847,-3.1829,-3.197,-3.1869,-3.156,-3.1538,-3.1522,-3.1863,-3.2,-3.1851,-3.1399,-3.0886,-3.077,-3.1052,-3.1217,-3.1267,-3.1724,-3.2242,-3.2452,-3.2507,-3.2627,-3.2772,-3.5194,-3.5107,-3.4424,-3.4236,-3.4412,-3.4412,-3.4537,-3.4663,-3.45,-3.4211,-3.3922,-3.3684,-3.3407,-3.2935,-3.1888,-3.1411,-3.1311,-3.0658,-3.0595,-3.1173,-3.1913,-3.18,-3.1198,-3.1072,-3.0809,-3.0181,-2.9892,-2.9792,-2.9779,-2.9779,-2.9779,-2.9779,-2.9779,-2.934,-2.8486,-2.8386,-2.7946,-2.7168,-2.6927,-2.6788,-2.6763,-2.66,-2.6487,-2.6487,-2.6487,-2.6487,-2.6499,-2.6705,-2.6794,-2.6778,-2.6726,-2.6956,-2.7518,-2.7448,-2.7732,-2.8538,-2.8994,-2.9279,-2.9512,-2.9775,-3.0005,-3.0205,-3.0447,-3.0598,-3.0612,-3.0612,-3.0946,-3.177,-3.222,-3.2684,-3.3195,-3.3543,-3.3296,-3.2367,-3.2019,-3.1627,-3.1061,-3.0728,-3.0672,-3.0791,-3.0791,-3.0969,-3.1205,-3.1322,-3.1336,-3.1467,-3.1496,-3.1496,-3.1496,-3.1524,-3.1496,-3.1553,-3.1722,-3.1762,-3.1668,-3.1947,-3.2336,-3.2311,-3.2275,-3.2262,-3.2387,-3.2431,-3.2315,-3.1565,-3.0986,-3.0936,-3.1168,-3.1399,-3.1565,-3.226,-3.2912,-3.2719,-3.2602,-3.253,-3.26,-3.4693,-3.453,-3.3558,-3.342,-3.3834,-3.3859,-3.4098,-3.4437,-3.4085,-3.3834,-3.3709,-3.3388,-3.3174,-3.2872,-3.1901,-3.1386,-3.1198,-3.0331,-3.0244,-3.0896,-3.165,-3.2001,-3.1938,-3.1223,-3.0746,-3.0495,-3.0105,-2.9867,-2.9792,-2.9779,-2.9779,-2.9779,-2.9767,-2.9503,-2.8913,-2.8863,-2.8537,-2.7971,-2.7544,-2.7318,-2.7253,-2.6839,-2.6524,-2.6499,-2.6487,-2.6487,-2.6487,-2.6521,-2.6521,-2.6458,-2.6139,-2.6295,-2.6814,-2.681,-2.7215,-2.794,-2.8279,-2.8629,-2.9008,-2.9324,-2.9707,-3.0085,-3.0393,-3.0639,-3.0752,-3.0868,-3.1319,-3.2347,-3.2597,-3.3093,-3.4008,-3.4312,-3.4022,-3.359,-3.2817,-3.2179,-3.1611,-3.1047,-3.086,-3.0863,-3.085,-3.091,-3.1176,-3.1234,-3.1322,-3.1438,-3.1467,-3.1467,-3.1496,-3.1496,-3.1496,-3.1597,-3.1683,-3.1694,-3.1619,-3.191,-3.2291,-3.2499,-3.2656,-3.2884,-3.2968,-3.2999,-3.2911,-3.2133,-3.1515,-3.1399,-3.1565,-3.2012,-3.2442,-3.31,-3.3232,-3.2901,-3.2851,-3.2979,-3.2868,-3.468,-3.4555,-3.3533,-3.3199,-3.3282,-3.3282,-3.3382,-3.3495,-3.3382,-3.3332,-3.33,-3.3144,-3.3124,-3.2998,-3.1913,-3.1386,-3.1135,-3.0281,-3.0319,-3.111,-3.1424,-3.1851,-3.2026,-3.1537,-3.0997,-3.0643,-3.047,-3.0206,-2.9817,-2.9792,-2.9792,-2.9779,-2.9779,-2.9503,-2.8976,-2.8925,-2.8637,-2.8185,-2.7996,-2.7682,-2.7392,-2.7203,-2.6901,-2.6512,-2.6499,-2.6487,-2.6487,-2.6487,-2.6487,-2.6487,-2.6373,-2.6413,-2.6744,-2.684,-2.7048,-2.7391,-2.763,-2.7908,-2.8268,-2.8656,-2.9196,-2.9979,-3.0256,-3.0793,-3.1376,-3.1503,-3.203,-3.2807,-3.3173,-3.3572,-3.4254,-3.4472,-3.4327,-3.408,-3.334,-3.2571,-3.2222,-3.1685,-3.1264,-3.1266,-3.0947,-3.0849,-3.0969,-3.0984,-3.1087,-3.1278,-3.138,-3.1424,-3.1467,-3.1496,-3.1496,-3.1496,-3.1553,-3.1597,-3.1667,-3.1923,-3.2213,-3.2482,-3.2898,-3.3446,-3.3599,-3.3756,-3.3627,-3.3243,-3.2713,-3.2481,-3.2878,-3.3326,-3.374,-3.3938,-3.4038,-3.3962,-3.3972,-3.4028,-3.3686,-3.4374,-3.4311,-3.3445,-3.3124,-3.3124,-3.3124,-3.3124,-3.3124,-3.3124,-3.3124,-3.3124,-3.3124,-3.3124,-3.2998,-3.1942,-3.1399,-3.1248,-3.0281,-3.0407,-3.1348,-3.1913,-3.2303,-3.2403,-3.2001,-3.1562,-3.122,-3.0809,-3.0457,-3.0143,-2.9917,-2.9792,-2.9779,-2.9779,-2.9591,-2.9352,-2.9289,-2.9139,-2.8837,-2.8599,-2.8273,-2.7996,-2.7494,-2.719,-2.6826,-2.6663,-2.6487,-2.6487,-2.6487,-2.6487,-2.6487,-2.6487,-2.6533,-2.6589,-2.6714,-2.6863,-2.6964,-2.7053,-2.7222,-2.7577,-2.7941,-2.8536,-2.9358,-2.9824,-3.0451,-3.117,-3.1759,-3.2449,-3.3283,-3.3931,-3.4574,-3.5053,-3.5212,-3.5198,-3.514,-3.4312,-3.3499,-3.3006,-3.2338,-3.1973,-3.1801,-3.1409,-3.1035,-3.1171,-3.0967,-3.0999,-3.119,-3.1322,-3.138,-3.1482,-3.1467,-3.1496,-3.1496,-3.1496,-3.1524,-3.1597,-3.1798,-3.1996,-3.2302,-3.2807,-3.3461,-3.3864,-3.4143,-3.4218,-3.4008,-3.3733,-3.3657,-3.3915,-3.4164,-3.4352,-3.4568,-3.4849,-3.4866,-3.47,-3.4601,-3.4286,-3.3909,-3.3859,-3.335,-3.3124,-3.3124,-3.3124,-3.3124,-3.3124,-3.3124,-3.3124,-3.3124,-3.3124,-3.3124,-3.3048,-3.1913,-3.1386,-3.1323,-3.0269,-3.0557,-3.1399,-3.2252,-3.2842,-3.2893,-3.2528,-3.2215,-3.1964,-3.1132,-3.0783,-3.0495,-3.0093,-2.9867,-2.9817,-2.9779,-2.9779,-2.9679,-2.9729,-2.9779,-2.9603,-2.9227,-2.8888,-2.8612,-2.8021,-2.7532,-2.719,-2.6725,-2.6512,-2.6487,-2.6487,-2.6487,-2.6487,-2.6487,-2.6537,-2.6562,-2.6612,-2.6722,-2.681,-2.693,-2.7043,-2.7203,-2.7681,-2.8095,-2.8929,-2.9342,-2.9869,-3.1014,-3.1938,-3.2807,-3.3783,-3.4792,-3.5365,-3.5875,-3.6142,-3.6106,-3.5946,-3.559,-3.4825,-3.391,-3.305,-3.2614,-3.2553,-3.1988,-3.1747,-3.1549,-3.1319,-3.0998,-3.1146,-3.1263,-3.1336,-3.1424,-3.1496,-3.1496,-3.1496,-3.1496,-3.1496,-3.1568,-3.167,-3.1826,-3.2066,-3.2605,-3.3208,-3.3739,-3.4088,-3.4512,-3.4508,-3.4019,-3.4027,-3.4385,-3.4648,-3.4771,-3.4826,-3.4859,-3.4899,-3.4866,-3.48,-3.4584,-3.3909,-3.3847,-3.3294,-3.3124,-3.3124,-3.3124,-3.3124,-3.3124,-3.3124,-3.3124,-3.3124,-3.3124,-3.3099,-3.2993,-3.1901,-3.1386,-3.1223,-3.0382,-3.0382,-3.1373,-3.2051,-3.2667,-3.2955,-3.2867,-3.2641,-3.2277,-3.2026,-3.1436,-3.0796,-3.0507,-3.0206,-2.9854,-2.9804,-2.9779,-2.9779,-2.9779,-2.9779,-2.9767,-2.9628,-2.9352,-2.8988,-2.865,-2.8097,-2.7406,-2.6851,-2.6562,-2.6499,-2.6487,-2.6487,-2.6487,-2.6562,-2.6776,-2.7014,-2.709,-2.7278,-2.7544,-2.767,-2.7816,-2.8056,-2.8193,-2.8676,-2.9353,-2.9686,-3.054,-3.1927,-3.2467,-3.3257,-3.4187,-3.4848,-3.5413,-3.5898,-3.6007,-3.6252,-3.6323,-3.593,-3.5407,-3.4898,-3.3983,-3.334,-3.3137,-3.2701,-3.2106,-3.1687,-3.1544,-3.1318,-3.122,-3.119,-3.1278,-3.1351,-3.1496,-3.1496,-3.1496,-3.1496,-3.1496,-3.1524,-3.1597,-3.1712,-3.1883,-3.2373,-3.2753,-3.3282,-3.3755,-3.4041,-3.4217,-3.4185,-3.4374,-3.4676,-3.466,-3.4718,-3.4773,-3.4828,-3.4875,-3.4899,-3.4899,-3.4899,-3.3508,-3.3483,-3.3194,-3.3124,-3.3124,-3.3124,-3.3124,-3.3124,-3.3124,-3.3124,-3.3048,-3.2817,-3.2667,-3.2579,-3.1562,-3.1022,-3.0922,-3.0507,-3.047,-3.1135,-3.18,-3.2378,-3.2667,-3.2943,-3.2893,-3.2591,-3.2303,-3.1838,-3.1399,-3.0859,-3.0457,-3.0168,-2.9942,-2.9792,-2.9779,-2.9779,-2.9779,-2.9779,-2.9779,-2.9616,-2.9377,-2.9001,-2.8549,-2.7833,-2.7381,-2.7231,-2.7256,-2.7256,-2.7278,-2.7218,-2.7253,-2.7241,-2.7256,-2.7341,-2.757,-2.7996,-2.8109,-2.8146,-2.8243,-2.8353,-2.8615,-2.9336,-2.9498,-3.0403,-3.1561,-3.2443,-3.3281,-3.4165,-3.4931,-3.5586,-3.6193,-3.661,-3.6856,-3.7012,-3.6635,-3.6286,-3.6025,-3.4893,-3.3906,-3.379,-3.334,-3.2919,-3.2513,-3.2077,-3.168,-3.1558,-3.1176,-3.1235,-3.1409,-3.1496,-3.1496,-3.1496,-3.1496,-3.1496,-3.1496,-3.1568,-3.1626,-3.1826,-3.2081,-3.233,-3.2629,-3.3054,-3.3461,-3.3698,-3.4034,-3.4526,-3.4791,-3.4718,-3.4603,-3.4628,-3.4691,-3.4828,-3.4899,-3.4875,-3.4875,-3.3124,-3.3124,-3.3124,-3.3124,-3.3124,-3.3124,-3.3124,-3.3124,-3.3124,-3.3124,-3.2968,-3.2466,-3.229,-3.2001,-3.1122,-3.062,-3.0482,-3.0482,-3.0457,-3.0756,-3.1599,-3.2077,-3.2365,-3.278,-3.3099,-3.3048,-3.2478,-3.2152,-3.1876,-3.1286,-3.0746,-3.0545,-3.0181,-2.993,-2.9842,-2.9779,-2.9779,-2.9779,-2.9779,-2.9779,-2.9691,-2.9276,-2.8837,-2.8335,-2.8021,-2.7946,-2.7934,-2.7971,-2.8034,-2.8109,-2.8109,-2.7908,-2.7682,-2.7557,-2.7783,-2.836,-2.8511,-2.8549,-2.8574,-2.8561,-2.8712,-2.9013,-2.9202,-2.9871,-3.1188,-3.2265,-3.3185,-3.4126,-3.5008,-3.5957,-3.6805,-3.7195,-3.7658,-3.7887,-3.7622,-3.736,-3.6997,-3.572,-3.4936,-3.469,-3.4312,-3.3896,-3.3296,-3.2774,-3.2324,-3.1864,-3.147,-3.1235,-3.144,-3.1511,-3.1541,-3.1511,-3.1496,-3.1496,-3.1496,-3.154,-3.1627,-3.1683,-3.1883,-3.1981,-3.2107,-3.229,-3.2757,-3.3513,-3.3966,-3.4227,-3.4351,-3.4216,-3.4184,-3.439,-3.4521,-3.457,-3.4667,-3.4787,-3.4828,-3.3124,-3.3124,-3.3124,-3.3124,-3.3124,-3.3124,-3.3124,-3.3124,-3.3099,-3.3068,-3.2968,-3.2453,-3.2127,-3.1888,-3.1085,-3.0394,-3.0068,-3.003,-3.0231,-3.0593,-3.1323,-3.1763,-3.229,-3.2805,-3.3111,-3.296,-3.2503,-3.2215,-3.2077,-3.1587,-3.1035,-3.0696,-3.0495,-3.0269,-2.9942,-2.9779,-2.9779,-2.9779,-2.9779,-2.9779,-2.9741,-2.9628,-2.934,-2.8775,-2.8486,-2.8285,-2.821,-2.816,-2.8109,-2.8109,-2.8122,-2.8323,-2.8511,-2.8599,-2.8875,-2.9214,-2.9352,-2.9289,-2.9315,-2.9415,-2.9515,-2.9729,-2.9967,-3.0601,-3.1563,-3.238,-3.3224,-3.4266,-3.5265,-3.6217,-3.6886,-3.7341,-3.7763,-3.7922,-3.7767,-3.7375,-3.7186,-3.6635,-3.5952,-3.5836,-3.5357,-3.4796,-3.4109,-3.3445,-3.2815,-3.2372,-3.1951,-3.1707,-3.1738,-3.1707,-3.1632,-3.1557,-3.1496,-3.1496,-3.1496,-3.1555,-3.1599,-3.1539,-3.164,-3.164,-3.1697,-3.164,-3.2063,-3.2785,-3.3036,-3.301,-3.3208,-3.3477,-3.3704,-3.3771,-3.4009,-3.4259,-3.4374,-3.4472,-3.4643,-3.3124,-3.3124,-3.3124,-3.3124,-3.3124,-3.3124,-3.3124,-3.3031,-3.2767,-3.2629,-3.2378,-3.18,-3.1345,-3.1132,-3.0583,-3.0018,-2.9854,-2.9792,-3.0105,-3.0633,-3.1148,-3.1675,-3.2227,-3.2805,-3.3074,-3.296,-3.2516,-3.2215,-3.2152,-3.165,-3.1273,-3.1035,-3.0783,-3.047,-3.0193,-2.993,-2.9829,-2.9792,-2.9779,-2.9779,-2.9779,-2.9779,-2.9591,-2.9377,-2.9139,-2.8988,-2.8976,-2.8976,-2.8988,-2.9001,-2.8988,-2.9139,-2.9277,-2.939,-2.949,-2.9729,-2.9792,-2.9779,-2.9779,-2.9779,-2.9767,-2.9829,-3.0294,-3.0874,-3.1536,-3.2206,-3.3136,-3.4256,-3.5209,-3.6151,-3.6833,-3.7341,-3.7763,-3.806,-3.7912,-3.7781,-3.7694,-3.7433,-3.7143,-3.6765,-3.5894,-3.5276,-3.4884,-3.4176,-3.3394,-3.2876,-3.2487,-3.2323,-3.2198,-3.2094,-3.205,-3.2229,-3.2243,-3.2123,-3.2079,-3.2004,-3.1944,-3.1809,-3.172,-3.1705,-3.1585,-3.163,-3.1657,-3.1959,-3.201,-3.2148,-3.2373,-3.2784,-3.2962,-3.3208,-3.3439,-3.3697,-3.3933,-3.4126,-3.43,-3.3124,-3.3124,-3.3124,-3.3124,-3.3124,-3.3124,-3.3124,-3.3011,-3.2466,-3.224,-3.2064,-3.1132,-3.0683,-3.0495,-3.0131,-2.9792,-2.9779,-2.9779,-3.0043,-3.0457,-3.1097,-3.165,-3.2089,-3.2747,-3.3124,-3.3036,-3.2503,-3.2277,-3.2303,-3.1725,-3.1499,-3.1399,-3.1047,-3.0683,-3.052,-3.0206,-2.9967,-2.9804,-2.9779,-2.9779,-2.9779,-2.9779,-2.9779,-2.9779,-2.974,-2.9639,-2.9551,-2.9539,-2.9513,-2.9564,-2.9601,-2.9664,-2.9702,-2.9714,-2.9714,-2.9753,-2.9753,-2.9792,-2.9779,-2.9779,-2.9779,-2.9804,-3.0306,-3.0834,-3.1505,-3.2263,-3.3152,-3.4238,-3.5141,-3.5951,-3.6665,-3.7211,-3.761,-3.7938,-3.8089,-3.8113,-3.813,-3.7984,-3.781,-3.7215,-3.6336,-3.5828,-3.5523,-3.5276,-3.4583,-3.4006,-3.362,-3.3196,-3.3081,-3.2803,-3.2821,-3.3124,-3.3185,-3.3006,-3.2886,-3.2721,-3.2587,-3.2422,-3.2333,-3.2288,-3.2034,-3.1824,-3.1822,-3.1791,-3.1611,-3.1768,-3.1953,-3.2137,-3.2441,-3.2711,-3.2911,-3.3135,-3.3387,-3.3678,-3.3924,-3.3124,-3.3124,-3.3124,-3.3124,-3.3124,-3.3124,-3.3124,-3.3048,-3.2441,-3.2215,-3.2064,-3.111,-3.057,-3.0432,-3.003,-2.9804,-2.9779,-2.9792,-2.9892,-3.0218,-3.0959,-3.1474,-3.17,-3.2659,-3.3048,-3.3061,-3.2528,-3.2566,-3.2541,-3.1876,-3.1637,-3.1788,-3.1386,-3.1085,-3.058,-3.0369,-3.0269,-2.988,-2.9817,-2.9804,-2.9779,-2.9779,-2.9792,-2.9702,-2.9611,-2.947,-2.947,-2.947,-2.947,-2.9431,-2.947,-2.947,-2.947,-2.9431,-2.9431,-2.9521,-2.965,-2.9779,-2.9779,-2.9779,-2.9779,-2.988,-3.0306,-3.0834,-3.1606,-3.2666,-3.3656,-3.4262,-3.5059,-3.5669,-3.6324,-3.6797,-3.7226,-3.7572,-3.7839,-3.8028,-3.8142,-3.8188,-3.8057,-3.7839,-3.6983,-3.6591,-3.6257,-3.6083,-3.5807,-3.5232,-3.4704,-3.4303,-3.4077,-3.3955,-3.3652,-3.3929,-3.4008,-3.3829,-3.3559,-3.341,-3.3185,-3.3036,-3.2931,-3.2841,-3.2572,-3.2258,-3.2034,-3.1958,-3.1765,-3.1779,-3.2176,-3.2332,-3.2216,-3.2231,-3.2382,-3.2614,-3.2857,-3.3166,-3.3477,-3.3124,-3.3124,-3.3124,-3.3124,-3.3124,-3.3124,-3.3124,-3.2893,-3.2139,-3.175,-3.1537,-3.062,-3.0156,-3.0093,-2.9854,-2.9792,-2.9779,-2.9779,-2.998,-3.0306,-3.0997,-3.1562,-3.2014,-3.2641,-3.3111,-3.3048,-3.291,-3.283,-3.2692,-3.2064,-3.1562,-3.1675,-3.1273,-3.0846,-3.0656,-3.0319,-3.0244,-3.0206,-3.0244,-3.0093,-2.9867,-2.9792,-2.9714,-2.9573,-2.947,-2.9341,-2.9275,-2.9341,-2.9302,-2.9275,-2.9302,-2.9302,-2.9314,-2.9314,-2.938,-2.9419,-2.965,-2.9792,-2.9779,-2.9792,-2.9829,-2.9942,-3.0357,-3.0972,-3.1833,-3.2937,-3.3882,-3.4356,-3.4881,-3.5372,-3.5897,-3.6322,-3.6755,-3.712,-3.7457,-3.7877,-3.8052,-3.815,-3.8101,-3.7912,-3.7723,-3.7317,-3.691,-3.6606,-3.6417,-3.6083,-3.5761,-3.5565,-3.5505,-3.5585,-3.5177,-3.4784,-3.4741,-3.4622,-3.4307,-3.4084,-3.3739,-3.3544,-3.3365,-3.326,-3.3066,-3.2811,-3.2632,-3.2497,-3.2422,-3.2467,-3.2601,-3.2344,-3.2098,-3.196,-3.1824,-3.2287,-3.269,-3.2695,-3.3009,-3.3124,-3.3124,-3.3124,-3.3124,-3.3124,-3.3124,-3.3124,-3.2943,-3.193,-3.1399,-3.1097,-3.0331,-2.9804,-2.9792,-2.9792,-2.9779,-2.9779,-2.9779,-3.0131,-3.062,-3.1148,-3.1675,-3.219,-3.2767,-3.3124,-3.3124,-3.3074,-3.3086,-3.2797,-3.2227,-3.1738,-3.1763,-3.1524,-3.1173,-3.0922,-3.0645,-3.047,-3.052,-3.0465,-3.0278,-2.9963,-2.9699,-2.952,-2.9353,-2.9263,-2.9197,-2.9091,-2.9157,-2.9118,-2.9079,-2.9106,-2.9118,-2.9079,-2.9197,-2.9275,-2.9353,-2.9585,-2.9917,-3.0005,-3.008,-3.0068,-3.0306,-3.0683,-3.1461,-3.2081,-3.3085,-3.3768,-3.4147,-3.4481,-3.4909,-3.5291,-3.5709,-3.6084,-3.6533,-3.7017,-3.7519,-3.7967,-3.8115,-3.8185,-3.8057,-3.7941,-3.7897,-3.7506,-3.7114,-3.691,-3.6809,-3.6736,-3.6697,-3.6614,-3.6575,-3.6131,-3.5466,-3.525,-3.5145,-3.4921,-3.4622,-3.4307,-3.4128,-3.3948,-3.3799,-3.3694,-3.3514,-3.332,-3.32,-3.308,-3.3051,-3.3066,-3.2512,-3.2019,-3.2361,-3.2584,-3.2462,-3.259,-3.2606,-3.2859,-3.3124,-3.3124,-3.3124,-3.3124,-3.3111,-3.3124,-3.3099,-3.2905,-3.1838,-3.1323,-3.1085,-3.0319,-2.9779,-2.9779,-2.9779,-2.9779,-2.9779,-2.9779,-3.0156,-3.0645,-3.116,-3.1738,-3.2277,-3.2729,-3.3124,-3.3124,-3.3124,-3.3124,-3.3011,-3.2528,-3.2503,-3.2822,-3.1989,-3.2026,-3.1788,-3.1235,-3.0756,-3.0653,-3.0511,-3.0393,-3.0052,-2.9673,-2.9231,-2.9131,-2.8961,-2.8843,-2.8843,-2.8943,-2.898,-2.8952,-2.909,-2.9154,-2.9227,-2.9361,-2.9465,-2.9571,-2.9847,-3.0242,-3.0557,-3.0557,-3.0796,-3.1235,-3.1712,-3.2102,-3.2503,-3.3055,-3.3556,-3.3918,-3.4314,-3.4422,-3.4667,-3.4934,-3.5586,-3.613,-3.671,-3.7175,-3.7699,-3.8184,-3.8227,-3.8171,-3.8202,-3.8275,-3.8144,-3.7752,-3.7549,-3.7462,-3.7361,-3.731,-3.689,-3.6744,-3.6456,-3.5993,-3.5693,-3.5517,-3.5444,-3.5175,-3.4921,-3.4876,-3.4801,-3.4622,-3.4488,-3.4279,-3.3858,-3.3844,-3.3724,-3.3619,-3.3574,-3.3469,-3.338,-3.3365,-3.3336,-3.3036,-3.3051,-3.3228,-3.3525,-3.3124,-3.3124,-3.3124,-3.3124,-3.3056,-3.2704,-3.2541,-3.2365,-3.1399,-3.0696,-3.0407,-2.9967,-2.9779,-2.9779,-2.9779,-2.9779,-2.9842,-3.0181,-3.0407,-3.0846,-3.1424,-3.1951,-3.2403,-3.2742,-3.3124,-3.3124,-3.3124,-3.3124,-3.3074,-3.278,-3.2714,-3.2652,-3.2168,-3.1788,-3.1562,-3.1571,-3.1091,-3.067,-3.0602,-3.0595,-3.0038,-2.981,-2.9383,-2.8934,-2.8882,-2.8724,-2.8706,-2.9116,-2.9173,-2.9254,-2.9512,-2.9614,-2.9719,-2.9906,-3.0068,-3.0189,-3.0498,-3.0919,-3.1248,-3.1097,-3.0997,-3.1838,-3.2403,-3.2855,-3.3106,-3.3809,-3.4142,-3.4363,-3.4362,-3.4448,-3.4632,-3.5037,-3.5521,-3.5968,-3.6439,-3.6931,-3.7377,-3.7855,-3.8226,-3.8136,-3.8514,-3.8855,-3.8652,-3.8405,-3.8246,-3.8101,-3.8038,-3.7835,-3.7396,-3.7016,-3.6729,-3.6367,-3.6026,-3.5648,-3.5547,-3.5502,-3.5504,-3.5489,-3.5489,-3.525,-3.4968,-3.4593,-3.4262,-3.4307,-3.4397,-3.4367,-3.4442,-3.4666,-3.4517,-3.4038,-3.3694,-3.3425,-3.3562,-3.3849,-3.4061,-3.3124,-3.3099,-3.2893,-3.293,-3.3023,-3.2453,-3.2202,-3.2026,-3.1097,-3.0306,-2.9792,-2.9779,-2.9779,-2.9779,-2.9779,-2.9779,-2.9867,-3.0143,-3.052,-3.0997,-3.1537,-3.2114,-3.2503,-3.2817,-3.3124,-3.3124,-3.3124,-3.3124,-3.3124,-3.3124,-3.2927,-3.2591,-3.2142,-3.1909,-3.178,-3.1643,-3.1311,-3.0889,-3.0791,-3.0787,-3.0139,-2.9776,-2.9366,-2.8882,-2.8854,-2.8947,-2.9024,-2.9354,-2.9673,-2.9753,-3.0005,-3.0294,-3.0467,-3.067,-3.0931,-3.1124,-3.1339,-3.1675,-3.1851,-3.1913,-3.1675,-3.2428,-3.2993,-3.3458,-3.3909,-3.4412,-3.4582,-3.4613,-3.4663,-3.4705,-3.4763,-3.5035,-3.5339,-3.5779,-3.6382,-3.6834,-3.7097,-3.7484,-3.7862,-3.8125,-3.8408,-3.8505,-3.8731,-3.8457,-3.842,-3.8275,-3.8153,-3.8038,-3.7813,-3.744,-3.7105,-3.6719,-3.6297,-3.5922,-3.5541,-3.5561,-3.5549,-3.5489,-3.5489,-3.5489,-3.522,-3.4876,-3.4786,-3.4936,-3.5026,-3.51,-3.5115,-3.5115,-3.4801,-3.4367,-3.4218,-3.4173,-3.4369,-3.4611,-3.446,-3.3124,-3.3048,-3.2491,-3.2566,-3.2918,-3.2441,-3.2152,-3.1913,-3.0984,-3.0256,-2.9804,-2.9779,-2.9779,-2.9779,-2.9779,-2.9779,-2.9817,-2.9942,-3.0357,-3.1097,-3.1411,-3.2064,-3.2604,-3.2943,-3.3011,-3.3111,-3.3124,-3.3124,-3.3124,-3.3124,-3.2939,-3.2723,-3.237,-3.2271,-3.2321,-3.2358,-3.2019,-3.1522,-3.1229,-3.0784,-3.0311,-2.9726,-2.9149,-2.8795,-2.8851,-2.8996,-2.9104,-2.9634,-2.9911,-3.0007,-3.0416,-3.0688,-3.076,-3.1082,-3.1278,-3.1377,-3.148,-3.1775,-3.2177,-3.2667,-3.288,-3.3068,-3.3571,-3.3972,-3.4085,-3.4462,-3.4951,-3.514,-3.5002,-3.4856,-3.4871,-3.5052,-3.5366,-3.5731,-3.641,-3.6538,-3.6749,-3.7291,-3.7715,-3.7571,-3.7483,-3.7632,-3.8145,-3.8448,-3.8446,-3.8362,-3.8246,-3.8167,-3.8103,-3.793,-3.7585,-3.7199,-3.6768,-3.6461,-3.6116,-3.5708,-3.5594,-3.5534,-3.5489,-3.5489,-3.5489,-3.5295,-3.531,-3.5489,-3.5429,-3.531,-3.5385,-3.5459,-3.513,-3.4876,-3.5115,-3.5175,-3.5325,-3.5265,-3.504,-3.3124,-3.3074,-3.2466,-3.2315,-3.2365,-3.1537,-3.1148,-3.1035,-3.0419,-2.9955,-2.9817,-2.9779,-2.9779,-2.9779,-2.9779,-2.9792,-2.9842,-3.0269,-3.0746,-3.0859,-3.1185,-3.18,-3.234,-3.2591,-3.2717,-3.2993,-3.3124,-3.3124,-3.3124,-3.3081,-3.2822,-3.2562,-3.2264,-3.1925,-3.1822,-3.1792,-3.1589,-3.1248,-3.0895,-3.0482,-3.0163,-2.961,-2.9051,-2.8546,-2.8727,-2.8859,-2.8955,-2.9653,-3.0074,-3.0284,-3.0731,-3.1382,-3.1571,-3.1937,-3.2187,-3.2297,-3.2478,-3.2566,-3.2767,-3.3061,-3.3244,-3.3596,-3.401,-3.4462,-3.4893,-3.5491,-3.573,-3.5755,-3.5667,-3.568,-3.5936,-3.5923,-3.6113,-3.6219,-3.6488,-3.6145,-3.6309,-3.7136,-3.7567,-3.6948,-3.665,-3.7439,-3.8058,-3.8492,-3.8568,-3.8582,-3.851,-3.8402,-3.8318,-3.8294,-3.8084,-3.7739,-3.7352,-3.7035,-3.6728,-3.6428,-3.6081,-3.5965,-3.5711,-3.5489,-3.5489,-3.5489,-3.5489,-3.5489,-3.5489,-3.5489,-3.5489,-3.5489,-3.5489,-3.5459,-3.5489,-3.5489,-3.5444,-3.5429,-3.537,-3.278,-3.2692,-3.1964,-3.1662,-3.1549,-3.0896,-3.052,-3.0306,-2.9942,-2.9779,-2.9779,-2.9779,-2.9779,-2.9779,-2.9779,-2.9779,-2.9829,-3.0131,-3.0545,-3.0608,-3.0934,-3.1424,-3.18,-3.2127,-3.2428,-3.2767,-3.3006,-3.3124,-3.3081,-3.2982,-3.268,-3.2257,-3.1893,-3.178,-3.1636,-3.1619,-3.1576,-3.13,-3.0979,-3.0465,-3.0067,-2.9569,-2.9051,-2.8727,-2.8691,-2.8823,-2.9039,-2.952,-3.017,-3.0567,-3.1198,-3.2042,-3.2345,-3.2692,-3.2896,-3.3081,-3.3124,-3.3086,-3.3099,-3.3099,-3.3287,-3.3483,-3.4135,-3.4675,-3.5182,-3.5579,-3.6019,-3.6241,-3.6392,-3.6392,-3.638,-3.6417,-3.6452,-3.6487,-3.6468,-3.6141,-3.5862,-3.6656,-3.6724,-3.6081,-3.6035,-3.6955,-3.7802,-3.8456,-3.8739,-3.876,-3.8757,-3.8654,-3.8606,-3.8643,-3.8612,-3.8279,-3.8047,-3.7842,-3.7535,-3.7213,-3.6856,-3.6451,-3.6081,-3.5693,-3.5489,-3.5489,-3.5489,-3.5504,-3.5519,-3.5534,-3.5504,-3.5504,-3.5609,-3.5594,-3.5489,-3.5489,-3.5489,-3.5489,-3.5489,-3.2215,-3.2051,-3.106,-3.067,-3.0633,-3.0543,-3.0229,-2.9817,-2.9804,-2.9779,-2.9779,-2.9779,-2.9779,-2.9779,-2.9779,-2.9779,-2.9792,-2.9854,-3.0131,-3.0407,-3.0545,-3.0947,-3.1361,-3.1775,-3.2022,-3.2323,-3.2624,-3.2845,-3.3013,-3.2723,-3.2388,-3.2081,-3.1849,-3.1721,-3.1685,-3.166,-3.1612,-3.1327,-3.0905,-3.0368,-2.9893,-2.9436,-2.8955,-2.8715,-2.8787,-2.8955,-2.9208,-2.9605,-3.0182,-3.0737,-3.1321,-3.1859,-3.2321,-3.2853,-3.3038,-3.3124,-3.3124,-3.3124,-3.3124,-3.3124,-3.3136,-3.3338,-3.3696,-3.4173,-3.4751,-3.5332,-3.5868,-3.6267,-3.6417,-3.6417,-3.6417,-3.6417,-3.6417,-3.6499,-3.6581,-3.6141,-3.5558,-3.5587,-3.5548,-3.5345,-3.5292,-3.5885,-3.6672,-3.7432,-3.8369,-3.8596,-3.8678,-3.9024,-3.9001,-3.9222,-3.9129,-3.8904,-3.8712,-3.8664,-3.834,-3.7864,-3.7585,-3.7148,-3.6406,-3.5982,-3.575,-3.5517,-3.5489,-3.5519,-3.5564,-3.5624,-3.5789,-3.5833,-3.5848,-3.5818,-3.5998,-3.5654,-3.5699,-3.5534,-3.5489,-3.2202,-3.2089,-3.1047,-3.062,-3.0518,-3.0011,-2.9749,-2.9792,-2.9779,-2.9779,-2.9779,-2.9779,-2.9779,-2.9779,-2.9779,-2.9779,-2.9779,-2.9804,-2.9867,-3.0005,-3.0118,-3.0419,-3.0746,-3.1069,-3.1426,-3.1818,-3.215,-3.2368,-3.2519,-3.232,-3.2201,-3.1994,-3.1805,-3.1705,-3.1705,-3.1705,-3.1476,-3.1084,-3.0615,-3.0146,-2.9605,-2.9076,-2.8727,-2.8667,-2.8739,-2.8871,-2.8943,-2.9328,-2.9833,-3.0338,-3.1168,-3.1822,-3.2382,-3.2822,-3.3124,-3.3124,-3.3124,-3.3124,-3.3124,-3.3124,-3.3124,-3.3224,-3.3583,-3.4135,-3.4688,-3.5207,-3.5793,-3.6132,-3.6405,-3.6417,-3.6417,-3.6417,-3.6417,-3.6452,-3.6424,-3.605,-3.5453,-3.5054,-3.497,-3.4482,-3.4455,-3.5143,-3.5871,-3.677,-3.7648,-3.8101,-3.8487,-3.8835,-3.92,-3.9352,-3.9442,-3.9185,-3.9067,-3.8931,-3.8681,-3.8275,-3.8117,-3.7813,-3.6943,-3.6231,-3.6045,-3.58,-3.5589,-3.5651,-3.5881,-3.6081,-3.6237,-3.6297,-3.638,-3.6712,-3.6896,-3.6327,-3.5878,-3.5848,-3.5774,-3.1888,-3.1738,-3.0733,-3.0294,-3.0192,-2.9658,-2.9392,-2.9326,-2.9456,-2.9546,-2.965,-2.9638,-2.9702,-2.9779,-2.9779,-2.9779,-2.9779,-2.9779,-2.9817,-2.9817,-2.9779,-3.0005,-3.0244,-3.0453,-3.077,-3.1199,-3.1472,-3.1672,-3.1939,-3.2052,-3.1994,-3.1849,-3.1749,-3.1705,-3.1705,-3.1657,-3.1259,-3.0778,-3.023,-2.9797,-2.9292,-2.8787,-2.8595,-2.8546,-2.8643,-2.8691,-2.8595,-2.9027,-2.9532,-3.0031,-3.0906,-3.151,-3.208,-3.2692,-3.3025,-3.3025,-3.3124,-3.3124,-3.3124,-3.3124,-3.3124,-3.3275,-3.3633,-3.4286,-3.4839,-3.537,-3.5843,-3.6254,-3.6342,-3.6417,-3.6417,-3.6417,-3.6417,-3.6417,-3.6153,-3.5889,-3.5341,-3.4826,-3.4281,-3.3685,-3.3905,-3.4569,-3.5376,-3.622,-3.686,-3.7153,-3.7551,-3.801,-3.8523,-3.9018,-3.9152,-3.917,-3.9088,-3.9047,-3.8766,-3.8337,-3.7884,-3.7477,-3.688,-3.6315,-3.6206,-3.6168,-3.6073,-3.6204,-3.6372,-3.651,-3.6614,-3.6875,-3.7054,-3.7357,-3.7451,-3.7022,-3.6668,-3.6611,-3.6507,-3.1373,-3.1248,-3.0231,-2.979,-2.9702,-2.9404,-2.8949,-2.8502,-2.8764,-2.9079,-2.925,-2.938,-2.9521,-2.974,-2.9779,-2.9779,-2.9779,-2.9779,-2.9779,-2.9779,-2.9779,-2.988,-2.9875,-3.0072,-3.0251,-3.0357,-3.0556,-3.092,-3.14,-3.1607,-3.1656,-3.1657,-3.1705,-3.1705,-3.1705,-3.1705,-3.1308,-3.0633,-3.0266,-2.9941,-2.9244,-2.8787,-2.8522,-2.8582,-2.8799,-2.8979,-2.8751,-2.8991,-2.9508,-2.9952,-3.0428,-3.0992,-3.192,-3.255,-3.2896,-3.3025,-3.3124,-3.3237,-3.3287,-3.3338,-3.3332,-3.3483,-3.3746,-3.455,-3.5144,-3.5596,-3.6056,-3.6684,-3.6971,-3.6996,-3.7008,-3.6948,-3.6948,-3.6895,-3.6694,-3.6081,-3.5366,-3.47,-3.3866,-3.3391,-3.3462,-3.4071,-3.4207,-3.5021,-3.5504,-3.5944,-3.64,-3.6895,-3.765,-3.8278,-3.8608,-3.8776,-3.8742,-3.8627,-3.8417,-3.7933,-3.7373,-3.691,-3.6483,-3.6336,-3.6108,-3.6322,-3.6646,-3.6494,-3.6356,-3.6717,-3.6949,-3.7219,-3.7467,-3.7588,-3.7643,-3.756,-3.7416,-3.7287,-3.7127,-3.116,-3.0706,-2.9847,-2.9509,-2.9392,-2.8764,-2.8263,-2.7919,-2.7701,-2.8063,-2.8661,-2.904,-2.9404,-2.9702,-2.974,-2.974,-2.9779,-2.9702,-2.9779,-2.974,-2.974,-2.9534,-2.9482,-2.9512,-2.9628,-2.9763,-2.9906,-3.017,-3.0555,-3.0888,-3.1194,-3.1187,-3.144,-3.1705,-3.1705,-3.1705,-3.1332,-3.0669,-3.0573,-2.9965,-2.9039,-2.8727,-2.8522,-2.8595,-2.8763,-2.8835,-2.8691,-2.8703,-2.9328,-2.9899,-3.0276,-3.1162,-3.2451,-3.2772,-3.2982,-3.3068,-3.3162,-3.3332,-3.3545,-3.3696,-3.3847,-3.4299,-3.4713,-3.5094,-3.5533,-3.5943,-3.6471,-3.7149,-3.7538,-3.7525,-3.7525,-3.7513,-3.7487,-3.7349,-3.7136,-3.6282,-3.5382,-3.45,-3.3614,-3.3431,-3.3354,-3.3427,-3.3551,-3.3779,-3.4159,-3.4591,-3.4939,-3.5517,-3.6455,-3.7158,-3.7638,-3.7828,-3.8036,-3.7955,-3.7753,-3.7329,-3.6652,-3.6387,-3.6055,-3.5972,-3.6005,-3.6083,-3.6184,-3.6215,-3.623,-3.654,-3.6945,-3.7557,-3.7769,-3.7631,-3.7624,-3.7478,-3.7769,-3.7798,-3.7656,-3.0884,-3.0505,-2.9745,-2.925,-2.8897,-2.8303,-2.7609,-2.6987,-2.6794,-2.6969,-2.7435,-2.8235,-2.8973,-2.9417,-2.9507,-2.9534,-2.9573,-2.9507,-2.9534,-2.9573,-2.9404,-2.917,-2.9079,-2.8882,-2.8858,-2.8988,-2.9371,-2.9644,-2.9845,-3.0561,-3.097,-3.1007,-3.1416,-3.1705,-3.1705,-3.1669,-3.1452,-3.0946,-3.0958,-3.0254,-2.9244,-2.9184,-2.9208,-2.922,-2.9352,-2.9268,-2.9068,-2.908,-2.9644,-3.0368,-3.09,-3.1595,-3.2494,-3.2797,-3.2939,-3.3169,-3.3319,-3.3571,-3.3884,-3.4186,-3.4424,-3.4876,-3.5194,-3.5445,-3.6107,-3.6496,-3.6923,-3.755,-3.7764,-3.7789,-3.7801,-3.7789,-3.7789,-3.7713,-3.7262,-3.6571,-3.5692,-3.4788,-3.4274,-3.4142,-3.4086,-3.4098,-3.4168,-3.418,-3.4571,-3.4974,-3.509,-3.5353,-3.6078,-3.6493,-3.6832,-3.7036,-3.7268,-3.7037,-3.6579,-3.6186,-3.5703,-3.5542,-3.5505,-3.5547,-3.5572,-3.5637,-3.5701,-3.5749,-3.5871,-3.6147,-3.6638,-3.7052,-3.7157,-3.692,-3.7106,-3.7358,-3.7706,-3.791,-3.782,-3.0566,-3.0326,-2.9551,-2.8937,-2.8383,-2.781,-2.6905,-2.5944,-2.5966,-2.5977,-2.6038,-2.7296,-2.8207,-2.8697,-2.8973,-2.9118,-2.9184,-2.917,-2.9197,-2.9106,-2.887,-2.8462,-2.8195,-2.8087,-2.8198,-2.8438,-2.885,-2.9172,-2.9412,-3.017,-3.0778,-3.0983,-3.1344,-3.1705,-3.1705,-3.1669,-3.1476,-3.1235,-3.1079,-3.0795,-3.0422,-3.0146,-2.9989,-3.0182,-3.0453,-3.0284,-2.9875,-2.9915,-3.033,-3.0931,-3.1571,-3.2222,-3.2692,-3.2947,-3.3152,-3.3339,-3.3771,-3.4035,-3.4299,-3.4663,-3.4864,-3.5127,-3.5441,-3.5881,-3.6483,-3.691,-3.7337,-3.7726,-3.7939,-3.8228,-3.8241,-3.8266,-3.8266,-3.804,-3.7513,-3.6772,-3.5881,-3.5064,-3.4851,-3.4688,-3.4688,-3.4675,-3.47,-3.4713,-3.5031,-3.5433,-3.5796,-3.6081,-3.6345,-3.6581,-3.6811,-3.6754,-3.6781,-3.6337,-3.5747,-3.54,-3.5099,-3.4804,-3.4834,-3.4973,-3.5143,-3.513,-3.5209,-3.5331,-3.548,-3.5599,-3.5706,-3.5948,-3.6001,-3.6081,-3.6213,-3.6439,-3.6752,-3.7039,-3.7529,-3.036,-2.9318,-2.8681,-2.8235,-2.7822,-2.6917,-2.6133,-2.5611,-2.5443,-2.5443,-2.5653,-2.6019,-2.6753,-2.7528,-2.7931,-2.8291,-2.874,-2.8752,-2.8712,-2.8621,-2.8383,-2.773,-2.7325,-2.751,-2.7655,-2.8079,-2.8609,-2.8891,-2.9448,-3.0037,-3.0482,-3.0891,-3.1452,-3.1693,-3.1705,-3.1669,-3.1633,-3.1464,-3.1476,-3.1344,-3.1127,-3.0699,-3.0146,-3.0146,-3.0158,-3.0098,-3.0043,-3.0264,-3.0609,-3.1229,-3.1988,-3.2525,-3.2854,-3.3171,-3.3395,-3.3539,-3.3997,-3.4487,-3.4763,-3.5044,-3.5257,-3.5793,-3.6056,-3.6119,-3.6644,-3.6897,-3.74,-3.8002,-3.8366,-3.9019,-3.9145,-3.9182,-3.9157,-3.8617,-3.809,-3.691,-3.5809,-3.5316,-3.4951,-3.4901,-3.4901,-3.4914,-3.4939,-3.519,-3.5692,-3.6132,-3.6634,-3.686,-3.6923,-3.691,-3.6908,-3.6707,-3.6505,-3.6031,-3.5642,-3.5135,-3.4761,-3.4368,-3.4088,-3.426,-3.4413,-3.4551,-3.4634,-3.4607,-3.4731,-3.4802,-3.4924,-3.4924,-3.5047,-3.5115,-3.521,-3.5413,-3.5736,-3.6096,-3.6492]},{"header":{"parameterUnit":"m.s-1","parameterCategory":1,"la1":31.0,"la2":29.5877,"lo1":-88.7671,"lo2":-86.6584,"dy":0.0162,"dx":0.0185,"nx":115,"ny":88,"refTime":"2026-04-10T00:00:00:Z","depth":0,"parameterNumber":3,"parameterNumberName":"V-component_of_WINDS"},"data":[0.0,0.0,0.0,0.0,0.0,0.0,0.0,0.0,0.0,0.0,0.0,0.0,0.0,0.0,0.0,0.0,0.0,0.0,0.0,0.0,0.0,0.0,0.0,0.0,0.0,0.0,0.0,0.0,0.0,0.0,0.0,0.0,0.0,0.0,0.0,0.0,0.0,0.0,0.0,0.0,0.0,0.0,0.0,0.0,0.0,0.0,0.0,0.0,0.0,0.0,0.0,0.0,0.0,0.0,0.0,0.0,0.0,0.0,0.0,0.0,0.0,0.0,0.0,0.0,0.0,0.0,0.0,0.0,0.0,0.0,0.0,0.0,0.0,0.0,0.0,0.0,0.0,0.0,0.0,0.0,0.0,0.0,0.0,0.0,0.0,0.0,0.0,0.0,0.0,0.0,0.0,0.0,0.0,0.0,0.0,0.0,0.0,0.0,0.0,0.0,0.0,0.0,0.0,0.0,0.0,0.0,0.0,0.0,0.0,0.0,0.0,0.0,0.0,0.0,0.0,0.0,0.0,0.0,0.0,0.0,0.0,0.0,0.0,0.0,0.0,0.0,0.0,0.0,0.0,0.0,0.0,0.0,0.0,0.0,0.0,0.0,0.0,0.0,0.0,0.0,0.0,0.0,0.0,0.0,0.0,0.0,0.0,0.0,0.0,0.0,0.0,0.0,0.0,0.0,0.0,0.0,0.0,0.0,0.0,0.0,0.0,0.0,0.0,0.0,0.0,0.0,0.0,0.0,0.0,0.0,0.0,0.0,0.0,0.0,0.0,0.0,0.0,0.0,0.0,0.0,0.0,0.0,0.0,0.0,0.0,0.0,0.0,0.0,0.0,0.0,0.0,0.0,0.0,0.0,0.0,0.0,0.0,0.0,0.0,0.0,0.0,0.0,0.0,0.0,0.0,0.0,0.0,0.0,0.0,0.0,0.0,0.0,0.0,0.0,0.0,0.0,0.0,0.0,0.0,0.0,0.0,0.0,0.0,0.0,0.0,0.0,0.0,0.0,0.0,0.0,0.0,0.0,0.0,0.0,0.0,0.0,0.0,0.0,0.0,0.0,0.0,0.0,0.0,0.0,0.0,0.0,0.0,0.0,0.0,0.0,0.0,0.0,0.0,0.0,0.0,0.0,0.0,0.0,0.0,0.0,0.0,0.0,0.0,0.0,0.0,0.0,0.0,0.0,0.0,0.0,0.0,0.0,0.0,0.0,0.0,0.0,0.0,0.0,0.0,0.0,0.0,0.0,0.0,0.0,0.0,0.0,0.0,0.0,0.0,0.0,0.0,0.0,0.0,0.0,0.0,0.0,0.0,0.0,0.0,0.0,0.0,0.0,0.0,0.0,0.0,0.0,0.0,0.0,0.0,0.0,0.0,0.0,0.0,0.0,0.0,0.0,0.0,0.0,0.0,0.0,0.0,0.0,0.0,0.0,0.0,0.0,0.0,0.0,0.0,0.0,0.0,0.0,0.0,0.0,0.0,0.0,0.0,0.0,0.0,0.0,0.0,0.0,0.0,0.0,0.0,0.0,0.0,0.0,0.0,0.0,0.0,0.0,0.0,0.0,0.0,0.0,0.0,0.0,0.0,0.0,0.0,0.0,0.0,0.0,0.0,0.0,0.0,0.0,0.0,0.0,0.0,0.0,0.0,0.0,0.0,0.0,0.0,0.0,0.0,0.0,0.0,0.0,0.0,0.0,0.0,0.0,0.0,0.0,0.0,0.0,0.0,0.0,0.0,0.0,0.0,0.0,0.0,0.0,0.0,0.0,0.0,0.0,0.0,0.0,0.0,0.0,0.0,0.0,0.0,0.0,0.0,0.0,0.0,0.0,0.0,0.0,0.0,0.0,0.0,0.0,0.0,0.0,0.0,0.0,0.0,0.0,0.0,0.0,0.0,0.0,0.0,0.0,0.0,0.0,0.0,0.0,0.0,0.0,0.0,0.0,0.0,0.0,0.0,0.0,0.0,0.0,0.0,0.0,0.0,0.0,0.0,0.0,0.0,0.0,0.0,0.0,0.0,0.0,0.0,0.0,0.0,0.0,0.0,0.0,0.0,0.0,0.0,0.0,0.0,0.0,0.0,0.0,0.0,0.0,0.0,0.0,0.0,0.0,0.0,0.0,0.0,0.0,0.0,0.0,0.0,0.0,0.0,0.0,0.0,0.0,0.0,0.0,0.0,0.0,0.0,0.0,0.0,0.0,0.0,0.0,0.0,0.0,0.0,0.0,0.0,0.0,0.0,0.0,0.0,0.0,0.0,0.0,0.0,0.0,0.0,0.0,0.0,0.0,0.0,0.0,0.0,0.0,0.0,0.0,0.0,0.0,0.0,0.0,0.0,0.0,0.0,0.0,0.0,0.0,0.0,0.0,0.0,0.0,0.0,0.0,0.0,0.0,0.0,0.0,0.0,0.0,0.0,0.0,0.0,0.0,0.0,0.0,0.0,0.0,0.0,0.0,0.0,0.0,0.0,0.0,0.0,0.0,0.0,0.0,0.0,0.0,0.0,0.0,0.0,0.0,0.0,0.0,0.0,0.0,0.0,0.0,0.0,0.0,0.0,0.0,0.0,0.0,0.0,0.0,0.0,0.0,0.0,0.0,0.0,0.0,0.0,0.0,0.0,0.0,0.0,0.0,0.0,0.0,0.0,0.0,0.0,0.0,0.0,0.0,0.0,0.0,0.0,0.0,0.0,0.0,0.0,0.0,0.0,0.0,0.0,0.0,0.0,0.0,0.0,0.0,0.0,0.0,0.0,0.0,0.0,0.0,0.0,0.0,0.0,0.0,0.0,0.0,0.0,0.0,0.0,0.0,0.0,0.0,0.0,0.0,0.0,0.0,0.0,0.0,0.0,0.0,0.0,0.0,0.0,0.0,0.0,0.0,0.0,0.0,0.0,0.0,0.0,0.0,0.0,0.0,0.0,0.0,0.0,0.0,0.0,0.0,0.0,0.0,0.0,0.0,0.0,0.0,0.0,0.0,0.0,0.0,0.0,0.0,0.0,0.0,0.0,0.0,0.0,0.0,0.0,0.0,0.0,0.0,0.0,0.0,0.0,0.0,0.0,0.0,0.0,0.0,0.0,0.0,0.0,0.0,0.0,0.0,0.0,0.0,0.0,0.0,0.0,0.0,0.0,0.0,0.0,0.0,0.0,0.0,0.0,0.0,0.0,0.0,0.0,0.0,0.0,0.0,0.0,0.0,0.0,0.0,0.0,0.0,0.0,0.0,0.0,0.0,0.0,0.0,0.0,0.0,0.0,0.0,0.0,0.0,0.0,0.0,0.0,0.0,0.0,0.0,0.0,0.0,0.0,0.0,0.0,0.0,0.0,0.0,0.0,0.0,0.0,0.0,0.0,0.0,0.0,0.0,0.0,0.0,0.0,0.0,0.0,0.0,0.0,0.0,0.0,0.0,0.0,0.0,0.0,0.0,0.0,0.0,0.0,0.0,0.0,0.0,0.0,0.0,0.0,0.0,0.0,0.0,0.0,0.0,0.0,0.0,0.0,0.0,0.0,0.0,0.0,0.0,0.0,0.0,0.0,0.0,0.0,0.0,0.0,0.0,0.0,0.0,0.0,0.0,0.0,0.0,0.0,0.0,0.0,0.0,0.0,0.0,0.0,0.0,0.0,0.0,0.0,0.0,0.0,0.0,0.0,0.0,0.0,0.0,0.0,0.0,0.0,0.0,0.0,0.0,0.0,0.0,0.0,0.0,0.0,0.0,0.0,0.0,0.0,0.0,0.0,0.0,0.0,0.0,0.0,0.0,0.0,0.0,0.0,0.0,0.0,0.0,0.0,0.0,0.0,0.0,0.0,0.0,0.0,0.0,0.0,0.0,0.0,0.0,0.0,0.0,0.0,0.0,0.0,0.0,0.0,0.0,0.0,0.0,0.0,0.0,0.0,0.0,0.0,0.0,0.0,0.0,0.0,0.0,0.0,0.0,0.0,0.0,0.0,0.0,0.0,0.0,0.0,0.0,0.0,0.0,0.0,0.0,0.0,0.0,0.0,0.0,0.0,0.0,0.0,0.0,0.0,0.0,0.0,0.0,0.0,0.0,0.0,0.0,0.0,0.0,0.0,0.0,0.0,0.0,0.0,0.0,0.0,0.0,0.0,0.0,0.0,0.0,0.0,0.0,0.0,0.0,0.0,0.0,0.0,0.0,0.0,0.0,0.0,0.0,0.0,0.0,0.0,0.0,0.0,0.0,0.0,0.0,0.0,0.0,0.0,0.0,0.0,0.0,0.0,0.0,0.0,0.0,0.0,0.0,-0.0667,0.0,0.0,0.0,0.0,0.0,0.0,0.0,0.0,0.0,0.0,0.0,0.0,0.0,0.0,0.0,0.0,0.0,0.0,0.0,0.0,0.0,0.0,0.0,0.0,0.0,0.0,0.0,0.0,0.0,0.0,0.0,0.0,0.0,0.0,0.0,0.0,0.0,0.0,0.0,0.0,0.0,0.0,0.0,0.0,0.0,0.0,0.0,0.0,0.0,0.0,0.0,0.0,0.0,0.0,0.0,0.0,0.0,0.0,0.0,0.0,0.0,0.0,0.0,0.0,0.0,0.0,0.0,0.0,0.0,0.0,0.0,0.0,0.0,0.0,0.0,0.0,0.0,0.0,0.0,0.0,0.0,0.0,0.0,0.0,0.0,0.0,0.0,0.0,0.0,0.0,0.0,0.0,0.0,0.0,0.0,0.0,0.0,0.0,0.0,0.0,0.0,0.0,0.0,0.0,0.0,0.0,0.0,0.0,0.0,0.0,0.0,0.0,-0.0243,-0.0429,-0.0524,0.0,0.0,0.0,0.0,0.0,0.0,0.0,0.0,0.0,0.0,0.0,0.0,0.0,0.0,0.0,0.0,0.0,0.0,0.0,0.0,0.0,0.0,0.0,0.0,0.0,0.0,0.0,0.0,0.0,0.0,0.0,0.0,0.0,0.0,0.0,0.0,0.0,0.0,0.0,0.0,0.0,0.0,0.0,0.0,0.0,0.0,0.0,0.0,0.0,0.0,0.0,0.0,0.0,0.0,0.0,0.0,0.0,0.0,0.0,0.0,0.0,0.0,0.0,0.0,0.0,0.0,0.0,0.0,0.0,0.0,0.0,0.0,0.0,0.0,0.0,0.0,0.0,0.0,0.0,0.0,0.0,0.0,0.0,0.0,0.0,0.0,0.0,0.0,0.0,0.0,0.0,0.0,0.0,0.0,0.0,0.0,0.0,0.0,0.0,0.0,0.0,0.0,0.0,0.0,0.0,0.0,0.0,0.0,0.0,0.0,0.0,0.0,-0.0195,-0.0334,-0.0423,0.0,0.0,0.0,0.0,0.0,0.0,0.0,0.0,0.0,0.0,0.0,0.0,0.0,0.0,0.0,0.0,0.0,0.0,0.0,0.0,0.0,0.0,0.0,0.0,0.0,0.0,0.0,0.0,0.0,0.0,0.0,0.0,0.0,0.0,0.0,0.0,0.0,0.0,0.0,0.0,0.0,0.0,0.0,0.0,0.0,0.0,0.0,0.0,0.0,0.0,0.0,0.0,0.0,0.0,0.0,0.0,0.0,0.0,0.0,0.0,0.0,0.0,0.0,0.0,0.0,0.0,0.0,0.0,0.0,0.0,0.0,0.0,0.0,0.0,0.0,0.0,0.0,0.0,0.0,0.0,0.0,0.0,0.0,0.0,0.0,0.0,0.0,0.0,0.0,0.0,0.0,0.0,0.0,0.0,0.0,0.0,0.0,0.0,0.0,0.0,0.0,0.0,0.0,0.0,0.0,0.0,0.0,0.0,0.0,0.0,0.0,0.0,0.0,0.0,-0.0407,0.0,0.0,0.0,0.0,0.0,0.0,0.0,0.0,0.0,0.0,0.0,0.0,0.0,0.0,0.0,0.0,0.0,0.0,0.0,0.0,0.0,0.0,0.0,0.0,0.0,0.0,0.0,0.0,0.0,0.0,0.0,0.0,0.0,0.0,0.0,0.0,0.0,0.0,0.0,0.0,0.0,0.0,0.0,0.0,0.0,0.0,0.0,0.0,0.0,0.0,0.0,0.0,0.0,0.0,0.0,0.0,0.0,0.0,0.0,0.0,0.0,0.0,0.0,0.0,0.0,0.0,0.0,0.0,0.0,0.0,0.0,0.0,0.0,0.0,0.0,0.0,0.0,0.0,0.0,0.0,0.0,0.0,0.0,0.0,0.0,0.0,0.0,0.0,0.0,0.0,0.0,0.0,0.0,0.0,0.0,0.0,0.0,0.0,0.0,0.0,0.0,0.0,0.0,0.0,0.0,0.0,0.0,0.0,0.0,0.0,0.0,0.0,0.0,-0.0142,0.0,0.0,0.0,0.0,0.0,0.0,0.0,0.0,0.0,0.0,0.0,0.0,0.0,0.0,0.0,0.0,0.0,0.0,0.0,0.0,0.0,0.0,0.0,0.0,0.0,0.0,0.0,0.0,0.0,0.0,0.0,0.0,0.0,0.0,0.0,0.0,0.0,0.0,0.0,0.0,0.0,0.0,0.0,0.0,0.0,0.0,0.0,0.0,0.0,0.0,0.0,0.0,0.0,0.0,0.0,0.0,0.0,0.0,0.0,0.0,0.0,0.0,0.0,0.0,0.0,0.0,0.0,0.0,0.0,0.0,0.0,0.0,0.0,0.0,0.0,0.0,0.0,0.0,0.0,0.0,0.0,0.0,0.0,0.0,0.0,0.0,0.0,0.0,0.0,0.0,0.0,0.0,0.0,0.0,0.0,0.0,0.0,0.0,0.0,0.0,0.0,0.0,0.0,0.0,0.0,0.0,0.0,0.0,0.0,0.0,0.0096,0.0049,0.0,0.0,-0.0093,-0.0312,0.0,0.0,0.0,0.0,0.0,0.0,0.0,0.0,0.0,0.0,0.0,0.0,0.0,0.0,0.0,0.0,0.0,0.0,0.0,0.0,0.0,0.0,0.0,0.0,0.0,0.0,0.0,0.0,0.0,0.0,0.0,0.0,0.0,0.0,0.0,0.0,0.0,0.0,0.0,0.0,0.0,0.0,0.0,0.0,0.0,0.0,0.0,0.0,0.0,0.0,0.0,0.0,0.0,0.0,0.0,0.0,0.0,0.0,0.0,0.0,0.0,0.0,0.0,0.0,0.0,0.0,0.0,0.0,0.0,0.0,0.0,0.0,0.0,0.0,0.0,0.0,0.0,0.0,0.0,0.0,0.0,0.0,0.0,0.0,0.0,0.0,0.0,0.0,0.0,0.0,0.0,0.0,0.0,0.0,0.0,0.0,0.0,0.0,0.0,0.0,0.0,0.0,0.0,0.0,0.0,0.0,0.0,0.0,0.0,0.0374,0.0241,0.0,0.0,0.0,0.0,0.0,0.0,0.0,0.0,0.0,0.0,0.0,0.0,0.0,0.0,0.0,0.0,0.0,0.0,0.0,0.0,0.0,0.0,0.0,0.0,0.0,0.0,0.0,0.0,0.0,0.0,0.0,0.0,0.0,0.0,0.0,0.0,0.0,0.0,0.0,0.0,0.0,0.0,0.0,0.0,0.0,0.0,0.0,0.0,0.0,0.0,0.0,0.0,0.0,0.0,0.0,0.0,0.0,0.0,0.0,0.0,0.0,0.0,0.0,0.0,0.0,0.0,0.0,0.0,0.0,0.0,0.0,0.0,0.0,0.0,0.0,0.0,0.0,0.0,0.0,0.0,0.0,0.0,0.0,0.0,0.0,0.0,0.0,0.0,0.0,0.0,0.0,0.0,0.0,0.0,0.0,0.0,0.0,0.0,0.0,0.0,0.0,0.0,0.0,0.0,0.0,0.0,0.0,0.0,0.0,0.0,0.0,0.0,0.1078,0.0467,0.0096,0.0,0.0,0.0,0.0,0.0,0.0,0.0,0.0,0.0,0.0,0.0,0.0,0.0,0.0,0.0,0.0,0.0,0.0,0.0,0.0,0.0,0.0,0.0,0.0,0.0,0.0,0.0,0.0,0.0,0.0,0.0,0.0,0.0,0.0,0.0,0.0,0.0,0.0,0.0,0.0,0.0,0.0,0.0,0.0,0.0,0.0,0.0,0.0,0.0,0.0,0.0,0.0,0.0,0.0,0.0,0.0,0.0,0.0,0.0,0.0,0.0,0.0,0.0,0.0,0.0,0.0,0.0,0.0,0.0,0.0,0.0,0.0,0.0,0.0,0.0,0.0,0.0,0.0,0.0,0.0,0.0,0.0,0.0,0.0,0.0,0.0,0.0,0.0,0.0,0.0,0.0,0.0,0.0,0.0,0.0,0.0,0.0,0.0,0.0,0.0,0.0,0.0,0.0,0.0,0.0,0.0,0.0,0.0,0.0,0.0,0.0,0.0,0.1557,0.0,0.024,0.0,0.0183,0.0133,0.0,0.0,0.0,0.0,0.0,0.0,0.0,0.0,0.0,0.0,0.0,0.0,0.0,0.0,0.0,0.0,0.0,0.0,0.0,0.0,0.0,0.0,0.0,0.0,0.0,0.0,0.0,0.0,0.0,0.0,0.0,0.0,0.0,0.0,0.0,0.0,0.0,0.0,0.0,0.0,0.0,0.0,0.0,0.0,0.0,0.0,0.0,0.0,0.0,0.0,0.0,0.0,0.0,0.0,0.0,0.0,0.0,0.0,0.0,0.0,0.0,0.0,0.0,0.0,0.0,0.0,0.0,0.0,0.0,0.0,0.0,0.0,0.0,0.0,0.0,0.0,0.0,0.0,0.0,0.0,0.0,0.0,0.0,0.0,0.0,0.0,0.0,0.0,0.0,0.0,0.0,0.0,0.0,0.0,0.0,0.0,0.0,0.0,0.0,0.0,0.0,0.0,0.0,0.0,0.0,0.0,0.0,0.0,0.3247,0.1857,0.1215,0.0876,0.0811,0.0596,0.0528,0.0,0.0,0.0,0.0,0.0,0.0,0.0,0.0,0.0,0.0,0.0,0.0,0.0,0.0,0.0,0.0,0.0,0.0,0.0,0.0,0.0,0.0,0.0,0.0,0.0,0.0,0.0,0.0,0.0,0.0,0.0,0.0,0.0,0.0,0.0,0.0,0.0,0.0,0.0,0.0,0.0,0.0,0.0,0.0,0.0,0.0,0.0,0.0,0.0,0.0,0.0,0.0,0.0,0.0,0.0,0.0,0.0,0.0,0.0,0.0,0.0,0.0,0.0,0.0,0.0,0.0,0.0,0.0,0.0,0.0,0.0,0.0,0.0,0.0,0.0,0.0,0.0,0.0,0.0,0.0,0.0,0.0,0.0,0.0,0.0,0.0,0.0,0.0,0.0,0.0,0.0,0.0,0.0,0.0,0.0,0.0,0.0,0.0,0.0,0.0,0.0,0.0,0.0,0.0,0.0,0.0,0.0,0.0,0.0,0.34,0.2966,0.2523,0.2039,0.1614,0.1238,0.0,0.0,0.0,0.0,0.0,0.0,0.0,0.0,0.0,0.0,0.0,0.0,0.0,0.0,0.0,0.0,0.0,0.0,0.0,0.0,0.0,0.0,0.0,0.0,0.0,0.0,0.0,0.0,0.0,0.0,0.0,0.0,0.0,0.0,0.0,0.0,0.0,0.0,0.0,0.0,0.0,0.0,0.0,0.0,0.0,0.0,0.0,0.0,0.0,0.0,0.0,0.0,0.0,0.0,0.0,0.0,0.0,0.0,0.0,0.0,0.0,0.0,0.0,0.0,0.0,0.0,0.0,0.0,0.0,0.0,0.0,0.0,0.0,0.0,0.0,0.0,0.0,0.0,0.0,0.0,0.0,0.0,0.0,0.0,0.0,0.0,0.0,0.0,0.0,0.0,0.0,0.0,0.0,0.0,0.0,0.0,0.0,0.0,0.0,0.0,0.0,0.0,0.0,0.0,0.0,0.0,0.0,0.0,0.0,0.5306,0.4468,0.3719,0.3106,0.2477,0.2043,0.1736,0.0,0.0,0.0,0.0,0.0,0.0,0.0,0.0,0.0,0.0,0.0,0.0,0.0,0.0,0.0,0.0,0.0,0.0,0.0,0.0,0.0,0.0,0.0,0.0,0.0,0.0,0.0,0.0,0.0,0.0,0.0,0.0,0.0,0.0,0.0,0.0,0.0,0.0,0.0,0.0,0.0,0.0,0.0,0.0,0.0,0.0,0.0,0.0,0.0,0.0,0.0,0.0,0.0,0.0,0.0,0.0,0.0,0.0,0.0,0.0,0.0,0.0,0.0,0.0,0.0,0.0,0.0,0.0,0.0,0.0,0.0,0.0,0.0,0.0,0.0,0.0,0.0,0.0,0.0,0.0,0.0,0.0,0.0,0.0,0.0,0.0,0.0,0.0,0.0,0.0,0.0,0.0,0.0,0.0,0.0,0.0,0.0,0.0,0.0,0.0,0.0,0.0,0.0,0.0,0.0,0.0,0.0,0.0,0.7437,0.581,0.468,0.4067,0.3311,0.2846,0.0,0.0,0.0,0.0,0.0,0.0,0.0,0.0,0.0,0.0,0.0,0.0,0.0,0.0,0.0,0.0,0.0,0.0,0.0,0.0,0.0,0.0,0.0,0.0,0.0,0.0,0.0,0.0,0.0,0.0,0.0,0.0,0.0,0.0,0.0,0.0,0.0,0.0,0.0,0.0,0.0,0.0,0.0,0.0,0.0,0.0,0.0,0.0,0.0,0.0,0.0,0.0,0.0,0.0,0.0,0.0,0.0,0.0,0.0,0.0,0.0,0.0,0.0,0.0,0.0,0.0,0.0,0.0,0.0,0.0,0.0,0.0,0.0,0.0,0.0,0.0,0.0,0.0,0.0,0.0,0.0,0.0,0.0,0.0,0.0,0.0,0.0,0.0,0.0,0.0,0.0,0.0,0.0,0.0,0.0,0.0,0.0,0.0,0.0,0.0,0.0,0.0,0.0,0.0,0.0,0.0,0.0,0.0,0.0,0.816,0.787,0.7114,0.5777,0.5079,0.4462,0.0,0.0,0.0,0.0,0.0,0.0,0.0,0.0,0.0,0.0,0.0,0.0,0.0,0.0,0.0,0.0,0.0,0.0,0.0,0.0,0.0,0.0,0.0,0.0,0.0,0.0,0.0,0.0,0.0,0.0,0.0,0.0,0.0,0.0,0.0,0.0,0.0,0.0,0.0,0.0,0.0,0.0,0.0,0.0,0.0,0.0,0.0,0.0,0.0,0.0,0.0,0.0,0.0,0.0,0.0,0.0,0.0,0.0,0.0,0.0,0.0,0.0,0.0,0.0,0.0,0.0,0.0,0.0,0.0,0.0,0.0,0.0,0.0,0.0,0.0,0.0,0.0,0.0,0.0,0.0,0.0,0.0,0.0,0.0,0.0,0.0,0.0,0.0,0.0,0.0,0.0,0.0,0.0,0.0,0.0,0.0,0.0,0.0,0.0,0.0,0.0,0.0,0.0,0.0,0.0,0.0,0.0,0.0,0.8234,0.8671,0.8974,0.8538,0.724,0.6232,0.5417,0.0,0.0,0.0,0.0,0.0,0.0,0.0,0.0,0.0,0.0,0.0,0.0,0.0,0.0,0.0,0.0,0.0,0.0,0.0,0.0,0.0,0.0,0.0,0.0,0.0,0.0,0.0,0.0,0.0,0.0,0.0,0.0,0.0,0.0,0.0,0.0,0.0,0.0,0.0,0.0,0.0,0.0,0.0,0.0,0.0,0.0,0.0,0.0,0.0,0.0,0.0,0.0,0.0,0.0,0.0,0.0,0.0,0.0,0.0,0.0,0.0,0.0,0.0,0.0,0.0,0.0,0.0,0.0,0.0,0.0,0.0,0.0,0.0,0.0,0.0,0.0,0.0,0.0,0.0,0.0,0.0,0.0,0.0,0.0,0.0,0.0,0.0,0.0,0.0,0.0,0.0,0.0,0.0,0.0,0.0,0.0,0.0,0.0,0.0,0.0,0.0,0.0,0.0,0.0,0.0,0.0,0.0,0.0,0.8845,0.915,0.9581,0.9472,0.8631,0.7078,0.6054,0.0,0.0,0.0,0.0,0.0,0.0,0.0,0.0,0.0,0.0,0.0,0.0,0.0,0.0,0.0,0.0,0.0,0.0,0.0,0.0,0.0,0.0,0.0,0.0,0.0,0.0,0.0,0.0,0.0,0.0,0.0,0.0,0.0,0.0,0.0,0.0,0.0,0.0,0.0,0.0,0.0,0.0,0.0,0.0,0.0,0.0,0.0,0.0,0.0,0.0,0.0,0.0,0.0,0.0,0.0,0.0,0.0,0.0,0.0,0.0,0.0,0.0,0.0,0.0,0.0,0.0,0.0,0.0,0.0,0.0,0.0,0.0,0.0,0.0,0.0,0.0,0.0,0.0,0.0,0.0,0.0,0.0,0.0,0.0,0.0,0.0,0.0,0.0,0.0,0.0,0.0,0.0,0.0,0.0,0.0,0.0,0.0,0.0,0.0,0.0,0.0,0.0,0.0,0.0,0.0,0.0,0.0,0.0,1.0043,1.063,1.0756,1.0616,1.0136,0.8365,0.7147,0.0,0.0,0.0,0.0,0.0,0.0,0.0,0.0,0.0,0.0,0.0,0.0,0.0,0.0,0.0,0.0,0.0,0.0,0.0,0.0,0.0,0.0,0.0,0.0,0.0,0.0,0.0,0.0,0.0,0.0,0.0,0.0,0.0,0.0,0.0,0.0,0.0,0.0,0.0,0.0,0.0,0.0,0.0,0.0,0.0,0.0,0.0,0.0,0.3606,0.0,0.0,0.0,0.0,0.0,0.0,0.0,0.0,0.0,0.0,0.0,0.0,0.0,0.0,0.0,0.0,0.0,0.0,0.0,0.0,0.0,0.0,0.0,0.0,0.0,0.0,0.0,0.0,0.0,0.0,0.0,0.0,0.0,0.0,0.0,0.0,0.0,0.0,0.0,0.0,0.0,0.0,0.0,0.0,0.0,0.0,0.0,0.0,0.0,0.0,0.0,0.0,0.0,0.0,0.0,0.0,0.0,0.0,0.0,1.1895,1.2492,1.2627,1.249,1.2059,1.0789,0.9186,0.0,0.0,0.0,0.0,0.0,0.0,0.0,0.0,0.0,0.0,0.0,0.0,0.0,0.0,0.0,0.0,0.0,0.0,0.0,0.0,0.0,0.0,0.0,0.0,0.0,0.0,0.0,0.0,0.0,0.0,0.0,0.0,0.0,0.0,0.0,0.0,0.0,0.0,0.0,0.0,0.0,0.0,0.0,0.0,0.0,0.0,0.0,0.0,0.0,0.0,0.0,0.0,0.0,0.0,0.0,0.0,0.0,0.0,0.0,0.0,0.0,0.0,0.0,0.0,0.0,0.0,0.0,0.0,0.0,0.0,0.0,0.0,0.0,0.0,0.0,0.0,0.0,0.0,0.0,0.0,0.0,0.0,0.0,0.0,0.0,0.0,0.0,0.0,0.0,0.0,0.0,0.0,0.0,0.0,0.0,0.0,0.0,0.0,0.0,0.0,0.0,0.0,0.0,0.0,0.0,0.0,0.0,1.2703,1.3626,1.4192,1.4366,1.4251,1.3913,1.317,1.1351,0.8551,0.0,0.0,0.0,0.0,0.0,0.0,0.0,0.0,0.0,0.0,0.0,0.0,0.0,0.0,0.0,0.0,0.0,0.0,0.0,0.0,0.0,0.0,0.0,0.0,0.0,0.0,0.0,0.0,0.0,0.0,0.0,0.0,0.0,0.0,0.0,0.0,0.0,0.0,0.5957,0.6311,0.0,0.0,0.0,0.0,0.0,0.0,0.0,0.0,0.5237,0.0,0.0,0.0,0.0,0.0,0.0,0.0,0.0,0.0,0.0,0.0,0.0,0.0,0.0,0.0,0.0,0.0,0.0,0.0,0.0,0.0,0.0,0.0,0.0,0.0,0.0,0.0,0.0,0.0,0.0,0.0,0.0,0.0,0.0,0.0,0.0,0.0,0.0,0.0,0.0,0.0,0.0,0.0,0.0,0.0,0.0,0.0,0.0,0.0,0.0,0.0,0.0,0.0,0.0,0.0,0.0,1.2338,1.3357,1.4159,1.475,1.4928,1.4863,1.4365,1.3642,1.2461,1.069,0.0,0.0,0.0,0.0,0.0,0.0,0.0,0.0,0.0,0.0,0.0,0.0,0.0,0.0,0.0,0.0,0.0,0.0,0.0,0.0,0.0,0.0,0.0,0.0,0.0,0.0,0.0,0.0,0.0,0.0,0.0,0.0,0.0,0.0,0.0,0.0,0.0,0.0,0.0,0.7266,0.7473,0.0,0.0,0.0,0.0,0.0,0.0,0.0,0.0,0.5381,0.0,0.0,0.0,0.0,0.0,0.0,0.0,0.0,0.0,0.0,0.0,0.0,0.0,0.0,0.0,0.0,0.0,0.0,0.0,0.0,0.0,0.0,0.0,0.0,0.0,0.0,0.0,0.0,0.0,0.0,0.0,0.0,0.0,0.0,0.0,0.0,0.0,0.0,0.0,0.0,0.0,0.0,0.0,0.0,0.0,0.0,0.0,0.0,0.0,0.0,0.0,0.0,0.0,0.0,0.0,1.3874,1.501,1.5868,1.6447,1.6525,1.6359,1.5865,1.4856,1.3572,0.0,0.0,0.0,0.0,0.0,0.0,0.0,0.0,0.0,0.0,0.0,0.0,0.0,0.0,0.0,0.0,0.0,0.0,0.0,0.0,0.0,0.0,0.0,0.0,0.0,0.0,0.0,0.0,0.0,0.0,0.0,0.0,0.0,0.0,0.0,0.0,0.0,0.0,0.0,0.0,0.8569,0.8908,0.8393,0.0,0.0,0.0,0.0,0.0,0.0,0.6865,0.6598,0.0,0.0,0.0,0.0,0.0,0.0,0.0,0.0,0.0,0.0,0.0,0.0,0.0,0.0,0.0,0.0,0.0,0.0,0.0,0.0,0.0,0.0,0.0,0.0,0.0,0.0,0.0,0.0,0.0,0.0,0.0,0.0,0.0,0.0,0.0,0.0,0.0,0.0,0.0,0.0,0.0,0.0,0.0,0.0,0.0,0.0,0.0,0.0,0.0,0.0,0.0,0.0,0.0,0.0,0.0,1.5256,1.6599,1.7523,1.7981,1.7952,1.7642,1.7043,1.5644,1.4273,0.0,0.0,0.0,0.0,0.0,0.0,0.0,0.0,0.0,0.0,0.0,0.0,0.0,0.0,0.0,0.0,0.0,0.0,0.0,0.0,0.0,0.0,0.0,0.0,0.0,0.0,0.0,0.0,0.0,0.0,0.0,0.0,0.0,0.0,0.0,0.0,0.0,0.0,0.0,0.0,0.0,1.0226,0.9604,0.9192,0.0,0.0,0.0,0.0,0.7676,0.7901,0.0,0.0,0.0,0.0,0.0,0.0,0.0,0.0,0.0,0.0,0.0,0.0,0.0,0.0,0.0,0.0,0.0,0.0,0.0,0.0,0.0,0.0,0.0,0.0,0.0,0.0,0.0,0.0,0.0,0.0,0.0,0.0,0.0,0.0,0.0,0.0,0.0,0.0,0.0,0.0,0.0,0.0,0.0,0.0,0.0,0.0,0.0,0.0,0.0,0.0,0.0,0.0,0.0,0.0,0.0,0.0,1.5784,1.7193,1.8023,1.8338,1.8097,1.761,1.6832,1.5241,1.3867,0.0,0.0,0.0,0.0,0.0,0.0,0.0,0.0,0.0,0.0,0.0,0.0,0.0,0.0,0.0,0.0,0.0,0.0,0.0,0.0,0.0,0.0,0.0,0.0,0.0,0.0,0.0,0.0,0.0,0.0,0.0,0.0,0.0,0.0,0.0,0.0,0.0,0.0,0.0,0.0,0.0,1.0883,1.0887,1.044,0.9985,0.0,0.0,0.9044,0.9135,0.9085,0.0,0.0,0.0,0.0,0.0,0.0,0.0,0.0,0.0,0.0,0.0,0.0,0.0,0.0,0.0,0.0,0.0,0.0,0.0,0.0,0.0,0.0,0.0,0.0,0.0,0.0,0.0,0.0,0.0,0.0,0.0,0.0,0.0,0.0,0.0,0.0,0.0,0.0,0.0,0.0,0.0,0.0,0.0,0.0,0.0,0.0,0.0,0.0,0.0,0.0,0.0,0.0,0.0,0.0,0.0,1.4726,1.6538,1.8386,1.9323,1.9271,1.891,1.8167,1.6956,1.5221,1.3794,0.0,0.0,0.0,0.0,0.0,0.0,0.0,0.0,0.0,0.0,0.0,0.0,0.0,0.0,0.0,0.0,0.0,0.0,0.0,0.0,0.0,0.0,0.0,0.0,0.0,0.0,0.0,0.0,0.0,0.0,0.0,0.0,0.0,0.0,0.0,0.0,0.0,0.0,0.0,0.0,0.0,0.0,1.2478,1.2178,0.0,0.0,0.0,1.093,1.0636,0.0,0.0,0.0,0.0,0.0,0.0,0.0,0.0,0.0,0.0,0.0,0.0,0.0,0.0,0.0,0.0,0.0,0.0,0.0,0.0,0.0,0.0,0.0,0.0,0.0,0.0,0.0,0.0,0.0,0.0,0.0,0.0,0.0,0.0,0.0,0.0,0.0,0.0,0.0,0.0,0.0,0.0,0.0,0.0,0.0,0.0,0.0,0.0,0.0,0.0,0.0,0.0,0.0,0.0,0.0,0.0,0.0,1.7296,1.9468,2.0483,2.031,1.9784,1.8847,1.7449,1.5542,0.0,0.0,0.0,0.0,0.0,0.0,0.0,0.0,0.0,0.0,0.0,0.0,0.0,0.0,0.0,0.0,0.0,0.0,0.0,0.0,0.0,0.0,0.0,0.0,0.0,0.0,0.0,0.7047,0.0,0.0,0.0,0.0,0.0,0.0,0.0,0.0,0.0,0.0,0.0,0.0,0.0,0.0,1.3594,1.3667,1.3442,1.3191,0.0,0.0,1.2435,1.1982,1.2057,1.1653,0.0,0.0,0.0,0.0,0.0,0.0,0.0,0.0,0.0,0.0,0.0,0.0,0.0,0.0,0.0,0.0,0.0,0.0,0.0,0.0,0.0,0.0,0.0,0.0,0.0,0.0,0.0,0.0,0.0,0.0,0.0,0.0,0.0,0.0,0.0,0.0,0.0,0.0,0.0,0.0,0.0,0.0,0.0,0.0,0.0,0.0,0.0,0.0,0.0,0.0,0.0,0.0,0.0,0.0,0.0,1.8182,2.0087,2.1113,2.1191,2.0423,1.953,1.8317,1.6368,1.4892,0.0,0.0,0.0,0.0,0.0,0.0,0.0,0.0,0.0,0.0,0.0,0.0,0.0,0.0,0.0,0.0,0.0,0.0,0.0,0.0,0.0,0.0,0.0,0.0,0.0,0.0,0.0,0.0,0.0,0.0,0.0,0.0,0.0,0.0,0.0,0.0,0.0,0.0,0.0,0.0,0.0,1.3263,1.405,1.3818,1.3642,0.0,0.0,1.3117,1.2999,1.2831,1.2159,1.0509,0.0,0.0,0.0,0.0,0.0,0.0,0.0,0.0,0.0,0.0,0.0,0.0,0.0,0.0,0.0,0.0,0.0,0.0,0.0,0.0,0.0,0.0,0.0,0.0,0.0,0.0,0.0,0.0,0.0,0.0,0.0,0.0,0.0,0.0,0.0,0.0,0.0,0.0,0.0,0.0,0.0,0.0,0.0,0.0,0.0,0.0,0.0,0.0,0.0,0.0,0.0,0.0,0.0,1.7136,1.8795,2.1061,2.2209,2.2155,2.1619,2.0813,1.9862,1.8093,1.6676,0.0,0.0,0.0,0.0,0.0,0.0,0.0,0.0,0.0,0.0,0.0,0.0,0.0,0.0,0.0,0.0,0.0,0.0,0.0,0.0,0.0,0.0,0.0,0.0,0.0,0.0,0.0,0.0,0.8844,0.8844,0.8985,0.0,0.0,0.0,0.0,0.0,0.0,0.0,0.0,0.0,0.0,1.3458,1.4548,1.4719,0.0,0.0,1.4527,1.4172,1.378,1.3349,1.2616,1.1377,1.0237,0.0,0.0,0.0,0.0,0.0,0.0,0.0,0.0,0.0,0.0,0.0,0.0,0.0,0.0,0.0,0.0,0.0,0.0,0.0,0.0,0.0,0.0,0.0,0.0,0.0,0.0,0.0,0.0,0.0,0.0,0.0,0.0,0.0,0.0,0.0,0.0,0.0,0.0,0.0,0.0,0.0,0.0,0.0,0.0,0.0,0.0,0.0,0.0,0.0,0.0,0.0,0.0,1.7816,1.9091,2.1472,2.2661,2.2455,2.2166,2.1602,2.0741,1.9374,1.8105,0.0,0.0,0.0,0.0,0.0,0.0,0.0,0.0,0.0,0.0,0.0,0.0,0.0,0.0,0.0,0.0,0.0,0.0,0.0,0.0,0.0,0.0,0.0,0.0,0.0,0.0,0.0,0.0,0.9692,0.9394,0.9081,0.0,0.0,0.0,0.0,0.0,0.0,0.0,0.0,0.0,0.0,1.4104,1.5071,1.5521,1.5668,1.5584,1.5286,1.4909,1.441,1.3762,1.3015,1.208,0.0,0.0,0.0,0.0,0.0,0.0,0.0,0.0,0.0,0.0,0.0,0.0,0.0,0.0,0.0,0.0,0.0,0.0,0.0,0.0,0.0,0.0,0.0,0.0,0.0,0.0,0.0,1.8076,0.0,0.0,1.5915,0.0,0.0,0.0,0.0,0.0,0.0,0.0,0.0,0.0,0.0,0.0,0.0,0.0,0.0,0.0,0.0,0.0,0.0,0.0,0.0,0.0,0.0,1.7923,1.902,2.1204,2.219,2.1932,2.1775,2.1445,2.084,1.9941,1.8993,1.7979,0.0,0.0,0.0,0.0,0.0,0.0,0.0,0.0,0.0,0.0,0.0,0.0,0.0,0.0,0.0,0.0,0.0,0.0,0.0,0.0,0.0,0.0,0.0,0.0,0.0,0.0,1.1487,1.1012,1.0246,0.0,0.0,0.0,0.0,0.0,0.0,0.0,0.0,0.0,0.0,1.4152,1.5186,1.5746,1.6126,1.63,1.6034,1.5551,1.5123,1.4886,1.4169,1.3313,0.0,0.0,0.0,0.0,0.0,0.0,0.0,0.0,0.0,0.0,0.0,0.0,0.0,0.0,0.0,0.0,0.0,0.0,0.0,0.0,0.0,0.0,0.0,0.0,0.0,0.0,0.0,2.1098,2.0831,0.0,0.0,0.0,0.0,0.0,0.0,0.0,0.0,0.0,0.0,0.0,2.1987,2.2646,0.0,0.0,0.0,0.0,0.0,0.0,0.0,0.0,0.0,0.0,0.0,0.0,1.8295,1.9215,2.0759,2.1665,2.1838,2.2049,2.2052,2.187,2.1299,2.0072,1.814,0.0,0.0,0.0,0.0,0.0,0.0,0.0,0.0,0.0,0.0,0.0,0.0,0.0,0.0,0.0,0.0,0.0,0.0,0.0,0.0,0.0,0.0,0.0,0.0,0.0,1.1491,0.0,0.0,0.0,0.0,0.0,0.0,0.0,0.0,0.0,0.0,0.0,1.3493,1.4708,1.5685,1.6493,1.7036,1.738,1.74,0.0,0.0,0.0,0.0,0.0,0.0,0.0,0.0,0.0,0.0,0.0,0.0,0.0,0.0,1.1112,1.0289,0.9677,0.9082,0.8424,0.0,0.0,0.0,0.0,0.0,0.0,0.0,0.0,0.0,0.0,0.0,0.0,0.0,0.0,2.3298,0.0,2.256,0.0,0.0,0.0,0.0,0.0,0.0,0.0,0.0,2.4391,2.468,2.4439,2.5038,2.5004,0.0,2.4357,2.3403,0.0,0.0,0.0,0.0,0.0,0.0,0.0,0.0,1.8854,1.9583,2.0778,2.1486,2.1578,2.2165,2.2331,2.2179,2.1635,2.0539,1.8787,1.7678,1.6797,0.0,0.0,0.0,0.0,0.0,0.0,0.0,0.0,0.0,0.0,0.0,0.0,0.0,0.0,0.0,0.0,0.0,0.0,0.0,0.0,0.0,0.0,0.0,1.2269,0.0,0.0,0.0,0.0,0.0,0.0,0.0,0.0,0.0,1.3168,1.4047,1.5137,1.6291,1.7064,1.7672,1.8051,0.0,0.0,0.0,0.0,0.0,0.0,0.0,1.3832,1.3754,1.3212,1.2681,1.2352,1.2234,1.2245,1.2432,0.0,0.0,1.1831,1.1258,1.0686,0.9946,0.9471,0.9046,0.8571,0.8551,0.8636,0.0,0.0,0.0,0.0,0.0,0.0,0.0,0.0,2.514,2.5216,0.0,2.4874,0.0,0.0,0.0,0.0,0.0,2.342,0.0,0.0,2.6812,2.7462,2.8242,2.7378,2.7462,2.8354,2.7316,2.6387,2.5318,2.1572,0.0,0.0,0.0,0.0,0.0,0.0,1.9593,2.0102,2.1282,2.1662,2.134,2.2114,2.235,2.1887,2.1065,2.0438,2.0062,1.8797,1.7923,1.7579,1.6344,0.0,0.0,0.0,0.0,0.0,0.0,0.0,0.0,0.0,0.0,0.0,0.0,0.0,0.0,0.0,0.0,0.0,0.0,0.0,0.0,1.4071,0.0,0.0,0.0,0.0,0.0,0.0,0.0,0.0,0.0,0.0,1.4628,1.571,1.6795,1.7564,0.0,0.0,0.0,0.0,1.8968,1.8178,1.7715,1.7237,1.6591,1.5848,1.5258,1.5057,0.0,0.0,1.3495,1.3346,1.3274,1.3054,1.34,1.3618,1.3234,1.2978,1.258,1.1526,1.1158,1.0983,1.0645,1.0434,1.0523,2.9187,0.0,0.0,0.0,0.0,2.5984,2.6577,2.7656,2.7862,2.7933,2.7858,2.7043,0.0,0.0,0.0,0.0,0.0,0.0,2.5339,2.6125,2.7048,2.7426,2.7366,2.781,2.7798,2.7354,2.7414,2.6714,2.523,2.3838,2.2195,2.0444,0.0,0.0,0.0,0.0,2.0825,2.1647,2.2317,2.2624,2.2497,2.3012,2.3216,2.3089,2.2209,2.1697,2.1647,2.0466,1.9672,1.9284,1.8407,0.0,0.0,0.0,0.0,0.0,0.0,0.0,0.0,0.0,0.0,0.0,0.0,0.0,0.0,0.0,0.0,0.0,0.0,0.0,1.4264,1.463,1.4525,0.0,0.0,0.0,0.0,0.0,0.0,0.0,0.0,0.0,1.7665,1.8387,1.8964,0.0,0.0,2.0402,2.0097,2.0154,1.9986,1.9429,1.9015,0.0,1.8126,1.7027,1.6276,1.6394,1.5763,1.5034,1.4545,1.4241,1.3957,1.3639,1.37,1.3679,1.3349,1.3214,1.2962,1.2353,1.2072,1.1879,1.1629,1.155,1.1567,3.2684,3.0258,2.8574,2.848,2.9347,2.9118,2.9546,3.0405,3.035,3.0307,3.0172,2.9419,2.8438,2.7284,2.6443,0.0,0.0,0.0,2.6788,2.7129,2.7922,2.8094,2.7839,2.8445,2.8421,2.7815,2.79,2.7413,2.6323,2.5529,2.4625,2.3557,0.0,0.0,2.1741,2.1695,2.2048,2.28,2.3073,2.3228,2.3239,2.3462,2.3578,2.3534,2.2658,2.2275,2.2477,2.127,2.0687,2.0809,1.9834,1.8605,0.0,0.0,0.0,0.0,0.0,0.0,0.0,0.0,0.0,0.0,0.0,1.2163,1.2025,0.0,0.0,0.0,1.4301,1.4666,1.483,1.5206,0.0,0.0,0.0,0.0,0.0,0.0,0.0,1.702,1.8,1.8925,1.9828,2.0346,2.0584,2.0439,2.0869,2.1093,2.0869,0.0,2.0489,2.0098,1.9745,1.9371,1.8975,1.8179,1.7549,1.7415,1.6616,1.5904,1.5474,1.5057,1.4606,1.4169,1.3974,1.3839,1.3565,1.3592,1.3547,1.3068,1.2941,1.2924,1.2851,1.2842,1.2836,3.5593,3.5021,3.2463,3.1852,3.2456,3.1939,3.2025,3.2505,3.2518,3.221,3.1718,3.1693,3.0794,2.9283,2.8248,0.0,2.8442,2.8481,2.8727,2.9131,2.9207,2.9207,2.9104,2.9104,2.9104,2.9067,2.8588,2.8306,2.8122,2.6722,2.6254,2.6563,2.3886,2.2729,2.3136,2.3113,2.3304,2.3776,2.3813,2.3776,2.3776,2.3776,2.3765,2.3706,2.2804,2.2568,2.2904,2.1654,2.1326,2.2094,2.0875,1.9697,1.8765,0.0,0.0,0.0,0.0,0.0,0.0,0.0,0.0,0.0,0.0,0.0,0.0,0.0,0.0,0.0,1.5998,0.0,1.5563,1.6039,0.0,0.0,0.0,1.5792,1.6254,1.7147,1.8108,1.9004,0.0,0.0,2.1155,2.1538,2.165,2.1311,2.123,2.1221,2.1231,2.0889,2.0557,2.0353,2.0148,1.9893,1.9494,1.9173,1.8795,1.8118,1.7441,1.6855,1.6358,1.5827,1.525,1.4645,1.4333,1.4091,1.3895,1.412,1.4167,1.367,1.3756,1.3926,1.3981,1.3993,1.3937,3.8041,3.7804,3.6363,3.4919,3.3576,3.3047,3.3121,3.3613,3.3625,3.333,3.2781,3.2407,3.1533,3.0392,2.9724,2.949,2.9576,2.9613,2.9453,2.9194,2.9613,2.9536,2.9116,2.9104,2.9104,2.9091,2.8956,2.8478,2.7692,2.7287,2.6783,2.6072,2.5354,2.5081,2.5154,2.4781,2.4829,2.5324,2.5371,2.5371,2.5371,2.5371,2.5324,2.5312,2.4733,2.4444,2.453,2.3818,2.3336,2.3168,2.2433,2.156,2.0523,1.9477,0.0,0.0,0.0,0.0,0.0,0.0,0.0,0.0,0.0,1.4139,1.4824,0.0,1.6038,0.0,1.7401,1.7956,1.8078,1.8644,0.0,0.0,1.7424,1.7552,1.7951,1.8092,1.869,2.0062,2.043,2.077,2.1155,2.1548,2.1779,2.165,2.166,2.1541,2.1261,2.1131,2.0921,2.0576,2.0678,2.0719,2.027,2.0068,1.958,1.8619,1.8321,1.8027,1.7324,1.6862,1.6315,1.5543,1.5088,1.4762,1.4426,1.442,1.4457,1.4354,1.4296,1.4232,1.411,1.4082,1.4082,3.8919,3.8818,3.77,3.6503,3.5382,3.4848,3.4785,3.5034,3.4798,3.4491,3.4181,3.3419,3.2475,3.1431,3.1092,3.086,3.0636,3.0872,3.0574,2.9866,3.0388,3.0186,2.9429,2.9417,2.9429,2.9417,2.9417,2.897,2.8126,2.7891,2.7357,2.6514,2.6278,2.6154,2.6141,2.5719,2.5615,2.591,2.5923,2.5923,2.5923,2.5923,2.5677,2.521,2.5136,2.4878,2.4398,2.4103,2.3796,2.3489,2.2973,2.2309,2.1502,2.0545,1.9509,0.0,0.0,0.0,0.0,0.0,0.0,0.0,0.0,0.0,0.0,0.0,1.834,1.8997,1.9324,1.961,1.9933,2.0107,1.9919,1.9103,1.8844,1.8752,1.8811,1.8812,1.9238,2.0295,2.0653,2.0975,2.1403,2.1639,2.1791,2.1791,2.1791,2.1742,2.1467,2.1146,2.0775,2.0554,2.0705,2.0795,2.0402,1.9949,1.9476,1.9004,1.8713,1.8425,1.8097,1.7686,1.7165,1.6421,1.5942,1.5591,1.531,1.5183,1.513,1.5065,1.4946,1.4712,1.4282,1.4179,1.4152,3.902,3.8881,3.7764,3.7287,3.7236,3.6669,3.6417,3.638,3.5855,3.552,3.5332,3.4349,3.3319,3.234,3.224,3.1989,3.1637,3.2026,3.1675,3.0771,3.1185,3.0821,2.9804,2.9779,2.9779,2.9779,2.9779,2.9465,2.8775,2.8335,2.7795,2.7216,2.6738,2.6487,2.6487,2.6154,2.5968,2.5968,2.598,2.598,2.5968,2.5968,2.5487,2.4538,2.4994,2.4735,2.3614,2.3626,2.3589,2.3441,2.2997,2.2522,2.1992,2.144,2.0585,0.0,1.8683,0.0,0.0,0.0,0.0,0.0,0.0,0.0,0.0,1.9853,2.0619,2.1632,2.1318,2.1147,2.1371,2.1158,2.0848,2.0456,2.0117,1.9787,1.9519,1.9551,1.9825,2.0375,2.0839,2.1327,2.1773,2.1797,2.1769,2.18,2.1772,2.1771,2.1715,2.1201,2.0737,2.0588,2.0518,2.0478,2.0272,1.9657,1.9207,1.9288,1.9102,1.873,1.8808,1.8443,1.7939,1.7328,1.6881,1.6569,1.6436,1.6261,1.6036,1.5857,1.5636,1.5216,1.4506,1.4314,1.4181,3.9534,3.9433,3.8329,3.7852,3.7776,3.6832,3.6417,3.6405,3.6292,3.5705,3.4806,3.4186,3.3533,3.2893,3.2416,3.2416,3.2729,3.2365,3.1863,3.1235,3.1348,3.0821,2.9829,2.9779,2.9779,2.9779,2.9779,2.9264,2.826,2.816,2.7595,2.6663,2.6549,2.6487,2.6487,0.0,0.0,0.0,2.6396,2.6396,2.6396,2.6383,2.6036,2.5386,2.5899,0.0,2.4023,2.4335,2.4148,2.323,2.308,0.0,0.0,0.0,0.0,0.0,0.0,0.0,0.0,0.0,0.0,0.0,2.126,2.1316,2.1644,2.2348,2.28,2.2863,2.2654,2.2456,2.2347,2.2915,2.2959,2.2196,2.1879,2.1618,2.1321,2.0728,2.0615,2.1466,2.1549,2.1623,2.1941,2.1911,2.1807,2.1807,2.1807,2.18,2.1778,2.1624,2.1405,2.1028,2.0642,2.0493,2.0646,2.0183,1.9707,1.9815,2.0039,1.9882,1.9492,1.9377,1.9042,1.8415,1.7956,1.7692,1.7658,1.7372,1.6968,1.6609,1.6229,1.5602,1.4552,1.4326,1.4195,3.9697,0.0,3.8479,3.8002,0.0,3.687,3.6417,3.6417,3.6417,3.5789,3.4713,3.4424,3.3847,3.3043,3.2466,3.2365,3.2616,3.2064,3.1512,3.1022,3.1009,3.0583,2.9779,2.9779,2.9779,2.9779,2.9779,2.9352,2.8524,2.8235,2.7682,2.6901,2.6637,2.6487,2.6487,2.6487,2.6487,2.6487,2.6487,2.6487,2.6487,2.6487,2.6063,2.5272,2.5783,0.0,0.0,0.0,0.0,0.0,0.0,0.0,0.0,0.0,0.0,2.0553,2.0186,2.0081,2.0271,2.06,2.1163,2.2039,2.2937,2.3238,2.2751,2.3053,2.3387,2.3566,2.3231,2.3186,2.3648,2.3855,2.3803,2.348,2.3191,2.2888,2.2559,2.2004,2.1841,2.2224,2.2125,2.2017,2.2226,2.1997,2.1807,2.1807,2.1807,2.1807,2.1776,2.16,2.1362,2.1124,2.0514,2.0205,2.0375,1.991,1.9534,1.9571,1.9928,2.0015,1.9664,1.9899,1.987,1.9125,1.8861,1.8758,1.8634,1.8247,1.7732,1.7155,1.6632,1.5924,1.4837,1.4495,1.4288,3.9697,3.9584,3.8479,3.8002,3.7927,3.6822,3.6405,3.6452,0.0,0.0,0.0,3.4816,3.4243,3.3172,3.2693,3.2491,3.2412,3.2012,3.1511,3.0931,3.0918,3.0604,3.0036,3.0011,2.9985,2.9946,2.9946,2.9554,2.8963,2.8461,2.7921,2.7293,2.6864,2.6587,2.6499,2.6487,2.6487,2.6487,2.6487,2.6487,2.6487,2.6487,2.5971,2.4825,2.5322,2.5046,2.3904,2.4381,2.4637,2.4625,2.3747,2.3208,2.307,2.1933,2.1302,2.13,2.1001,2.0946,2.1292,2.1811,2.2234,2.2434,2.3798,2.4336,2.3572,2.3634,2.3879,2.4255,2.381,2.3898,2.4713,2.4519,2.4329,2.446,2.4221,2.3902,2.3601,2.3226,2.2982,2.3013,2.2735,2.2528,2.2553,2.2214,2.1873,2.1835,2.1807,2.1807,2.1766,2.1518,2.1321,2.1228,2.0669,2.0147,2.0078,1.9622,1.91,1.9377,1.9652,1.9823,1.9833,2.0145,2.0214,1.9697,1.963,1.957,1.9429,1.8855,1.8184,1.7449,1.6766,1.5967,1.5065,1.4611,1.4311,3.9697,3.9597,3.8479,3.8002,3.7927,3.6883,3.6499,3.6675,3.6675,3.6146,3.5309,3.5309,3.4671,3.3628,3.3551,3.3483,3.35,3.3436,3.2931,3.217,3.2144,3.1668,3.0862,3.0836,3.0723,3.0584,3.0406,2.9922,2.9213,2.8912,2.831,2.7442,2.7241,2.6964,2.6524,2.6487,2.6487,2.6487,2.6487,2.6487,2.6487,2.6487,2.5937,2.4921,2.5322,2.4858,2.3308,2.3816,2.4117,2.4104,2.3966,2.3653,2.3145,2.3308,2.2924,2.1628,2.1829,2.2063,2.211,2.2243,2.2706,2.3634,2.3979,2.4418,2.5197,2.5745,2.5824,2.5435,2.5197,2.5121,2.4908,2.5134,2.5248,2.5186,2.5019,2.4851,2.4672,2.4116,2.3776,2.3874,2.3467,2.3247,2.3161,2.2654,2.2252,2.2063,2.1921,2.1807,2.1797,2.1756,2.1714,2.1652,2.1269,2.0824,2.038,1.9972,1.9641,1.9713,1.9741,1.9842,1.9931,2.0143,2.0256,2.0369,2.0014,1.991,1.994,1.9127,1.8149,1.7239,1.6439,1.5623,1.4842,1.4388,1.4093,4.0044,3.9841,3.9014,3.8653,3.8564,3.757,3.7374,3.7743,3.7867,3.7168,3.603,3.6301,3.5814,3.4718,3.4415,3.4283,3.4257,3.3993,3.3436,3.2758,3.2833,3.2455,3.1776,3.1819,3.1723,3.1455,3.1158,3.0704,3.0159,2.9527,2.8971,2.8488,2.7916,2.7319,2.6811,2.6786,2.6786,2.6773,2.6602,2.6487,2.6487,2.6487,2.5971,2.4825,2.5071,2.4707,2.3622,2.3866,2.413,2.4431,2.3866,2.3384,2.312,2.2824,2.2422,2.1983,2.2171,2.2435,2.2719,2.302,2.369,2.4757,2.4858,2.5197,2.6,2.5762,2.546,2.5197,2.5172,2.5197,2.5222,2.546,2.5691,2.5915,2.5893,2.5825,2.5757,2.5503,2.5212,2.5019,2.4671,2.4271,2.3827,2.3198,2.259,2.2289,2.2035,2.1807,2.1807,2.1807,2.1807,2.1745,2.1207,2.0674,2.0385,1.982,1.9482,1.9419,1.9637,1.9672,1.9602,1.9747,2.0032,1.9883,1.9827,1.9849,1.9902,1.9176,1.8258,1.7393,1.6611,1.5904,1.5265,1.466,1.4194,4.0542,4.0312,3.9654,3.9307,3.9218,3.8556,3.8535,3.8953,3.9295,3.8559,3.7315,3.7433,3.6879,3.5762,3.5298,3.5133,3.5065,3.4694,3.4251,3.3741,3.3688,3.3399,3.2878,3.2903,3.2692,3.2376,3.1942,3.1566,3.1182,3.0368,2.9783,2.951,2.8579,2.7782,2.7126,2.7092,2.7058,2.699,2.682,2.6658,2.6602,2.6602,2.6072,2.5005,2.4904,2.4589,2.3959,2.3896,2.4161,2.4639,2.3852,2.3387,2.3349,2.2598,2.227,2.2589,2.2585,2.2825,2.3379,2.3851,2.4583,2.5643,2.5744,2.5984,2.6451,2.582,2.525,2.5197,2.5272,2.5398,2.5711,2.5799,2.6009,2.6436,2.6487,2.6427,2.6487,2.6487,2.6361,2.6015,2.5641,2.517,2.4467,2.374,2.3075,2.2478,2.2063,2.1883,2.1807,2.1807,2.1787,2.1538,2.1031,2.0524,2.0317,1.9772,1.9305,1.916,1.9388,1.9434,1.9278,1.9674,1.991,1.9672,1.9662,1.9747,1.9573,1.9023,1.8288,1.7451,1.682,1.6287,1.556,1.4928,1.4333,4.1196,4.0963,4.0197,3.9687,3.952,3.9634,3.9812,4.0131,4.076,4.0457,3.928,3.8435,3.7427,3.6351,3.6225,3.621,3.6184,3.6103,3.5978,3.5723,3.5204,3.4798,3.4505,3.3964,3.352,3.3185,3.2797,3.2403,3.2019,3.1559,3.0794,2.9799,2.8984,2.8234,2.7555,2.7335,2.718,2.7024,2.7134,2.7134,2.699,2.6956,2.6406,2.5301,2.5243,2.4732,2.3773,2.3633,2.3884,2.4364,2.4343,2.4249,2.4254,2.4165,2.3922,2.3475,2.3479,2.3752,2.429,2.4423,2.4981,2.5992,2.6138,2.6368,2.6879,2.6841,2.6642,2.6388,2.6311,2.6332,2.6411,2.642,2.642,2.653,2.6533,2.6487,2.6487,2.6487,2.6396,2.6213,2.598,2.5606,2.5028,2.4394,2.3604,2.259,2.2214,2.1997,2.1845,2.1807,2.16,2.13,2.1005,2.0669,2.0104,1.9824,1.9482,1.9181,1.9129,1.9261,1.9465,1.9631,1.9848,1.9815,1.986,1.9657,1.9392,1.8903,1.8105,1.7462,1.6882,1.6334,1.549,1.4977,1.4524,4.1678,4.1316,4.0889,4.0639,4.0589,4.0689,4.0873,4.1127,4.1519,4.1102,4.0176,3.9798,3.8974,3.7796,3.7767,3.7767,3.7782,3.7782,3.7526,3.7178,3.6968,3.6443,3.5663,3.5507,3.5,3.4264,3.3831,3.3471,3.3101,3.2698,3.1922,3.0828,3.0255,2.9382,2.8185,2.7888,2.7616,2.7302,2.7616,2.7802,2.7822,2.749,2.6926,2.6181,2.5805,2.5216,2.4438,2.4062,2.4014,2.4205,2.4154,2.4034,2.3944,2.3901,2.3829,2.3637,2.3949,2.4556,2.5454,2.5505,2.5819,2.664,2.6678,2.6793,2.6952,2.7024,2.6943,2.6807,2.682,2.6807,2.6773,2.682,2.6807,2.6773,2.6692,2.6624,2.6624,2.6568,2.6452,2.6361,2.6292,2.6072,2.5548,2.4766,2.3861,2.2927,2.2505,2.2214,2.1883,2.1807,2.1439,2.0897,2.07,2.0452,1.9896,1.9533,1.9336,1.917,1.9098,1.9222,1.9336,1.9388,1.9461,1.9668,1.9544,1.9338,1.9094,1.8788,1.8192,1.7604,1.7054,1.6577,1.5956,1.5728,1.5376,4.2549,4.2203,4.2048,4.191,4.1769,4.1852,4.1949,4.2143,4.2307,4.1722,4.0724,4.0873,4.0224,3.9062,3.887,3.8782,3.8782,3.8782,3.8597,3.8242,3.8172,3.753,3.6607,3.647,3.5952,3.509,3.4624,3.4259,3.3968,3.3693,3.3002,3.2047,3.1452,3.0507,2.9177,2.8663,2.8197,2.7868,2.8164,2.8522,2.8675,2.8333,2.7727,2.7008,2.6554,2.5972,2.5189,2.477,2.4522,2.4334,2.4144,2.3966,2.3747,2.3747,2.3811,2.3991,2.4382,2.5148,2.6252,2.6342,2.6574,2.7069,2.7146,2.7146,2.7146,2.7146,2.7146,2.7146,2.7146,2.7113,2.7024,2.7024,2.7024,2.6977,2.6829,2.6692,2.6692,2.6589,2.6487,2.6487,2.6452,2.6349,2.5863,2.504,2.4189,2.3482,2.3001,2.259,2.2252,2.2117,2.1844,2.103,2.082,2.0358,1.9765,1.9378,1.9129,1.9098,1.9108,1.915,1.9202,1.9233,1.9253,1.9575,1.9274,1.9096,1.9068,1.8782,1.8539,1.812,1.768,1.7272,1.704,1.6884,1.654,4.3975,4.3836,4.3853,4.3386,4.2955,4.3076,4.317,4.313,4.321,4.2518,4.1398,4.1346,4.0629,3.9331,3.8936,3.8804,3.8819,3.8819,3.8877,3.892,3.84,3.7838,3.7325,3.6776,3.6033,3.5225,3.4953,3.4735,3.4414,3.4366,3.4047,3.338,3.246,3.1492,3.0463,2.9549,2.8876,2.8619,2.8876,2.9226,2.9509,2.9509,2.8889,2.7884,2.7623,2.7009,2.6004,2.5801,2.5587,2.5017,2.4746,2.4416,2.4154,2.4122,2.4344,2.4883,2.4988,2.5511,2.653,2.6694,2.6915,2.7352,2.7436,2.7456,2.7436,2.7436,2.7436,2.7469,2.7475,2.74,2.7079,2.7058,2.7058,2.7024,2.6875,2.676,2.6726,2.6624,2.6521,2.6533,2.6521,2.6349,2.598,2.5382,2.4778,2.425,2.3813,2.3409,2.3027,2.2964,2.2702,2.2219,2.1588,2.0794,1.9546,1.9183,1.9162,1.9098,1.9129,1.9212,1.9388,1.9502,1.9513,1.9471,1.9264,1.9139,1.9085,1.9008,1.8875,1.8644,1.8537,1.8265,1.7726,1.8015,1.7623,4.3426,4.3202,4.3301,4.3284,4.321,4.325,4.3305,4.3305,4.3305,4.2596,4.1572,4.1422,4.0651,3.9358,3.8803,3.8775,3.9162,3.9177,3.9228,3.9286,3.9047,3.8411,3.7415,3.7165,3.6473,3.5511,3.5311,3.5228,3.5129,3.5096,3.4789,3.4147,3.358,3.2571,3.1329,3.0597,2.994,2.9275,2.9515,2.9825,3.0146,3.0235,2.9984,2.9501,2.8738,2.8105,2.7603,2.7301,2.7024,2.6787,2.6469,2.5984,2.5338,2.5034,2.5321,2.6072,2.6154,2.6431,2.7092,2.7223,2.7301,2.7464,2.7503,2.7503,2.7503,2.7503,2.7503,2.7555,2.7902,2.7827,2.7447,2.7302,2.7302,2.7302,2.7167,2.7066,2.7066,2.6943,2.6807,2.6807,2.6705,2.6521,2.6245,2.5851,2.5418,2.4957,2.4563,2.4143,2.3804,2.3694,2.3562,2.3086,2.2581,2.1844,2.0473,1.9598,1.9208,1.9131,1.9119,1.915,1.9274,1.9295,1.9285,1.9378,1.9222,1.9129,1.9098,1.9008,1.8942,1.8882,1.8801,1.87,1.8198,1.8378,1.7943,4.3035,4.2634,4.25,4.2703,4.3,4.3015,4.3095,4.3245,4.3105,4.2402,4.1527,4.116,4.0442,3.9424,3.8706,3.8616,3.905,3.908,3.908,3.911,3.932,3.8671,3.7584,3.7404,3.6731,3.5669,3.5489,3.5489,3.5489,3.5489,3.525,3.4814,3.4352,3.337,3.2119,3.1521,3.0793,3.0093,3.0117,3.0404,3.0644,3.0703,3.0717,3.057,2.988,2.9296,2.8903,2.8551,2.8296,2.8096,2.7778,2.7232,2.6435,2.5835,2.5965,2.6829,2.6776,2.6935,2.7398,2.7503,2.749,2.7503,2.7503,2.7503,2.7503,2.7503,2.7568,2.7824,2.8111,2.8229,2.8177,2.8077,2.7941,2.7607,2.7403,2.7302,2.7302,2.71,2.6977,2.6875,2.676,2.6658,2.6499,2.6188,2.5863,2.5535,2.5194,2.4862,2.46,2.4469,2.4387,2.4026,2.3594,2.29,2.1922,2.108,1.9748,1.9465,1.9266,1.9212,1.9285,1.9243,1.9212,1.9264,1.9222,1.9139,1.9075,1.8985,1.8962,1.8916,1.8985,1.8968,1.873,1.8658,1.8345,4.2916,4.2357,4.1707,4.1848,4.2351,4.2396,4.2701,4.303,4.2635,4.1976,4.122,4.0711,4.0113,3.9379,3.8616,3.8362,3.8377,3.8317,3.8332,3.8437,3.905,3.8616,3.7375,3.7375,3.6746,3.5549,3.5489,3.5489,3.5489,3.5489,3.5459,3.5307,3.4671,3.3858,3.2961,3.2201,3.1464,3.0803,3.0717,3.0866,3.0999,3.1058,3.1073,3.0999,3.094,3.0514,2.9624,2.9566,2.9348,2.884,2.8555,2.801,2.7412,2.6558,2.635,2.7121,2.7003,2.7053,2.7478,2.757,2.757,2.7536,2.7503,2.7503,2.7503,2.7503,2.7732,2.819,2.8446,2.8595,2.91,2.917,2.8765,2.7738,2.7507,2.7439,2.7281,2.7146,2.6943,2.6829,2.6782,2.6645,2.6533,2.6361,2.6119,2.5945,2.5711,2.5558,2.537,2.53,2.5288,2.5109,2.4648,2.3932,2.3283,2.2568,2.1011,1.9799,1.9554,1.9443,1.9627,1.9668,1.9564,1.9554,1.9233,1.915,1.9326,1.9269,1.931,1.9328,1.9322,1.9377,1.9349,1.9268,1.9124,4.2575,4.2336,4.1692,4.1527,4.1722,4.1722,4.1818,4.1983,4.1796,4.1324,4.0741,4.0487,4.0001,3.9209,3.8242,3.7719,3.7674,3.73,3.73,3.7778,3.8407,3.8063,3.7105,3.721,3.6731,3.5684,3.5489,3.5489,3.5489,3.5489,3.5489,3.5412,3.523,3.4482,3.339,3.3062,3.2436,3.1353,3.1263,3.1322,3.1351,3.1366,3.1366,3.1351,3.1366,3.1174,3.0894,3.0719,3.0529,3.0279,3.0119,2.9795,2.9174,2.8274,2.8011,2.8388,2.8206,2.7988,2.8019,2.7967,2.7835,2.7736,2.759,2.7503,2.7503,2.7503,2.7764,2.8347,2.8773,2.9118,2.9287,2.9653,2.934,2.8229,2.8077,2.7887,2.754,2.7382,2.7281,2.7134,2.71,2.6998,2.6726,2.6555,2.6452,2.6314,2.6211,2.6129,2.6094,2.6037,2.6129,2.6057,2.5524,2.4938,2.4258,2.3549,2.2419,2.1038,2.0432,1.9841,1.9958,1.9996,1.9903,1.9668,1.9347,1.9274,1.945,1.9554,1.9585,1.9775,1.9903,1.9935,1.992,1.9798,1.9595,4.2036,4.1931,4.1025,4.0801,4.101,4.101,4.116,4.1309,4.1115,4.0771,4.0427,4.0142,3.9813,3.9164,3.8003,3.7434,3.7315,3.6537,3.6462,3.715,3.8033,3.7898,3.718,3.703,3.6716,3.5968,3.5624,3.5504,3.5489,3.5489,3.5489,3.5489,3.5489,3.4966,3.3948,3.3829,3.3305,3.2377,3.2019,3.1854,3.1824,3.163,3.1496,3.1496,3.1496,3.1496,3.1511,3.1336,3.1234,3.1146,3.0881,3.0602,3.0362,2.9498,2.9096,2.9296,2.9121,2.8835,2.8624,2.8379,2.8164,2.7921,2.7656,2.749,2.7503,2.7503,2.7803,2.8669,2.9074,2.9493,2.9889,3.0202,2.998,2.9144,2.883,2.8477,2.7968,2.7607,2.7436,2.7302,2.7302,2.71,2.6829,2.6692,2.6645,2.6521,2.6487,2.6487,2.6487,2.6452,2.6487,2.6418,2.6092,2.5548,2.5133,2.4458,2.371,2.2572,2.1515,2.0751,2.0336,2.0265,2.0193,1.9772,1.9409,1.9378,1.9523,1.9668,1.9772,2.006,2.0416,2.0247,2.0175,2.0032,1.988,4.1437,4.1242,3.9993,3.9828,4.0322,4.0352,4.0636,4.104,4.0621,4.0322,4.0172,3.9702,3.9448,3.9089,3.8018,3.7404,3.718,3.6148,3.6043,3.6821,3.7719,3.8138,3.8063,3.721,3.6641,3.6342,3.5878,3.5594,3.5504,3.5489,3.5489,3.5489,3.5474,3.516,3.4533,3.4474,3.4084,3.3335,3.2826,3.2557,3.2407,3.1914,3.154,3.1511,3.1496,3.1496,3.1496,3.1467,3.1467,3.1392,3.0945,3.0787,3.0778,3.0105,2.9766,3.0027,2.9735,2.9453,2.9135,2.8817,2.8563,2.8363,2.8034,2.7648,2.7872,2.7977,2.8323,2.9254,2.9415,2.9797,3.062,3.0895,3.0634,3.0179,2.9549,2.8974,2.8525,2.7954,2.7665,2.7486,2.7354,2.7167,2.6863,2.6794,2.6692,2.6555,2.6521,2.6521,2.6487,2.6487,2.6487,2.6396,2.6292,2.6126,2.5662,2.5269,2.4555,2.3884,2.276,2.1869,2.0952,2.072,2.0565,2.0079,1.9741,1.9668,1.9772,2.0052,2.0321,2.0633,2.0715,2.0509,2.0478,2.0458,2.0339,4.1422,4.1272,3.9963,3.9478,3.9664,3.9664,3.9783,3.9918,3.9783,3.9723,3.9597,3.9499,3.9388,3.9239,3.8033,3.7404,3.7105,3.6088,3.6133,3.7075,3.7449,3.7958,3.8167,3.7584,3.6941,3.66,3.6312,3.5998,3.5534,3.5504,3.5504,3.5489,3.5489,3.516,3.4608,3.4548,3.4128,3.3589,3.3365,3.2991,3.2572,3.2348,3.1989,3.1525,3.1511,3.1496,3.1496,3.1496,3.1496,3.1496,3.1361,3.12,3.1175,3.0808,3.0573,3.0555,3.0418,3.019,2.9853,2.9481,2.9388,2.946,2.9091,2.9094,2.9386,2.9249,2.9543,2.9996,3.0,3.0228,3.0843,3.1039,3.0908,3.0686,3.0019,2.9327,2.9013,2.8529,2.815,2.809,2.7743,2.7413,2.7219,2.7113,2.6964,2.6714,2.6624,2.6602,2.6521,2.6487,2.6487,2.6487,2.6418,2.6396,2.622,2.5908,2.5452,2.498,2.4067,2.3094,2.2134,2.135,2.1115,2.0772,2.0441,2.0296,2.0545,2.0824,2.1083,2.1207,2.1269,2.117,2.1228,2.1211,2.0947,4.0965,4.0891,3.9858,3.9388,3.9388,3.9388,3.9388,3.9388,3.9388,3.9388,3.9388,3.9388,3.9388,3.9239,3.7983,3.7419,3.724,3.6088,3.6237,3.736,3.8033,3.8497,3.8616,3.8138,3.7614,3.7289,3.6716,3.6297,3.5923,3.5654,3.5504,3.5489,3.5489,3.5265,3.4981,3.4906,3.4726,3.4367,3.4083,3.3694,3.3365,3.2766,3.2333,3.1899,3.1705,3.1496,3.1496,3.1496,3.1496,3.1496,3.1496,3.1482,3.1409,3.1278,3.1176,3.1087,3.0984,3.0836,3.0493,3.016,3.0137,3.0269,3.0086,3.0121,3.0365,3.0402,3.0525,3.0834,3.0821,3.113,3.1561,3.1705,3.1692,3.164,3.0895,3.0163,2.9719,2.9118,2.8852,2.8634,2.8281,2.7821,2.7639,2.7457,2.7126,2.6816,2.6692,2.6624,2.6533,2.6521,2.6487,2.6487,2.6487,2.6452,2.6396,2.6154,2.591,2.5465,2.4778,2.3922,2.3003,2.2014,2.1642,2.1354,2.113,2.1031,2.1244,2.14,2.1466,2.16,2.1776,2.1787,2.1683,2.1621,2.1424,4.0412,4.0352,3.9657,3.9388,3.9388,3.9388,3.9388,3.9388,3.9388,3.9388,3.9388,3.9388,3.9388,3.9298,3.8033,3.7404,3.733,3.6073,3.6417,3.7419,3.8437,3.914,3.92,3.8766,3.8392,3.8093,3.7184,3.6686,3.6342,3.5863,3.5594,3.5534,3.5489,3.5489,3.537,3.5429,3.5489,3.528,3.4831,3.4503,3.4174,3.3395,3.2811,3.2333,3.178,3.1525,3.1496,3.1496,3.1496,3.1496,3.1496,3.1555,3.1585,3.1645,3.1706,3.181,3.1811,3.1664,3.1294,3.1082,3.0998,3.1295,3.1123,3.0998,3.1491,3.1729,3.182,3.2129,3.2021,3.2264,3.2515,3.2686,3.2581,3.2437,3.2045,3.1288,3.0466,2.9758,2.9366,2.9375,2.8865,2.846,2.8096,2.7708,2.7245,2.6897,2.676,2.6705,2.6602,2.6487,2.6487,2.6487,2.6487,2.6487,2.643,2.6339,2.6119,2.5793,2.5076,2.4238,2.346,2.2669,2.2199,2.1878,2.1882,2.1834,2.1853,2.1914,2.1939,2.1814,2.1835,2.1807,2.1787,2.1745,2.1611,4.0412,4.0337,3.9679,3.9388,3.9388,3.9388,3.9388,3.9388,3.9388,3.9388,3.9388,3.9388,3.9358,3.932,3.8018,3.7404,3.721,3.6207,3.6207,3.7389,3.8197,3.8931,3.9275,3.917,3.8901,3.8467,3.8167,3.7464,3.6701,3.6357,3.5998,3.5579,3.5519,3.5489,3.5489,3.5489,3.5489,3.5474,3.531,3.4981,3.4623,3.4219,3.3484,3.2662,3.1929,3.1585,3.1511,3.1496,3.1496,3.1496,3.1585,3.1839,3.2123,3.2213,3.2437,3.2826,3.2976,3.293,3.2777,3.2504,3.2627,3.2888,3.2825,3.3183,3.3866,3.3621,3.3695,3.3816,3.3726,3.3532,3.3329,3.3067,3.3001,3.2777,3.228,3.181,3.1354,3.0531,3.0019,2.9836,2.9444,2.8908,2.8469,2.8278,2.7768,2.7139,2.6875,2.6773,2.6658,2.6487,2.6487,2.6487,2.6487,2.6487,2.6452,2.6396,2.6258,2.605,2.5407,2.485,2.407,2.3471,2.3124,2.2863,2.2734,2.2698,2.2735,2.2401,2.2385,2.2153,2.1921,2.1845,2.1807,2.1807,2.1807,3.9933,3.9903,3.9559,3.9388,3.9388,3.9388,3.9388,3.9388,3.9388,3.9388,3.9298,3.911,3.8931,3.8826,3.7614,3.6971,3.6851,3.6357,3.6312,3.7105,3.7898,3.8586,3.8931,3.926,3.92,3.8841,3.8497,3.7943,3.7419,3.6776,3.6297,3.5953,3.5684,3.5504,3.5489,3.5489,3.5489,3.5489,3.5489,3.5295,3.5011,3.4638,3.4099,3.317,3.2632,3.2452,3.2482,3.2482,3.2437,3.2437,3.2407,3.2392,3.2482,3.2512,3.2856,3.3365,3.3499,3.3469,3.3362,3.3344,3.343,3.4046,3.4009,3.4515,3.5053,3.5174,3.5301,3.5456,3.5391,3.5123,3.4497,3.414,3.3846,3.3472,3.2986,3.2672,3.2437,3.1418,3.0529,3.0424,3.0019,2.964,2.9274,2.8882,2.8213,2.7554,2.7041,2.6914,2.6589,2.6487,2.6487,2.6487,2.6487,2.6487,2.6487,2.643,2.6361,2.6119,2.5805,2.543,2.4981,2.4514,2.4089,2.3926,2.372,2.3729,2.3688,2.3308,2.274,2.238,2.2101,2.1921,2.1807,2.1845,2.1845,3.9388,3.9388,3.9388,3.9388,3.9388,3.9388,3.9388,3.9388,3.9388,3.9388,3.929,3.8691,3.8482,3.8138,3.709,3.6492,3.6327,3.6327,3.6297,3.6735,3.7659,3.8227,3.8571,3.9065,3.9358,3.9298,3.8706,3.8317,3.7988,3.7285,3.6641,3.6402,3.5968,3.5669,3.5564,3.5489,3.5489,3.5489,3.5489,3.5489,3.5385,3.4968,3.4367,3.3769,3.3395,3.3305,3.329,3.3335,3.341,3.3499,3.3499,3.326,3.2991,3.2841,3.311,3.3799,3.3978,3.4023,3.4053,3.3962,3.4141,3.4653,3.4801,3.5207,3.5878,3.631,3.6534,3.6676,3.665,3.6272,3.5776,3.5143,3.4734,3.4339,3.3875,3.3639,3.3313,3.2163,3.1457,3.1235,3.0895,3.0453,2.998,2.951,2.8724,2.8005,2.7477,2.7033,2.6734,2.6559,2.6584,2.6499,2.6487,2.6487,2.6487,2.6524,2.6421,2.6292,2.605,2.5898,2.5711,2.5512,2.5135,2.4912,2.4791,2.4697,2.4389,2.3903,2.333,2.2708,2.2365,2.2289,2.2138,2.1949,2.1921,3.9388,3.9388,3.9388,3.9388,3.9388,3.9388,3.9388,3.9388,3.9358,3.9409,3.929,3.8676,3.8287,3.8003,3.7045,3.6222,3.5833,3.5789,3.6028,3.654,3.733,3.7853,3.8482,3.9095,3.9373,3.9194,3.8736,3.8392,3.8227,3.7644,3.6985,3.6582,3.6342,3.6073,3.5684,3.5489,3.5489,3.5489,3.5489,3.5489,3.5444,3.531,3.4966,3.4369,3.3948,3.3709,3.3619,3.3559,3.3499,3.3499,3.3514,3.3754,3.3978,3.4083,3.4412,3.4816,3.4981,3.4906,3.4936,3.5055,3.5175,3.5429,3.5714,3.6227,3.6793,3.7249,3.747,3.7477,3.708,3.6455,3.5777,3.5358,3.4908,3.4446,3.4005,3.3652,3.3483,3.2986,3.2372,3.2267,3.1836,3.1262,3.0712,3.0048,2.9288,2.864,2.8143,2.7562,2.7107,2.6902,2.6779,2.6656,2.6487,2.6487,2.6487,2.6537,2.6515,2.6465,2.6314,2.6314,2.6245,2.6314,2.6138,2.5672,2.5349,2.5158,2.4798,2.4434,2.3985,2.3482,2.3102,2.2729,2.259,2.244,2.2176,3.9388,3.9388,3.9388,3.9388,3.9388,3.9388,3.9388,3.9364,3.905,3.8886,3.8586,3.7898,3.7439,3.7184,3.6447,3.5774,3.5579,3.5504,3.5878,3.6507,3.712,3.7749,3.8407,3.9095,3.9328,3.9194,3.8751,3.8392,3.8317,3.7719,3.727,3.6985,3.6686,3.6312,3.5983,3.5669,3.5549,3.5504,3.5489,3.5489,3.5489,3.5489,3.5265,3.5011,3.4726,3.4547,3.4532,3.4532,3.4547,3.4562,3.4547,3.4726,3.4891,3.5026,3.5145,3.5429,3.5504,3.5489,3.5489,3.5489,3.5474,3.5549,3.6103,3.6712,3.7252,3.7708,3.8119,3.7962,3.7429,3.6547,3.5803,3.5358,3.4908,3.4496,3.4136,3.4018,3.394,3.3705,3.3443,3.3104,3.2319,3.1693,3.134,3.0637,2.9871,2.9278,2.8805,2.8222,2.7621,2.7411,2.7313,2.7223,2.7115,2.7014,2.6977,2.6914,2.6864,2.6751,2.6675,2.6663,2.6562,2.66,2.6446,2.6111,2.5863,2.5629,2.5407,2.5099,2.467,2.4238,2.3852,2.3486,2.3213,2.2964,2.2703,3.9388,3.9388,3.9388,3.9388,3.9388,3.9388,3.9388,3.9254,3.8691,3.8422,3.8212,3.7184,3.6567,3.6342,3.5908,3.5504,3.5489,3.5489,3.5804,3.6297,3.706,3.7719,3.8242,3.894,3.9388,3.9284,3.8736,3.8467,3.8497,3.7808,3.7539,3.7419,3.7,3.6567,3.6372,3.5998,3.5714,3.5519,3.5489,3.5489,3.5489,3.5489,3.5489,3.5489,3.5522,3.5479,3.5374,3.5359,3.5407,3.5389,3.5434,3.5509,3.5554,3.5569,3.5569,3.5537,3.5537,3.5504,3.5489,3.5489,3.5489,3.5519,3.6118,3.6746,3.7381,3.7942,3.8389,3.8109,3.7519,3.6744,3.6031,3.5467,3.5072,3.4688,3.4522,3.4468,3.4332,3.4201,3.4045,3.3509,3.2646,3.2189,3.1915,3.1693,3.1003,3.0418,2.9941,2.9241,2.863,2.8265,2.8094,2.7979,2.7846,2.7695,2.7595,2.7457,2.7404,2.7266,2.719,2.7153,2.6939,2.6763,2.6584,2.6499,2.6349,2.6129,2.5933,2.5735,2.5288,2.4874,2.4576,2.424,2.3925,2.3582,2.3261,3.9388,3.9388,3.9388,3.9388,3.9388,3.9388,3.9388,3.9298,3.8661,3.8392,3.8212,3.7075,3.6432,3.6267,3.5789,3.5519,3.5489,3.5504,3.5624,3.6013,3.6896,3.7509,3.7778,3.8835,3.9298,3.9313,3.8766,3.8811,3.8781,3.7988,3.7704,3.7883,3.7404,3.7045,3.6525,3.6193,3.6073,3.5609,3.5534,3.5519,3.5489,3.5489,3.5504,3.5554,3.5604,3.5671,3.5671,3.5671,3.5671,3.5703,3.5671,3.5671,3.5671,3.5703,3.5703,3.5653,3.5572,3.5489,3.5489,3.5489,3.5489,3.5609,3.6118,3.6746,3.75,3.8163,3.8546,3.8219,3.7596,3.7017,3.6403,3.5924,3.548,3.5113,3.4825,3.4618,3.4494,3.4384,3.4267,3.4071,3.33,3.2947,3.2646,3.2489,3.2241,3.1654,3.1043,3.0348,2.9688,2.9322,2.8805,2.866,2.8536,2.8386,2.816,2.8034,2.7846,2.772,2.7632,2.7557,2.7331,2.7128,2.6939,2.6816,2.6713,2.6666,2.6524,2.6241,2.5856,2.5523,2.53,2.4969,2.4647,2.4263,2.3934,3.9388,3.9388,3.9388,3.9388,3.9388,3.9388,3.9388,3.92,3.8302,3.7838,3.7584,3.6492,3.5938,3.5863,3.5579,3.5504,3.5489,3.5489,3.5729,3.6118,3.6941,3.7614,3.8153,3.8901,3.9373,3.9298,3.9134,3.9125,3.896,3.8212,3.7614,3.7749,3.727,3.6761,3.6615,3.6133,3.6043,3.5998,3.6043,3.5863,3.5594,3.5504,3.5569,3.5636,3.5671,3.5752,3.5831,3.5752,3.5784,3.5831,3.5784,3.5784,3.5799,3.5799,3.572,3.5688,3.5572,3.5504,3.5489,3.5504,3.5549,3.5684,3.6178,3.6911,3.7769,3.8394,3.8634,3.824,3.7734,3.7275,3.6769,3.6322,3.5884,3.5535,3.5236,3.4784,3.4564,3.4426,3.4306,3.4136,3.3966,3.36,3.3234,3.296,3.279,3.2489,3.2059,3.1604,3.0932,3.0392,2.9846,2.9252,2.9151,2.9051,2.8787,2.8537,2.831,2.8147,2.7996,2.7908,2.7745,2.7532,2.7381,2.7268,2.7205,2.7183,2.7114,2.6781,2.6342,2.6171,2.606,2.5798,2.554,2.5088,2.4705,3.9388,3.9388,3.9388,3.9388,3.9388,3.9388,3.9388,3.926,3.7968,3.7419,3.706,3.6148,3.5519,3.5504,3.5504,3.5489,3.5489,3.5489,3.5908,3.6492,3.712,3.7749,3.8362,3.905,3.9388,3.9388,3.9328,3.9343,3.9,3.8407,3.7823,3.7853,3.7569,3.715,3.6851,3.6522,3.6312,3.6372,3.6469,3.6244,3.5947,3.5709,3.5731,3.5767,3.5816,3.5894,3.6005,3.5926,3.5958,3.599,3.5943,3.5958,3.599,3.5894,3.5831,3.5767,3.5651,3.5654,3.5759,3.5848,3.5833,3.6118,3.6567,3.7494,3.8147,3.8652,3.876,3.8427,3.8127,3.7682,3.7271,3.6897,3.6559,3.6137,3.5669,3.5141,3.4714,3.4697,3.4533,3.4267,3.4162,3.4123,3.377,3.3417,3.3234,3.3143,3.2932,3.2682,3.2039,3.1307,3.0655,2.9958,2.9578,2.949,2.9302,2.9051,2.8787,2.8637,2.8486,2.836,2.8273,2.8122,2.7959,2.7858,2.7758,2.7672,2.7623,2.722,2.6927,2.6974,2.698,2.676,2.645,2.5994,2.5673,3.9388,3.9388,3.9388,3.9388,3.9373,3.9388,3.9358,3.9215,3.7943,3.733,3.7045,3.6133,3.5489,3.5489,3.5489,3.5489,3.5489,3.5489,3.5938,3.6522,3.7135,3.7823,3.8467,3.9005,3.9388,3.9388,3.9388,3.9388,3.9254,3.8766,3.8736,3.9029,3.8123,3.8167,3.7883,3.7225,3.6735,3.6693,3.6685,3.6706,3.6456,3.6237,3.6017,3.5973,3.6085,3.6179,3.6179,3.6224,3.627,3.6317,3.6407,3.6406,3.6498,3.6339,3.6305,3.6194,3.5967,3.6121,3.6417,3.6417,3.6701,3.7225,3.7793,3.8257,3.8736,3.896,3.8943,3.9018,3.8956,3.8652,3.8249,3.7792,3.7664,3.7251,3.679,3.59,3.5463,3.5143,3.4952,3.452,3.4397,3.4463,3.4345,3.3992,3.3809,3.3731,3.3493,3.3227,3.2494,3.18,3.1206,3.0605,3.0083,2.9868,2.9741,2.9515,2.9302,2.9264,2.9202,2.9051,2.8875,2.87,2.8411,2.8398,2.8298,2.821,2.8172,2.8084,2.8009,2.7996,2.7848,2.7476,2.7305,2.7028,2.6846,3.9388,3.9388,3.9388,3.9388,3.9394,3.8975,3.8781,3.8571,3.7419,3.6582,3.6237,3.5714,3.5489,3.5489,3.5489,3.5489,3.5564,3.5968,3.6237,3.6761,3.7449,3.8078,3.8616,3.902,3.9388,3.9388,3.9388,3.9388,3.9328,3.9065,3.9247,3.9172,3.8507,3.7883,3.7614,3.7708,3.7218,3.6959,3.7041,3.7198,3.6847,3.673,3.6447,3.6132,3.6148,3.6274,3.6413,3.6686,3.684,3.7025,3.7269,3.7313,3.7279,3.7179,3.7049,3.695,3.667,3.6929,3.724,3.706,3.6941,3.7943,3.8616,3.9155,3.9454,4.0114,4.042,4.0412,4.0233,3.9979,4.0104,3.9777,3.945,3.891,3.8065,3.7011,3.6253,3.5923,3.5414,3.5022,3.4984,3.4986,3.4803,3.458,3.4437,3.4306,3.4025,3.3695,3.3013,3.232,3.1787,3.1129,3.0566,3.0045,2.9893,2.9855,2.9792,2.9779,2.9779,2.9578,2.9276,2.8963,2.875,2.8787,2.8863,2.8837,2.89,2.9089,2.8963,2.8561,2.8273,2.7985,2.7913,2.7965,2.7891,3.9388,3.9358,3.92,3.9245,3.9269,3.8676,3.8377,3.8167,3.706,3.6118,3.5504,3.5489,3.5489,3.5489,3.5489,3.5489,3.5594,3.5923,3.6372,3.6941,3.7584,3.8272,3.8736,3.911,3.9388,3.9388,3.9388,3.9388,3.9388,3.9388,3.9502,3.9273,3.8732,3.8367,3.8296,3.8131,3.7899,3.7639,3.777,3.7849,3.7469,3.7184,3.6836,3.6473,3.6519,3.672,3.6982,3.7319,3.764,3.7826,3.7975,3.817,3.8132,3.8044,3.7857,3.7673,3.7597,3.7749,3.7958,3.8033,3.7749,3.8646,3.932,3.9873,4.0412,4.101,4.1122,4.125,4.1309,4.1452,4.1429,4.084,4.0474,3.9823,3.9272,3.8309,3.7259,3.6675,3.6087,3.5552,3.5504,3.5284,3.5181,3.4931,3.4593,3.4463,3.4277,3.4025,3.3749,3.3051,3.2397,3.1709,3.1001,3.0478,3.0021,2.9906,2.9829,2.9779,2.9779,2.9779,2.9553,2.9264,2.9189,2.9315,2.939,2.9453,2.9465,2.9465,2.9202,2.8837,2.8712,2.8674,2.8775,2.885,2.8787,3.9388,3.9298,3.8721,3.8811,3.923,3.8661,3.8317,3.8033,3.6926,3.6058,3.5519,3.5489,3.5489,3.5489,3.5489,3.5489,3.5534,3.5684,3.6178,3.706,3.7434,3.8212,3.8856,3.926,3.9254,3.9373,3.9388,3.9388,3.9388,3.9388,3.9517,3.9696,3.9531,3.941,3.9824,3.9869,3.954,3.9013,3.8998,3.8528,3.8106,3.7623,3.7058,3.669,3.6845,3.7029,3.7168,3.7844,3.8198,3.8321,3.8496,3.858,3.8498,3.8213,3.8028,3.7895,3.7683,3.7868,3.8347,3.8931,3.9185,3.9409,4.0008,4.0487,4.0621,4.107,4.1654,4.1878,4.1713,4.1632,4.1466,4.1313,4.1225,4.1013,4.0437,3.9527,3.8472,3.7865,3.7387,3.6361,3.5804,3.5478,3.5415,3.5231,3.4769,3.4541,3.4437,3.429,3.4158,3.3706,3.3034,3.2408,3.1682,3.114,3.0642,3.0096,2.9867,2.9817,2.9779,2.9779,2.9779,2.9616,2.9628,2.9779,2.9729,2.9628,2.9691,2.9754,2.9478,2.9264,2.9465,2.9515,2.9641,2.9591,2.9402,3.9388,3.9328,3.8691,3.8512,3.8571,3.7584,3.712,3.6985,3.6252,3.5699,3.5534,3.5489,3.5489,3.5489,3.5489,3.5504,3.5564,3.6073,3.6641,3.6776,3.7165,3.7898,3.8542,3.8841,3.899,3.932,3.9388,3.9388,3.9388,3.9424,3.964,3.9854,4.0021,3.9867,3.9473,3.9347,3.9184,3.9108,3.884,3.8494,3.8348,3.7814,3.7184,3.6538,3.6769,3.6938,3.7061,3.7954,3.8492,3.8675,3.8895,3.9276,3.9249,3.9002,3.8873,3.8832,3.8706,3.8811,3.905,3.9313,3.9619,4.0038,4.0531,4.107,4.1677,4.2297,4.2581,4.2611,4.2506,4.2521,4.2638,4.2623,4.2564,4.25,4.1882,4.0675,3.9711,3.9477,3.8986,3.7435,3.6491,3.6076,3.588,3.5816,3.5418,3.52,3.5134,3.473,3.4502,3.4178,3.362,3.3096,3.247,3.1911,3.1369,3.0907,3.041,3.0245,3.0031,2.9779,2.9779,2.9779,2.9779,2.9779,2.9779,2.9779,2.9779,2.9779,2.9779,2.9754,2.9779,2.9779,2.9741,2.9729,2.9679,3.9065,3.896,3.8093,3.7734,3.7599,3.6821,3.6372,3.6118,3.5684,3.5489,3.5489,3.5489,3.5489,3.5489,3.5489,3.5489,3.5549,3.5908,3.6402,3.6477,3.6866,3.7449,3.7898,3.8287,3.8646,3.905,3.9334,3.9388,3.9424,3.9481,3.9732,4.0101,4.0366,4.0132,3.9772,3.9661,3.9696,3.9615,3.9296,3.8731,3.8398,3.7846,3.7184,3.6769,3.6722,3.6892,3.7169,3.7784,3.8616,3.8949,3.9397,3.9923,3.9854,3.9747,3.9553,3.9424,3.9388,3.9343,3.9358,3.9358,3.9582,3.9903,4.0681,4.1324,4.2021,4.2402,4.2925,4.3095,4.3275,4.3275,4.326,4.3305,4.325,4.3195,4.2698,4.1484,4.0534,4.0267,3.9728,3.8271,3.7234,3.6794,3.6346,3.6255,3.6125,3.5987,3.5905,3.5497,3.5144,3.4871,3.4614,3.4165,3.3662,3.3186,3.2557,3.1853,3.1339,3.079,3.041,3.0083,2.9779,2.9779,2.9779,2.9792,2.9804,2.9817,2.9792,2.9792,2.988,2.9867,2.9779,2.9779,2.9779,2.9779,2.9779,3.8392,3.8197,3.7015,3.6552,3.6507,3.648,3.6106,3.5534,3.5519,3.5489,3.5489,3.5489,3.5489,3.5489,3.5489,3.5489,3.5504,3.5579,3.5908,3.6237,3.6402,3.6881,3.7375,3.7868,3.8247,3.8607,3.8966,3.9316,3.943,3.9696,3.9996,4.0242,4.0401,4.0328,4.0282,4.0251,4.019,3.9917,3.9379,3.8782,3.8262,3.7677,3.7061,3.6753,3.6846,3.7061,3.7384,3.7892,3.8631,3.899,3.92,3.9519,3.9647,3.9589,3.946,3.9388,3.9388,3.9388,3.9388,3.9388,3.9403,3.9642,4.0157,4.0726,4.1414,4.2201,4.2746,4.3125,4.3305,4.3305,4.3305,4.3305,4.3305,4.321,4.3115,4.213,4.1085,4.049,4.0003,3.9083,3.8179,3.7568,3.6993,3.6784,3.7053,3.7353,3.7351,3.7358,3.693,3.6178,3.5933,3.5571,3.5086,3.4585,3.392,3.3279,3.2529,3.2079,3.1025,3.0528,3.0198,2.9868,2.9779,2.9804,2.9842,2.9892,3.003,3.0068,3.008,3.0055,3.0206,2.9917,2.9955,2.9817,2.9779,3.8377,3.8242,3.7,3.6492,3.645,3.6084,3.5769,3.5504,3.5489,3.5489,3.5489,3.5489,3.5489,3.5489,3.5489,3.5489,3.5489,3.5519,3.5594,3.5759,3.5893,3.6252,3.6641,3.7109,3.7702,3.8342,3.8828,3.9179,3.9713,4.0001,4.0121,4.0312,4.0436,4.0489,4.0489,4.0489,4.0197,3.9785,3.9185,3.8585,3.7892,3.7215,3.6769,3.6692,3.6784,3.6953,3.7046,3.7538,3.8185,3.8657,3.8922,3.9297,3.99,3.964,3.9388,3.9388,3.9388,3.9388,3.9388,3.9388,3.9388,3.9508,4.0023,4.0681,4.1339,4.2051,4.2656,4.306,4.329,4.3305,4.3305,4.3305,4.3305,4.325,4.3121,4.249,4.151,4.0952,4.0406,3.9406,3.8518,3.8184,3.7636,3.7746,3.8061,3.8519,3.8824,3.8919,3.869,3.7919,3.7429,3.7104,3.6831,3.6463,3.5756,3.5073,3.4171,3.3307,3.2256,3.1288,3.0785,3.0441,2.9995,2.9981,3.0375,3.041,3.0407,3.0457,3.0662,3.0874,3.0959,3.0482,3.0105,3.008,3.0018,3.8003,3.7823,3.6626,3.6103,3.6061,3.5819,3.5735,3.5814,3.5733,3.5683,3.5572,3.5557,3.5554,3.5489,3.5489,3.5489,3.5489,3.5489,3.5534,3.5534,3.5489,3.5759,3.6043,3.6454,3.7079,3.7763,3.8348,3.8765,3.953,4.0115,4.0312,4.0401,4.0455,4.0489,4.0489,4.0428,3.992,3.9305,3.8692,3.8138,3.7492,3.6846,3.6599,3.6538,3.6661,3.6722,3.6599,3.7153,3.78,3.8352,3.8681,3.9173,3.9792,3.9747,3.9445,3.9445,3.9388,3.9388,3.9388,3.9388,3.9388,3.9568,4.0083,4.0861,4.1519,4.2246,4.2716,4.311,4.3215,4.3305,4.3305,4.3305,4.3305,4.3305,4.2991,4.2677,4.2117,4.1504,4.0584,3.9527,3.9003,3.8731,3.8606,3.8756,3.9013,3.9408,3.9918,4.0318,4.0154,3.9618,3.9237,3.8915,3.8748,3.8456,3.7682,3.6861,3.595,3.4872,3.3646,3.2698,3.1822,3.1302,3.1083,3.099,3.1064,3.1113,3.1202,3.1286,3.1438,3.1625,3.1634,3.1203,3.0836,3.0721,3.0633,3.7389,3.724,3.6028,3.5582,3.5554,3.575,3.607,3.6399,3.6242,3.599,3.58,3.572,3.5653,3.5522,3.5489,3.5489,3.5489,3.5489,3.5489,3.5489,3.5489,3.5609,3.5842,3.6237,3.6697,3.699,3.7482,3.8269,3.9036,3.9646,4.0155,4.0428,4.0489,4.0489,4.0489,4.0489,3.9982,3.9121,3.8739,3.8323,3.743,3.6846,3.6507,3.6584,3.6861,3.7092,3.6799,3.7107,3.7769,3.8165,3.8512,3.8962,3.9595,3.9839,3.9553,3.9445,3.9388,3.9523,3.9582,3.9642,3.9723,3.9903,4.0217,4.1175,4.1976,4.2515,4.297,4.3718,4.3962,4.3992,4.4007,4.4032,4.4032,4.3873,4.3633,4.3,4.2147,4.1354,4.027,3.9444,3.9179,3.8936,3.892,3.8981,3.9518,4.0095,4.0604,4.1157,4.1449,4.1137,4.0774,4.0506,4.0294,3.9999,3.9522,3.8685,3.7701,3.6589,3.5154,3.4033,3.3159,3.2633,3.2209,3.2145,3.2095,3.2129,3.219,3.2354,3.2426,3.2316,3.2222,3.1868,3.1675,3.1706,3.1291,3.7135,3.6675,3.5967,3.5638,3.5735,3.6242,3.6585,3.6799,3.7012,3.6738,3.6274,3.6022,3.575,3.5554,3.5522,3.5522,3.5489,3.5554,3.5489,3.5522,3.5522,3.5668,3.5686,3.6041,3.6425,3.6919,3.743,3.7844,3.8586,3.9269,3.9748,3.9828,4.0151,4.0489,4.0489,4.0489,4.0013,3.9167,3.9044,3.8354,3.7169,3.6769,3.6507,3.6599,3.6815,3.6907,3.6722,3.6738,3.7538,3.8183,3.8233,3.8827,3.9718,3.958,3.9481,3.9409,3.9433,3.9723,3.9978,4.0157,4.0337,4.0876,4.1369,4.1916,4.244,4.2836,4.3464,4.4272,4.4736,4.4721,4.4721,4.4706,4.4676,4.4511,4.4257,4.324,4.2261,4.1115,3.9971,3.9666,3.9399,3.9311,3.9283,3.955,3.9995,4.05,4.0999,4.1585,4.2401,4.2464,4.1986,4.1736,4.16,4.133,4.0931,4.0206,3.9048,3.7845,3.645,3.5427,3.4468,3.4017,3.3595,3.3331,3.3199,3.341,3.3632,3.3742,3.371,3.3513,3.3433,3.3303,3.3269,3.3294,3.2447,3.6806,3.6435,3.5924,3.58,3.6086,3.6554,3.7057,3.7488,3.765,3.7549,3.7161,3.6631,3.61,3.5765,3.5716,3.5668,3.5636,3.5716,3.5668,3.5636,3.575,3.5941,3.599,3.6148,3.6442,3.6936,3.7256,3.7688,3.82,3.9029,3.9551,3.9598,4.012,4.0489,4.0489,4.0443,4.0166,3.9521,3.9536,3.8723,3.743,3.7353,3.7384,3.74,3.7569,3.7461,3.7122,3.7137,3.7688,3.8435,3.876,3.9104,3.9682,3.961,3.9517,3.9529,3.9709,4.0008,4.0382,4.0741,4.1025,4.1564,4.2036,4.2336,4.303,4.3494,4.4003,4.4751,4.5005,4.5035,4.505,4.5035,4.5035,4.4945,4.4407,4.3584,4.2536,4.1459,4.0846,4.0599,4.0442,4.0457,4.045,4.0465,4.0927,4.1405,4.1818,4.2132,4.2901,4.3394,4.303,4.2699,4.2496,4.2232,4.1802,4.1081,4.0178,3.8957,3.766,3.681,3.5884,3.5405,3.5006,3.4901,3.4944,3.5136,3.5303,3.5238,3.5184,3.5036,3.4982,3.4913,3.4855,3.4662,3.3829,3.6588,3.6382,3.6008,3.6054,3.6492,3.6906,3.7546,3.8193,3.8226,3.8242,3.8153,3.7312,3.6677,3.632,3.61,3.5958,3.5879,3.5941,3.5894,3.5943,3.6133,3.643,3.6662,3.6769,3.6832,3.6894,3.7093,3.7338,3.7646,3.8616,3.9305,3.9567,4.0028,4.0489,4.0489,4.0443,4.0197,3.989,3.969,3.9416,3.8939,3.8585,3.8385,3.8631,3.889,3.8675,3.8152,3.7947,3.8216,3.8711,3.9249,3.9526,3.9747,3.979,3.9772,3.982,4.0247,4.0561,4.0876,4.1309,4.1549,4.1863,4.2237,4.2761,4.3479,4.3988,4.4496,4.496,4.5214,4.5559,4.5574,4.5603,4.5603,4.5334,4.4706,4.3823,4.2761,4.1788,4.1534,4.1339,4.1339,4.1324,4.1354,4.1369,4.1841,4.2321,4.2755,4.3,4.3314,4.3499,4.3483,4.3224,4.297,4.2733,4.2414,4.1632,4.0734,3.9774,3.8518,3.7916,3.7276,3.6777,3.6539,3.6747,3.6821,3.6623,3.6574,3.6501,3.6476,3.6397,3.6292,3.6122,3.5803,3.5534,3.5073,3.6911,3.6123,3.6382,3.6631,3.6921,3.7562,3.8112,3.8511,3.8623,3.8623,3.8483,3.8214,3.7679,3.7117,3.6814,3.6538,3.6212,3.6227,3.6258,3.6305,3.6492,3.6966,3.7266,3.7178,3.7119,3.7094,3.7033,3.7062,3.7692,3.8446,3.9016,3.9539,4.0166,4.0474,4.0489,4.0443,4.0397,4.0182,4.0197,4.0028,3.9751,3.9293,3.8585,3.8585,3.86,3.8523,3.8367,3.8218,3.8568,3.8998,3.9414,3.9632,3.9766,3.9884,3.9976,4.0059,4.0516,4.11,4.1429,4.1856,4.2111,4.2656,4.297,4.3045,4.3574,4.3973,4.4571,4.5289,4.5723,4.6501,4.6651,4.6696,4.6666,4.6022,4.5394,4.3988,4.277,4.2087,4.1654,4.1594,4.1594,4.1609,4.1639,4.1938,4.2536,4.306,4.3658,4.3928,4.4003,4.3988,4.3888,4.3648,4.3409,4.294,4.2476,4.178,4.0971,4.0151,3.9387,3.8639,3.8136,3.8037,3.7962,3.7933,3.782,3.7648,3.7615,3.7615,3.7501,3.741,3.7347,3.7155,3.6844,3.6492,3.6096]}]]